<?xml version="1.0" encoding="UTF-8" standalone="no" ?>
<gpx xmlns="http://www.topografix.com/GPX/1/1" xmlns:xsi="http://www.w3.org/2001/XMLSchema-instance" xsi:schemaLocation="http://www.topografix.com/GPX/1/1 http://www.topografix.com/GPX/1/1/gpx.xsd" version="1.1" creator="VisuGPX - https://www.visugpx.com">
  <metadata>
    <name>Grabels 2021-05-18</name>
    <desc><![CDATA[Très beau parcours de VTT depuis Grabels (Source de l'Avy)]]></desc>
  </metadata>
  <trk>
    <name><![CDATA[Grabels 2021-05-18]]></name>
    <trkseg>
      <trkpt lat="43.65031" lon="3.78959">
        <ele>59.09375</ele>
      </trkpt>
      <trkpt lat="43.6501" lon="3.78973">
        <ele>59.015625</ele>
      </trkpt>
      <trkpt lat="43.64994" lon="3.78969">
        <ele>60.36328125</ele>
      </trkpt>
      <trkpt lat="43.64955" lon="3.78997">
        <ele>60.3203125</ele>
      </trkpt>
      <trkpt lat="43.64934" lon="3.79011">
        <ele>59.71875</ele>
      </trkpt>
      <trkpt lat="43.64919" lon="3.79025">
        <ele>58.78125</ele>
      </trkpt>
      <trkpt lat="43.64901" lon="3.79036">
        <ele>59.34375</ele>
      </trkpt>
      <trkpt lat="43.64892" lon="3.79045">
        <ele>59.200000762939</ele>
        <time>2021-05-18T07:17:24Z</time>
      </trkpt>
      <trkpt lat="43.6489" lon="3.79047">
        <ele>59.200000762939</ele>
        <time>2021-05-18T07:17:25Z</time>
      </trkpt>
      <trkpt lat="43.64859" lon="3.79075">
        <ele>58.400001525879</ele>
        <time>2021-05-18T07:17:37Z</time>
      </trkpt>
      <trkpt lat="43.64859" lon="3.79075">
        <ele>58.400001525879</ele>
        <time>2021-05-18T07:17:40Z</time>
      </trkpt>
      <trkpt lat="43.64855" lon="3.79079">
        <ele>58.599998474121</ele>
        <time>2021-05-18T07:17:46Z</time>
      </trkpt>
      <trkpt lat="43.64853" lon="3.79082">
        <ele>58.599998474121</ele>
        <time>2021-05-18T07:17:47Z</time>
      </trkpt>
      <trkpt lat="43.6485" lon="3.79085">
        <ele>58.599998474121</ele>
        <time>2021-05-18T07:17:48Z</time>
      </trkpt>
      <trkpt lat="43.64845" lon="3.79088">
        <ele>58.599998474121</ele>
        <time>2021-05-18T07:17:49Z</time>
      </trkpt>
      <trkpt lat="43.64841" lon="3.79092">
        <ele>58.599998474121</ele>
        <time>2021-05-18T07:17:50Z</time>
      </trkpt>
      <trkpt lat="43.64779" lon="3.79164">
        <ele>57.400001525879</ele>
        <time>2021-05-18T07:18:02Z</time>
      </trkpt>
      <trkpt lat="43.64758" lon="3.7918">
        <ele>57.400001525879</ele>
        <time>2021-05-18T07:18:06Z</time>
      </trkpt>
      <trkpt lat="43.64753" lon="3.79185">
        <ele>57.400001525879</ele>
        <time>2021-05-18T07:18:07Z</time>
      </trkpt>
      <trkpt lat="43.64732" lon="3.79216">
        <ele>57</ele>
        <time>2021-05-18T07:18:12Z</time>
      </trkpt>
      <trkpt lat="43.64712" lon="3.79242">
        <ele>56.799999237061</ele>
        <time>2021-05-18T07:18:17Z</time>
      </trkpt>
      <trkpt lat="43.6471" lon="3.79246">
        <ele>56.799999237061</ele>
        <time>2021-05-18T07:18:18Z</time>
      </trkpt>
      <trkpt lat="43.64708" lon="3.7925">
        <ele>56.599998474121</ele>
        <time>2021-05-18T07:18:19Z</time>
      </trkpt>
      <trkpt lat="43.64707" lon="3.79254">
        <ele>56.599998474121</ele>
        <time>2021-05-18T07:18:20Z</time>
      </trkpt>
      <trkpt lat="43.64707" lon="3.79257">
        <ele>56.599998474121</ele>
        <time>2021-05-18T07:18:21Z</time>
      </trkpt>
      <trkpt lat="43.64707" lon="3.7926">
        <ele>56.599998474121</ele>
        <time>2021-05-18T07:18:22Z</time>
      </trkpt>
      <trkpt lat="43.64707" lon="3.79262">
        <ele>56.599998474121</ele>
        <time>2021-05-18T07:18:23Z</time>
      </trkpt>
      <trkpt lat="43.64707" lon="3.79264">
        <ele>56.400001525879</ele>
        <time>2021-05-18T07:18:24Z</time>
      </trkpt>
      <trkpt lat="43.64707" lon="3.79267">
        <ele>56.400001525879</ele>
        <time>2021-05-18T07:18:25Z</time>
      </trkpt>
      <trkpt lat="43.64701" lon="3.79277">
        <ele>56</ele>
        <time>2021-05-18T07:18:31Z</time>
      </trkpt>
      <trkpt lat="43.647" lon="3.79277">
        <ele>56</ele>
        <time>2021-05-18T07:18:32Z</time>
      </trkpt>
      <trkpt lat="43.64698" lon="3.79277">
        <ele>56</ele>
        <time>2021-05-18T07:18:33Z</time>
      </trkpt>
      <trkpt lat="43.64696" lon="3.79278">
        <ele>56</ele>
        <time>2021-05-18T07:18:34Z</time>
      </trkpt>
      <trkpt lat="43.64694" lon="3.79278">
        <ele>55.799999237061</ele>
        <time>2021-05-18T07:18:35Z</time>
      </trkpt>
      <trkpt lat="43.64691" lon="3.7928">
        <ele>55.799999237061</ele>
        <time>2021-05-18T07:18:36Z</time>
      </trkpt>
      <trkpt lat="43.64667" lon="3.79288">
        <ele>55.400001525879</ele>
        <time>2021-05-18T07:18:42Z</time>
      </trkpt>
      <trkpt lat="43.64664" lon="3.79292">
        <ele>55.400001525879</ele>
        <time>2021-05-18T07:18:43Z</time>
      </trkpt>
      <trkpt lat="43.64662" lon="3.79297">
        <ele>55.400001525879</ele>
        <time>2021-05-18T07:18:44Z</time>
      </trkpt>
      <trkpt lat="43.6466" lon="3.79303">
        <ele>55.400001525879</ele>
        <time>2021-05-18T07:18:45Z</time>
      </trkpt>
      <trkpt lat="43.64658" lon="3.79309">
        <ele>55.599998474121</ele>
        <time>2021-05-18T07:18:46Z</time>
      </trkpt>
      <trkpt lat="43.64657" lon="3.79315">
        <ele>55.599998474121</ele>
        <time>2021-05-18T07:18:47Z</time>
      </trkpt>
      <trkpt lat="43.64656" lon="3.79321">
        <ele>55.799999237061</ele>
        <time>2021-05-18T07:18:48Z</time>
      </trkpt>
      <trkpt lat="43.64654" lon="3.79327">
        <ele>55.799999237061</ele>
        <time>2021-05-18T07:18:49Z</time>
      </trkpt>
      <trkpt lat="43.64647" lon="3.79355">
        <ele>55.799999237061</ele>
        <time>2021-05-18T07:18:54Z</time>
      </trkpt>
      <trkpt lat="43.64645" lon="3.79361">
        <ele>55.599998474121</ele>
        <time>2021-05-18T07:18:55Z</time>
      </trkpt>
      <trkpt lat="43.64637" lon="3.79386">
        <ele>55</ele>
        <time>2021-05-18T07:19:00Z</time>
      </trkpt>
      <trkpt lat="43.64634" lon="3.79391">
        <ele>55</ele>
        <time>2021-05-18T07:19:01Z</time>
      </trkpt>
      <trkpt lat="43.64631" lon="3.79395">
        <ele>55</ele>
        <time>2021-05-18T07:19:02Z</time>
      </trkpt>
      <trkpt lat="43.64627" lon="3.79399">
        <ele>54.799999237061</ele>
        <time>2021-05-18T07:19:03Z</time>
      </trkpt>
      <trkpt lat="43.64625" lon="3.79404">
        <ele>54.799999237061</ele>
        <time>2021-05-18T07:19:04Z</time>
      </trkpt>
      <trkpt lat="43.64622" lon="3.79409">
        <ele>54.599998474121</ele>
        <time>2021-05-18T07:19:05Z</time>
      </trkpt>
      <trkpt lat="43.64601" lon="3.79435">
        <ele>53.799999237061</ele>
        <time>2021-05-18T07:19:15Z</time>
      </trkpt>
      <trkpt lat="43.64594" lon="3.79451">
        <ele>53.799999237061</ele>
        <time>2021-05-18T07:19:23Z</time>
      </trkpt>
      <trkpt lat="43.64592" lon="3.79453">
        <ele>53.799999237061</ele>
        <time>2021-05-18T07:19:24Z</time>
      </trkpt>
      <trkpt lat="43.64591" lon="3.79456">
        <ele>53.799999237061</ele>
        <time>2021-05-18T07:19:25Z</time>
      </trkpt>
      <trkpt lat="43.64592" lon="3.7946">
        <ele>53.799999237061</ele>
        <time>2021-05-18T07:19:26Z</time>
      </trkpt>
      <trkpt lat="43.64594" lon="3.79463">
        <ele>53.799999237061</ele>
        <time>2021-05-18T07:19:27Z</time>
      </trkpt>
      <trkpt lat="43.64596" lon="3.79467">
        <ele>53.799999237061</ele>
        <time>2021-05-18T07:19:28Z</time>
      </trkpt>
      <trkpt lat="43.64598" lon="3.79471">
        <ele>53.799999237061</ele>
        <time>2021-05-18T07:19:29Z</time>
      </trkpt>
      <trkpt lat="43.646" lon="3.79476">
        <ele>53.799999237061</ele>
        <time>2021-05-18T07:19:30Z</time>
      </trkpt>
      <trkpt lat="43.64599" lon="3.79481">
        <ele>53.799999237061</ele>
        <time>2021-05-18T07:19:31Z</time>
      </trkpt>
      <trkpt lat="43.64598" lon="3.79486">
        <ele>53.799999237061</ele>
        <time>2021-05-18T07:19:32Z</time>
      </trkpt>
      <trkpt lat="43.64595" lon="3.7949">
        <ele>53.599998474121</ele>
        <time>2021-05-18T07:19:33Z</time>
      </trkpt>
      <trkpt lat="43.64592" lon="3.79496">
        <ele>53.599998474121</ele>
        <time>2021-05-18T07:19:34Z</time>
      </trkpt>
      <trkpt lat="43.64589" lon="3.79502">
        <ele>53.599998474121</ele>
        <time>2021-05-18T07:19:35Z</time>
      </trkpt>
      <trkpt lat="43.64586" lon="3.79508">
        <ele>53.599998474121</ele>
        <time>2021-05-18T07:19:36Z</time>
      </trkpt>
      <trkpt lat="43.64584" lon="3.79515">
        <ele>53.599998474121</ele>
        <time>2021-05-18T07:19:37Z</time>
      </trkpt>
      <trkpt lat="43.64564" lon="3.79584">
        <ele>53.599998474121</ele>
        <time>2021-05-18T07:19:49Z</time>
      </trkpt>
      <trkpt lat="43.64553" lon="3.7962">
        <ele>53.799999237061</ele>
        <time>2021-05-18T07:19:57Z</time>
      </trkpt>
      <trkpt lat="43.64551" lon="3.79625">
        <ele>53.799999237061</ele>
        <time>2021-05-18T07:19:58Z</time>
      </trkpt>
      <trkpt lat="43.64534" lon="3.79671">
        <ele>53.799999237061</ele>
        <time>2021-05-18T07:20:08Z</time>
      </trkpt>
      <trkpt lat="43.64531" lon="3.79674">
        <ele>53.799999237061</ele>
        <time>2021-05-18T07:20:09Z</time>
      </trkpt>
      <trkpt lat="43.64522" lon="3.79686">
        <ele>53.799999237061</ele>
        <time>2021-05-18T07:20:12Z</time>
      </trkpt>
      <trkpt lat="43.64493" lon="3.7975">
        <ele>53.799999237061</ele>
        <time>2021-05-18T07:20:24Z</time>
      </trkpt>
      <trkpt lat="43.64461" lon="3.79782">
        <ele>54.200000762939</ele>
        <time>2021-05-18T07:20:34Z</time>
      </trkpt>
      <trkpt lat="43.64459" lon="3.79788">
        <ele>54.200000762939</ele>
        <time>2021-05-18T07:20:35Z</time>
      </trkpt>
      <trkpt lat="43.64446" lon="3.79834">
        <ele>54.799999237061</ele>
        <time>2021-05-18T07:20:44Z</time>
      </trkpt>
      <trkpt lat="43.64436" lon="3.79853">
        <ele>55</ele>
        <time>2021-05-18T07:20:48Z</time>
      </trkpt>
      <trkpt lat="43.64436" lon="3.79858">
        <ele>55</ele>
        <time>2021-05-18T07:20:49Z</time>
      </trkpt>
      <trkpt lat="43.64438" lon="3.79863">
        <ele>55</ele>
        <time>2021-05-18T07:20:50Z</time>
      </trkpt>
      <trkpt lat="43.64441" lon="3.79866">
        <ele>55</ele>
        <time>2021-05-18T07:20:51Z</time>
      </trkpt>
      <trkpt lat="43.64443" lon="3.79869">
        <ele>55</ele>
        <time>2021-05-18T07:20:52Z</time>
      </trkpt>
      <trkpt lat="43.64446" lon="3.79872">
        <ele>55</ele>
        <time>2021-05-18T07:20:53Z</time>
      </trkpt>
      <trkpt lat="43.64468" lon="3.79897">
        <ele>55.400001525879</ele>
        <time>2021-05-18T07:21:00Z</time>
      </trkpt>
      <trkpt lat="43.64537" lon="3.7997">
        <ele>57.200000762939</ele>
        <time>2021-05-18T07:21:18Z</time>
      </trkpt>
      <trkpt lat="43.64565" lon="3.80012">
        <ele>58.599998474121</ele>
        <time>2021-05-18T07:21:29Z</time>
      </trkpt>
      <trkpt lat="43.64564" lon="3.80017">
        <ele>58.799999237061</ele>
        <time>2021-05-18T07:21:30Z</time>
      </trkpt>
      <trkpt lat="43.64562" lon="3.80021">
        <ele>59</ele>
        <time>2021-05-18T07:21:31Z</time>
      </trkpt>
      <trkpt lat="43.6456" lon="3.80026">
        <ele>59.200000762939</ele>
        <time>2021-05-18T07:21:32Z</time>
      </trkpt>
      <trkpt lat="43.64558" lon="3.80031">
        <ele>59.200000762939</ele>
        <time>2021-05-18T07:21:33Z</time>
      </trkpt>
      <trkpt lat="43.64522" lon="3.80107">
        <ele>60</ele>
        <time>2021-05-18T07:21:49Z</time>
      </trkpt>
      <trkpt lat="43.64522" lon="3.80113">
        <ele>60</ele>
        <time>2021-05-18T07:21:50Z</time>
      </trkpt>
      <trkpt lat="43.64521" lon="3.80119">
        <ele>59.799999237061</ele>
        <time>2021-05-18T07:21:51Z</time>
      </trkpt>
      <trkpt lat="43.64522" lon="3.80131">
        <ele>59.400001525879</ele>
        <time>2021-05-18T07:21:53Z</time>
      </trkpt>
      <trkpt lat="43.64523" lon="3.80136">
        <ele>59.400001525879</ele>
        <time>2021-05-18T07:21:54Z</time>
      </trkpt>
      <trkpt lat="43.64525" lon="3.80141">
        <ele>59.400001525879</ele>
        <time>2021-05-18T07:21:55Z</time>
      </trkpt>
      <trkpt lat="43.64528" lon="3.80145">
        <ele>59.200000762939</ele>
        <time>2021-05-18T07:21:56Z</time>
      </trkpt>
      <trkpt lat="43.64531" lon="3.80149">
        <ele>59.200000762939</ele>
        <time>2021-05-18T07:21:57Z</time>
      </trkpt>
      <trkpt lat="43.64535" lon="3.80152">
        <ele>59.200000762939</ele>
        <time>2021-05-18T07:21:58Z</time>
      </trkpt>
      <trkpt lat="43.64574" lon="3.80194">
        <ele>58.400001525879</ele>
        <time>2021-05-18T07:22:09Z</time>
      </trkpt>
      <trkpt lat="43.64574" lon="3.80199">
        <ele>58.400001525879</ele>
        <time>2021-05-18T07:22:10Z</time>
      </trkpt>
      <trkpt lat="43.64576" lon="3.80209">
        <ele>58.400001525879</ele>
        <time>2021-05-18T07:22:12Z</time>
      </trkpt>
      <trkpt lat="43.64578" lon="3.80214">
        <ele>58.400001525879</ele>
        <time>2021-05-18T07:22:13Z</time>
      </trkpt>
      <trkpt lat="43.64582" lon="3.80218">
        <ele>58.400001525879</ele>
        <time>2021-05-18T07:22:14Z</time>
      </trkpt>
      <trkpt lat="43.64586" lon="3.80221">
        <ele>58.400001525879</ele>
        <time>2021-05-18T07:22:15Z</time>
      </trkpt>
      <trkpt lat="43.6459" lon="3.80224">
        <ele>58.400001525879</ele>
        <time>2021-05-18T07:22:16Z</time>
      </trkpt>
      <trkpt lat="43.64627" lon="3.80244">
        <ele>58.599998474121</ele>
        <time>2021-05-18T07:22:28Z</time>
      </trkpt>
      <trkpt lat="43.64634" lon="3.80246">
        <ele>59</ele>
        <time>2021-05-18T07:22:31Z</time>
      </trkpt>
      <trkpt lat="43.64635" lon="3.80249">
        <ele>59</ele>
        <time>2021-05-18T07:22:32Z</time>
      </trkpt>
      <trkpt lat="43.64635" lon="3.80252">
        <ele>59.200000762939</ele>
        <time>2021-05-18T07:22:33Z</time>
      </trkpt>
      <trkpt lat="43.64647" lon="3.80278">
        <ele>59.599998474121</ele>
        <time>2021-05-18T07:22:41Z</time>
      </trkpt>
      <trkpt lat="43.64651" lon="3.80278">
        <ele>59.599998474121</ele>
        <time>2021-05-18T07:22:42Z</time>
      </trkpt>
      <trkpt lat="43.64655" lon="3.80276">
        <ele>59.799999237061</ele>
        <time>2021-05-18T07:22:43Z</time>
      </trkpt>
      <trkpt lat="43.64659" lon="3.80274">
        <ele>59.799999237061</ele>
        <time>2021-05-18T07:22:44Z</time>
      </trkpt>
      <trkpt lat="43.64663" lon="3.80272">
        <ele>59.799999237061</ele>
        <time>2021-05-18T07:22:45Z</time>
      </trkpt>
      <trkpt lat="43.64667" lon="3.80272">
        <ele>59.799999237061</ele>
        <time>2021-05-18T07:22:46Z</time>
      </trkpt>
      <trkpt lat="43.6467" lon="3.80272">
        <ele>59.799999237061</ele>
        <time>2021-05-18T07:22:47Z</time>
      </trkpt>
      <trkpt lat="43.64673" lon="3.80274">
        <ele>59.799999237061</ele>
        <time>2021-05-18T07:22:48Z</time>
      </trkpt>
      <trkpt lat="43.64674" lon="3.80277">
        <ele>59.799999237061</ele>
        <time>2021-05-18T07:22:49Z</time>
      </trkpt>
      <trkpt lat="43.64674" lon="3.80281">
        <ele>59.799999237061</ele>
        <time>2021-05-18T07:22:50Z</time>
      </trkpt>
      <trkpt lat="43.64674" lon="3.80285">
        <ele>60</ele>
        <time>2021-05-18T07:22:51Z</time>
      </trkpt>
      <trkpt lat="43.64673" lon="3.8029">
        <ele>60</ele>
        <time>2021-05-18T07:22:52Z</time>
      </trkpt>
      <trkpt lat="43.64664" lon="3.80411">
        <ele>60.599998474121</ele>
        <time>2021-05-18T07:23:10Z</time>
      </trkpt>
      <trkpt lat="43.64664" lon="3.80444">
        <ele>60.400001525879</ele>
        <time>2021-05-18T07:23:15Z</time>
      </trkpt>
      <trkpt lat="43.64678" lon="3.80579">
        <ele>60.400001525879</ele>
        <time>2021-05-18T07:23:35Z</time>
      </trkpt>
      <trkpt lat="43.64681" lon="3.80614">
        <ele>60.599998474121</ele>
        <time>2021-05-18T07:23:41Z</time>
      </trkpt>
      <trkpt lat="43.64681" lon="3.8062">
        <ele>60.599998474121</ele>
        <time>2021-05-18T07:23:42Z</time>
      </trkpt>
      <trkpt lat="43.64674" lon="3.80704">
        <ele>61.599998474121</ele>
        <time>2021-05-18T07:23:58Z</time>
      </trkpt>
      <trkpt lat="43.6467" lon="3.80721">
        <ele>61.799999237061</ele>
        <time>2021-05-18T07:24:01Z</time>
      </trkpt>
      <trkpt lat="43.64669" lon="3.80727">
        <ele>61.799999237061</ele>
        <time>2021-05-18T07:24:02Z</time>
      </trkpt>
      <trkpt lat="43.64665" lon="3.80758">
        <ele>62</ele>
        <time>2021-05-18T07:24:07Z</time>
      </trkpt>
      <trkpt lat="43.64663" lon="3.80764">
        <ele>62</ele>
        <time>2021-05-18T07:24:08Z</time>
      </trkpt>
      <trkpt lat="43.64653" lon="3.80791">
        <ele>62</ele>
        <time>2021-05-18T07:24:13Z</time>
      </trkpt>
      <trkpt lat="43.64627" lon="3.80883">
        <ele>62.400001525879</ele>
        <time>2021-05-18T07:24:28Z</time>
      </trkpt>
      <trkpt lat="43.6461" lon="3.8096">
        <ele>63.400001525879</ele>
        <time>2021-05-18T07:24:40Z</time>
      </trkpt>
      <trkpt lat="43.64608" lon="3.80967">
        <ele>63.400001525879</ele>
        <time>2021-05-18T07:24:41Z</time>
      </trkpt>
      <trkpt lat="43.64591" lon="3.8102">
        <ele>63.799999237061</ele>
        <time>2021-05-18T07:24:50Z</time>
      </trkpt>
      <trkpt lat="43.64588" lon="3.81024">
        <ele>63.799999237061</ele>
        <time>2021-05-18T07:24:51Z</time>
      </trkpt>
      <trkpt lat="43.64585" lon="3.81028">
        <ele>63.799999237061</ele>
        <time>2021-05-18T07:24:52Z</time>
      </trkpt>
      <trkpt lat="43.64583" lon="3.81033">
        <ele>63.799999237061</ele>
        <time>2021-05-18T07:24:53Z</time>
      </trkpt>
      <trkpt lat="43.64583" lon="3.81038">
        <ele>63.799999237061</ele>
        <time>2021-05-18T07:24:54Z</time>
      </trkpt>
      <trkpt lat="43.64585" lon="3.81043">
        <ele>63.799999237061</ele>
        <time>2021-05-18T07:24:55Z</time>
      </trkpt>
      <trkpt lat="43.64586" lon="3.81047">
        <ele>63.799999237061</ele>
        <time>2021-05-18T07:24:56Z</time>
      </trkpt>
      <trkpt lat="43.64588" lon="3.8105">
        <ele>63.799999237061</ele>
        <time>2021-05-18T07:24:57Z</time>
      </trkpt>
      <trkpt lat="43.64591" lon="3.81086">
        <ele>64</ele>
        <time>2021-05-18T07:25:05Z</time>
      </trkpt>
      <trkpt lat="43.6459" lon="3.81089">
        <ele>64.199996948242</ele>
        <time>2021-05-18T07:25:06Z</time>
      </trkpt>
      <trkpt lat="43.6459" lon="3.81093">
        <ele>64.199996948242</ele>
        <time>2021-05-18T07:25:07Z</time>
      </trkpt>
      <trkpt lat="43.6459" lon="3.81096">
        <ele>64.199996948242</ele>
        <time>2021-05-18T07:25:08Z</time>
      </trkpt>
      <trkpt lat="43.6459" lon="3.811">
        <ele>64.400001525879</ele>
        <time>2021-05-18T07:25:09Z</time>
      </trkpt>
      <trkpt lat="43.6459" lon="3.81103">
        <ele>64.400001525879</ele>
        <time>2021-05-18T07:25:10Z</time>
      </trkpt>
      <trkpt lat="43.64585" lon="3.81159">
        <ele>65.199996948242</ele>
        <time>2021-05-18T07:25:23Z</time>
      </trkpt>
      <trkpt lat="43.64578" lon="3.81178">
        <ele>65.199996948242</ele>
        <time>2021-05-18T07:25:28Z</time>
      </trkpt>
      <trkpt lat="43.6458" lon="3.81181">
        <ele>65.400001525879</ele>
        <time>2021-05-18T07:25:29Z</time>
      </trkpt>
      <trkpt lat="43.64581" lon="3.81181">
        <ele>65.400001525879</ele>
        <time>2021-05-18T07:25:30Z</time>
      </trkpt>
      <trkpt lat="43.64583" lon="3.81181">
        <ele>65.400001525879</ele>
        <time>2021-05-18T07:25:31Z</time>
      </trkpt>
      <trkpt lat="43.64585" lon="3.81181">
        <ele>65.400001525879</ele>
        <time>2021-05-18T07:25:32Z</time>
      </trkpt>
      <trkpt lat="43.64587" lon="3.81181">
        <ele>65.400001525879</ele>
        <time>2021-05-18T07:25:33Z</time>
      </trkpt>
      <trkpt lat="43.64589" lon="3.81181">
        <ele>65.599998474121</ele>
        <time>2021-05-18T07:25:34Z</time>
      </trkpt>
      <trkpt lat="43.64612" lon="3.81197">
        <ele>66</ele>
        <time>2021-05-18T07:25:46Z</time>
      </trkpt>
      <trkpt lat="43.64679" lon="3.81224">
        <ele>65.800003051758</ele>
        <time>2021-05-18T07:26:06Z</time>
      </trkpt>
      <trkpt lat="43.647" lon="3.81232">
        <ele>65.400001525879</ele>
        <time>2021-05-18T07:26:11Z</time>
      </trkpt>
      <trkpt lat="43.64703" lon="3.81234">
        <ele>65.199996948242</ele>
        <time>2021-05-18T07:26:12Z</time>
      </trkpt>
      <trkpt lat="43.64707" lon="3.81238">
        <ele>64.800003051758</ele>
        <time>2021-05-18T07:26:13Z</time>
      </trkpt>
      <trkpt lat="43.6471" lon="3.81242">
        <ele>64.800003051758</ele>
        <time>2021-05-18T07:26:14Z</time>
      </trkpt>
      <trkpt lat="43.64712" lon="3.81246">
        <ele>64.599998474121</ele>
        <time>2021-05-18T07:26:15Z</time>
      </trkpt>
      <trkpt lat="43.64714" lon="3.81251">
        <ele>64.599998474121</ele>
        <time>2021-05-18T07:26:16Z</time>
      </trkpt>
      <trkpt lat="43.64716" lon="3.81256">
        <ele>64.400001525879</ele>
        <time>2021-05-18T07:26:17Z</time>
      </trkpt>
      <trkpt lat="43.64716" lon="3.81261">
        <ele>64.400001525879</ele>
        <time>2021-05-18T07:26:18Z</time>
      </trkpt>
      <trkpt lat="43.64718" lon="3.81266">
        <ele>64.400001525879</ele>
        <time>2021-05-18T07:26:19Z</time>
      </trkpt>
      <trkpt lat="43.64721" lon="3.81271">
        <ele>64.400001525879</ele>
        <time>2021-05-18T07:26:20Z</time>
      </trkpt>
      <trkpt lat="43.64724" lon="3.81275">
        <ele>64.400001525879</ele>
        <time>2021-05-18T07:26:21Z</time>
      </trkpt>
      <trkpt lat="43.64729" lon="3.81277">
        <ele>64.199996948242</ele>
        <time>2021-05-18T07:26:22Z</time>
      </trkpt>
      <trkpt lat="43.64733" lon="3.8128">
        <ele>64.199996948242</ele>
        <time>2021-05-18T07:26:23Z</time>
      </trkpt>
      <trkpt lat="43.64738" lon="3.81281">
        <ele>64.199996948242</ele>
        <time>2021-05-18T07:26:24Z</time>
      </trkpt>
      <trkpt lat="43.64742" lon="3.81283">
        <ele>64.199996948242</ele>
        <time>2021-05-18T07:26:25Z</time>
      </trkpt>
      <trkpt lat="43.64812" lon="3.81296">
        <ele>64.599998474121</ele>
        <time>2021-05-18T07:26:40Z</time>
      </trkpt>
      <trkpt lat="43.64867" lon="3.81312">
        <ele>66.599998474121</ele>
        <time>2021-05-18T07:26:54Z</time>
      </trkpt>
      <trkpt lat="43.64894" lon="3.8131">
        <ele>68.599998474121</ele>
        <time>2021-05-18T07:27:01Z</time>
      </trkpt>
      <trkpt lat="43.6491" lon="3.81315">
        <ele>69.599998474121</ele>
        <time>2021-05-18T07:27:05Z</time>
      </trkpt>
      <trkpt lat="43.64914" lon="3.81318">
        <ele>69.599998474121</ele>
        <time>2021-05-18T07:27:06Z</time>
      </trkpt>
      <trkpt lat="43.64961" lon="3.81373">
        <ele>70.599998474121</ele>
        <time>2021-05-18T07:27:20Z</time>
      </trkpt>
      <trkpt lat="43.64963" lon="3.81378">
        <ele>70.599998474121</ele>
        <time>2021-05-18T07:27:21Z</time>
      </trkpt>
      <trkpt lat="43.64965" lon="3.81384">
        <ele>70.599998474121</ele>
        <time>2021-05-18T07:27:22Z</time>
      </trkpt>
      <trkpt lat="43.64968" lon="3.81394">
        <ele>70.599998474121</ele>
        <time>2021-05-18T07:27:24Z</time>
      </trkpt>
      <trkpt lat="43.64998" lon="3.81467">
        <ele>70.800003051758</ele>
        <time>2021-05-18T07:27:42Z</time>
      </trkpt>
      <trkpt lat="43.64998" lon="3.81478">
        <ele>71</ele>
        <time>2021-05-18T07:27:44Z</time>
      </trkpt>
      <trkpt lat="43.64997" lon="3.81483">
        <ele>71</ele>
        <time>2021-05-18T07:27:45Z</time>
      </trkpt>
      <trkpt lat="43.64996" lon="3.81488">
        <ele>71</ele>
        <time>2021-05-18T07:27:46Z</time>
      </trkpt>
      <trkpt lat="43.64966" lon="3.81583">
        <ele>71.400001525879</ele>
        <time>2021-05-18T07:28:01Z</time>
      </trkpt>
      <trkpt lat="43.64921" lon="3.81685">
        <ele>69.400001525879</ele>
        <time>2021-05-18T07:28:18Z</time>
      </trkpt>
      <trkpt lat="43.64893" lon="3.81734">
        <ele>69.800003051758</ele>
        <time>2021-05-18T07:28:28Z</time>
      </trkpt>
      <trkpt lat="43.6489" lon="3.81738">
        <ele>69.800003051758</ele>
        <time>2021-05-18T07:28:29Z</time>
      </trkpt>
      <trkpt lat="43.64869" lon="3.81759">
        <ele>70</ele>
        <time>2021-05-18T07:28:35Z</time>
      </trkpt>
      <trkpt lat="43.64866" lon="3.81764">
        <ele>70</ele>
        <time>2021-05-18T07:28:36Z</time>
      </trkpt>
      <trkpt lat="43.64859" lon="3.81777">
        <ele>70.400001525879</ele>
        <time>2021-05-18T07:28:39Z</time>
      </trkpt>
      <trkpt lat="43.64848" lon="3.81796">
        <ele>70.599998474121</ele>
        <time>2021-05-18T07:28:43Z</time>
      </trkpt>
      <trkpt lat="43.64813" lon="3.8184">
        <ele>71.599998474121</ele>
        <time>2021-05-18T07:28:56Z</time>
      </trkpt>
      <trkpt lat="43.64814" lon="3.81843">
        <ele>71.599998474121</ele>
        <time>2021-05-18T07:28:57Z</time>
      </trkpt>
      <trkpt lat="43.64815" lon="3.81846">
        <ele>71.800003051758</ele>
        <time>2021-05-18T07:28:58Z</time>
      </trkpt>
      <trkpt lat="43.64817" lon="3.81848">
        <ele>72</ele>
        <time>2021-05-18T07:28:59Z</time>
      </trkpt>
      <trkpt lat="43.6482" lon="3.81851">
        <ele>72</ele>
        <time>2021-05-18T07:29:00Z</time>
      </trkpt>
      <trkpt lat="43.64846" lon="3.81905">
        <ele>75.199996948242</ele>
        <time>2021-05-18T07:29:15Z</time>
      </trkpt>
      <trkpt lat="43.64866" lon="3.81943">
        <ele>77.199996948242</ele>
        <time>2021-05-18T07:29:25Z</time>
      </trkpt>
      <trkpt lat="43.64914" lon="3.81989">
        <ele>78.199996948242</ele>
        <time>2021-05-18T07:29:41Z</time>
      </trkpt>
      <trkpt lat="43.64949" lon="3.82069">
        <ele>80</ele>
        <time>2021-05-18T07:29:59Z</time>
      </trkpt>
      <trkpt lat="43.64981" lon="3.82128">
        <ele>83.199996948242</ele>
        <time>2021-05-18T07:30:15Z</time>
      </trkpt>
      <trkpt lat="43.64991" lon="3.82137">
        <ele>84.400001525879</ele>
        <time>2021-05-18T07:30:20Z</time>
      </trkpt>
      <trkpt lat="43.6499" lon="3.82141">
        <ele>84.800003051758</ele>
        <time>2021-05-18T07:30:21Z</time>
      </trkpt>
      <trkpt lat="43.64989" lon="3.82145">
        <ele>84.800003051758</ele>
        <time>2021-05-18T07:30:22Z</time>
      </trkpt>
      <trkpt lat="43.64988" lon="3.82148">
        <ele>85</ele>
        <time>2021-05-18T07:30:23Z</time>
      </trkpt>
      <trkpt lat="43.64986" lon="3.82151">
        <ele>85.199996948242</ele>
        <time>2021-05-18T07:30:24Z</time>
      </trkpt>
      <trkpt lat="43.64983" lon="3.82155">
        <ele>85.400001525879</ele>
        <time>2021-05-18T07:30:25Z</time>
      </trkpt>
      <trkpt lat="43.64943" lon="3.82188">
        <ele>86.400001525879</ele>
        <time>2021-05-18T07:30:38Z</time>
      </trkpt>
      <trkpt lat="43.64859" lon="3.82245">
        <ele>86.199996948242</ele>
        <time>2021-05-18T07:31:01Z</time>
      </trkpt>
      <trkpt lat="43.64779" lon="3.82312">
        <ele>87.400001525879</ele>
        <time>2021-05-18T07:31:23Z</time>
      </trkpt>
      <trkpt lat="43.64701" lon="3.82329">
        <ele>90.400001525879</ele>
        <time>2021-05-18T07:31:42Z</time>
      </trkpt>
      <trkpt lat="43.64672" lon="3.82315">
        <ele>92.400001525879</ele>
        <time>2021-05-18T07:31:51Z</time>
      </trkpt>
      <trkpt lat="43.6464" lon="3.82326">
        <ele>95.599998474121</ele>
        <time>2021-05-18T07:32:01Z</time>
      </trkpt>
      <trkpt lat="43.64614" lon="3.82327">
        <ele>98.800003051758</ele>
        <time>2021-05-18T07:32:09Z</time>
      </trkpt>
      <trkpt lat="43.64582" lon="3.82324">
        <ele>101.40000152588</ele>
        <time>2021-05-18T07:32:22Z</time>
      </trkpt>
      <trkpt lat="43.6458" lon="3.82326">
        <ele>101.59999847412</ele>
        <time>2021-05-18T07:32:23Z</time>
      </trkpt>
      <trkpt lat="43.6458" lon="3.82328">
        <ele>101.80000305176</ele>
        <time>2021-05-18T07:32:24Z</time>
      </trkpt>
      <trkpt lat="43.6458" lon="3.82329">
        <ele>101.80000305176</ele>
        <time>2021-05-18T07:32:25Z</time>
      </trkpt>
      <trkpt lat="43.64581" lon="3.8233">
        <ele>102</ele>
        <time>2021-05-18T07:32:26Z</time>
      </trkpt>
      <trkpt lat="43.64581" lon="3.82331">
        <ele>102.40000152588</ele>
        <time>2021-05-18T07:32:31Z</time>
      </trkpt>
      <trkpt lat="43.64587" lon="3.82335">
        <ele>102.40000152588</ele>
        <time>2021-05-18T07:33:06Z</time>
      </trkpt>
      <trkpt lat="43.64626" lon="3.82367">
        <ele>101.40000152588</ele>
        <time>2021-05-18T07:33:18Z</time>
      </trkpt>
      <trkpt lat="43.64681" lon="3.82405">
        <ele>101.40000152588</ele>
        <time>2021-05-18T07:33:34Z</time>
      </trkpt>
      <trkpt lat="43.64752" lon="3.82434">
        <ele>102.40000152588</ele>
        <time>2021-05-18T07:33:53Z</time>
      </trkpt>
      <trkpt lat="43.64756" lon="3.82433">
        <ele>102.40000152588</ele>
        <time>2021-05-18T07:33:54Z</time>
      </trkpt>
      <trkpt lat="43.6476" lon="3.82433">
        <ele>102.59999847412</ele>
        <time>2021-05-18T07:33:55Z</time>
      </trkpt>
      <trkpt lat="43.64803" lon="3.82423">
        <ele>104.80000305176</ele>
        <time>2021-05-18T07:34:10Z</time>
      </trkpt>
      <trkpt lat="43.64845" lon="3.82417">
        <ele>107</ele>
        <time>2021-05-18T07:34:28Z</time>
      </trkpt>
      <trkpt lat="43.64881" lon="3.82428">
        <ele>108</ele>
        <time>2021-05-18T07:34:41Z</time>
      </trkpt>
      <trkpt lat="43.64906" lon="3.82462">
        <ele>110.40000152588</ele>
        <time>2021-05-18T07:34:55Z</time>
      </trkpt>
      <trkpt lat="43.64932" lon="3.82454">
        <ele>111</ele>
        <time>2021-05-18T07:35:08Z</time>
      </trkpt>
      <trkpt lat="43.64962" lon="3.82445">
        <ele>111.40000152588</ele>
        <time>2021-05-18T07:35:20Z</time>
      </trkpt>
      <trkpt lat="43.64986" lon="3.82457">
        <ele>114</ele>
        <time>2021-05-18T07:35:34Z</time>
      </trkpt>
      <trkpt lat="43.65006" lon="3.82483">
        <ele>116.19999694824</ele>
        <time>2021-05-18T07:35:48Z</time>
      </trkpt>
      <trkpt lat="43.65027" lon="3.82509">
        <ele>117.80000305176</ele>
        <time>2021-05-18T07:36:03Z</time>
      </trkpt>
      <trkpt lat="43.65058" lon="3.82534">
        <ele>119</ele>
        <time>2021-05-18T07:36:18Z</time>
      </trkpt>
      <trkpt lat="43.65101" lon="3.82567">
        <ele>120</ele>
        <time>2021-05-18T07:36:37Z</time>
      </trkpt>
      <trkpt lat="43.65103" lon="3.82573">
        <ele>120.19999694824</ele>
        <time>2021-05-18T07:36:40Z</time>
      </trkpt>
      <trkpt lat="43.65105" lon="3.82574">
        <ele>120.40000152588</ele>
        <time>2021-05-18T07:36:41Z</time>
      </trkpt>
      <trkpt lat="43.6514" lon="3.82602">
        <ele>120.19999694824</ele>
        <time>2021-05-18T07:36:50Z</time>
      </trkpt>
      <trkpt lat="43.65143" lon="3.82605">
        <ele>120.19999694824</ele>
        <time>2021-05-18T07:36:51Z</time>
      </trkpt>
      <trkpt lat="43.65173" lon="3.82624">
        <ele>121.19999694824</ele>
        <time>2021-05-18T07:37:02Z</time>
      </trkpt>
      <trkpt lat="43.65204" lon="3.82654">
        <ele>122.59999847412</ele>
        <time>2021-05-18T07:37:14Z</time>
      </trkpt>
      <trkpt lat="43.65236" lon="3.82671">
        <ele>124</ele>
        <time>2021-05-18T07:37:27Z</time>
      </trkpt>
      <trkpt lat="43.6524" lon="3.82671">
        <ele>124.19999694824</ele>
        <time>2021-05-18T07:37:30Z</time>
      </trkpt>
      <trkpt lat="43.65241" lon="3.8267">
        <ele>124.40000152588</ele>
        <time>2021-05-18T07:37:31Z</time>
      </trkpt>
      <trkpt lat="43.65241" lon="3.82668">
        <ele>124.59999847412</ele>
        <time>2021-05-18T07:37:32Z</time>
      </trkpt>
      <trkpt lat="43.65239" lon="3.82665">
        <ele>124.59999847412</ele>
        <time>2021-05-18T07:37:33Z</time>
      </trkpt>
      <trkpt lat="43.65237" lon="3.82663">
        <ele>124.59999847412</ele>
        <time>2021-05-18T07:37:34Z</time>
      </trkpt>
      <trkpt lat="43.65233" lon="3.82663">
        <ele>124.59999847412</ele>
        <time>2021-05-18T07:37:35Z</time>
      </trkpt>
      <trkpt lat="43.65229" lon="3.82664">
        <ele>124.59999847412</ele>
        <time>2021-05-18T07:37:36Z</time>
      </trkpt>
      <trkpt lat="43.65225" lon="3.82665">
        <ele>124.59999847412</ele>
        <time>2021-05-18T07:37:37Z</time>
      </trkpt>
      <trkpt lat="43.65189" lon="3.8264">
        <ele>123.19999694824</ele>
        <time>2021-05-18T07:37:47Z</time>
      </trkpt>
      <trkpt lat="43.65136" lon="3.82598">
        <ele>121.40000152588</ele>
        <time>2021-05-18T07:38:02Z</time>
      </trkpt>
      <trkpt lat="43.65115" lon="3.82578">
        <ele>120.80000305176</ele>
        <time>2021-05-18T07:38:13Z</time>
      </trkpt>
      <trkpt lat="43.65115" lon="3.82578">
        <ele>120.80000305176</ele>
        <time>2021-05-18T07:38:15Z</time>
      </trkpt>
      <trkpt lat="43.65108" lon="3.82573">
        <ele>121</ele>
        <time>2021-05-18T07:40:13Z</time>
      </trkpt>
      <trkpt lat="43.65105" lon="3.82572">
        <ele>121</ele>
        <time>2021-05-18T07:40:14Z</time>
      </trkpt>
      <trkpt lat="43.65101" lon="3.82571">
        <ele>121</ele>
        <time>2021-05-18T07:40:15Z</time>
      </trkpt>
      <trkpt lat="43.65097" lon="3.82572">
        <ele>121</ele>
        <time>2021-05-18T07:40:16Z</time>
      </trkpt>
      <trkpt lat="43.65092" lon="3.82574">
        <ele>121</ele>
        <time>2021-05-18T07:40:17Z</time>
      </trkpt>
      <trkpt lat="43.65086" lon="3.82577">
        <ele>120.80000305176</ele>
        <time>2021-05-18T07:40:18Z</time>
      </trkpt>
      <trkpt lat="43.6508" lon="3.82578">
        <ele>120.80000305176</ele>
        <time>2021-05-18T07:40:19Z</time>
      </trkpt>
      <trkpt lat="43.65074" lon="3.82579">
        <ele>120.59999847412</ele>
        <time>2021-05-18T07:40:20Z</time>
      </trkpt>
      <trkpt lat="43.64987" lon="3.82593">
        <ele>117.19999694824</ele>
        <time>2021-05-18T07:40:35Z</time>
      </trkpt>
      <trkpt lat="43.64963" lon="3.826">
        <ele>116.40000152588</ele>
        <time>2021-05-18T07:40:45Z</time>
      </trkpt>
      <trkpt lat="43.64963" lon="3.826">
        <ele>116.19999694824</ele>
        <time>2021-05-18T07:40:49Z</time>
      </trkpt>
      <trkpt lat="43.64974" lon="3.82598">
        <ele>116</ele>
        <time>2021-05-18T07:41:34Z</time>
      </trkpt>
      <trkpt lat="43.64978" lon="3.82596">
        <ele>116</ele>
        <time>2021-05-18T07:41:35Z</time>
      </trkpt>
      <trkpt lat="43.6498" lon="3.82592">
        <ele>116</ele>
        <time>2021-05-18T07:41:36Z</time>
      </trkpt>
      <trkpt lat="43.64982" lon="3.82587">
        <ele>116</ele>
        <time>2021-05-18T07:41:37Z</time>
      </trkpt>
      <trkpt lat="43.64984" lon="3.82582">
        <ele>116</ele>
        <time>2021-05-18T07:41:38Z</time>
      </trkpt>
      <trkpt lat="43.65007" lon="3.82534">
        <ele>116.40000152588</ele>
        <time>2021-05-18T07:41:47Z</time>
      </trkpt>
      <trkpt lat="43.65038" lon="3.82465">
        <ele>118.80000305176</ele>
        <time>2021-05-18T07:42:03Z</time>
      </trkpt>
      <trkpt lat="43.65064" lon="3.82407">
        <ele>120.59999847412</ele>
        <time>2021-05-18T07:42:18Z</time>
      </trkpt>
      <trkpt lat="43.65065" lon="3.82405">
        <ele>121.19999694824</ele>
        <time>2021-05-18T07:42:24Z</time>
      </trkpt>
      <trkpt lat="43.65067" lon="3.82395">
        <ele>121.59999847412</ele>
        <time>2021-05-18T07:43:31Z</time>
      </trkpt>
      <trkpt lat="43.65073" lon="3.8237">
        <ele>121.19999694824</ele>
        <time>2021-05-18T07:43:36Z</time>
      </trkpt>
      <trkpt lat="43.65076" lon="3.82365">
        <ele>121.19999694824</ele>
        <time>2021-05-18T07:43:37Z</time>
      </trkpt>
      <trkpt lat="43.65079" lon="3.82361">
        <ele>121</ele>
        <time>2021-05-18T07:43:38Z</time>
      </trkpt>
      <trkpt lat="43.65083" lon="3.82358">
        <ele>120.80000305176</ele>
        <time>2021-05-18T07:43:39Z</time>
      </trkpt>
      <trkpt lat="43.65087" lon="3.82355">
        <ele>120.59999847412</ele>
        <time>2021-05-18T07:43:40Z</time>
      </trkpt>
      <trkpt lat="43.65091" lon="3.82354">
        <ele>120.40000152588</ele>
        <time>2021-05-18T07:43:41Z</time>
      </trkpt>
      <trkpt lat="43.65096" lon="3.82353">
        <ele>120.40000152588</ele>
        <time>2021-05-18T07:43:42Z</time>
      </trkpt>
      <trkpt lat="43.651" lon="3.82354">
        <ele>120.40000152588</ele>
        <time>2021-05-18T07:43:43Z</time>
      </trkpt>
      <trkpt lat="43.65104" lon="3.82355">
        <ele>120.19999694824</ele>
        <time>2021-05-18T07:43:44Z</time>
      </trkpt>
      <trkpt lat="43.65107" lon="3.82356">
        <ele>120.19999694824</ele>
        <time>2021-05-18T07:43:45Z</time>
      </trkpt>
      <trkpt lat="43.65131" lon="3.82373">
        <ele>121.59999847412</ele>
        <time>2021-05-18T07:43:52Z</time>
      </trkpt>
      <trkpt lat="43.65134" lon="3.82377">
        <ele>121.80000305176</ele>
        <time>2021-05-18T07:43:53Z</time>
      </trkpt>
      <trkpt lat="43.65137" lon="3.82382">
        <ele>121.80000305176</ele>
        <time>2021-05-18T07:43:54Z</time>
      </trkpt>
      <trkpt lat="43.65139" lon="3.82386">
        <ele>122</ele>
        <time>2021-05-18T07:43:55Z</time>
      </trkpt>
      <trkpt lat="43.65141" lon="3.82391">
        <ele>122</ele>
        <time>2021-05-18T07:43:56Z</time>
      </trkpt>
      <trkpt lat="43.65157" lon="3.82431">
        <ele>122.59999847412</ele>
        <time>2021-05-18T07:44:05Z</time>
      </trkpt>
      <trkpt lat="43.65158" lon="3.82436">
        <ele>122.59999847412</ele>
        <time>2021-05-18T07:44:06Z</time>
      </trkpt>
      <trkpt lat="43.6516" lon="3.82456">
        <ele>122.19999694824</ele>
        <time>2021-05-18T07:44:09Z</time>
      </trkpt>
      <trkpt lat="43.6516" lon="3.82462">
        <ele>122</ele>
        <time>2021-05-18T07:44:10Z</time>
      </trkpt>
      <trkpt lat="43.65159" lon="3.82468">
        <ele>121.80000305176</ele>
        <time>2021-05-18T07:44:11Z</time>
      </trkpt>
      <trkpt lat="43.65158" lon="3.82474">
        <ele>121.59999847412</ele>
        <time>2021-05-18T07:44:12Z</time>
      </trkpt>
      <trkpt lat="43.65156" lon="3.82478">
        <ele>121.19999694824</ele>
        <time>2021-05-18T07:44:13Z</time>
      </trkpt>
      <trkpt lat="43.65155" lon="3.82483">
        <ele>121</ele>
        <time>2021-05-18T07:44:14Z</time>
      </trkpt>
      <trkpt lat="43.65156" lon="3.82487">
        <ele>120.80000305176</ele>
        <time>2021-05-18T07:44:15Z</time>
      </trkpt>
      <trkpt lat="43.65157" lon="3.82492">
        <ele>120.80000305176</ele>
        <time>2021-05-18T07:44:16Z</time>
      </trkpt>
      <trkpt lat="43.65159" lon="3.82496">
        <ele>120.59999847412</ele>
        <time>2021-05-18T07:44:17Z</time>
      </trkpt>
      <trkpt lat="43.6516" lon="3.82502">
        <ele>120.59999847412</ele>
        <time>2021-05-18T07:44:18Z</time>
      </trkpt>
      <trkpt lat="43.65161" lon="3.82508">
        <ele>120.40000152588</ele>
        <time>2021-05-18T07:44:19Z</time>
      </trkpt>
      <trkpt lat="43.65162" lon="3.82513">
        <ele>120.19999694824</ele>
        <time>2021-05-18T07:44:20Z</time>
      </trkpt>
      <trkpt lat="43.65164" lon="3.82518">
        <ele>120.19999694824</ele>
        <time>2021-05-18T07:44:21Z</time>
      </trkpt>
      <trkpt lat="43.65167" lon="3.82522">
        <ele>120.19999694824</ele>
        <time>2021-05-18T07:44:22Z</time>
      </trkpt>
      <trkpt lat="43.6517" lon="3.82526">
        <ele>120</ele>
        <time>2021-05-18T07:44:23Z</time>
      </trkpt>
      <trkpt lat="43.65174" lon="3.8253">
        <ele>119.80000305176</ele>
        <time>2021-05-18T07:44:24Z</time>
      </trkpt>
      <trkpt lat="43.65176" lon="3.82534">
        <ele>119.59999847412</ele>
        <time>2021-05-18T07:44:25Z</time>
      </trkpt>
      <trkpt lat="43.65212" lon="3.8259">
        <ele>119.19999694824</ele>
        <time>2021-05-18T07:44:40Z</time>
      </trkpt>
      <trkpt lat="43.65241" lon="3.82616">
        <ele>120.19999694824</ele>
        <time>2021-05-18T07:44:51Z</time>
      </trkpt>
      <trkpt lat="43.65264" lon="3.82643">
        <ele>123.40000152588</ele>
        <time>2021-05-18T07:45:06Z</time>
      </trkpt>
      <trkpt lat="43.65285" lon="3.82666">
        <ele>124.80000305176</ele>
        <time>2021-05-18T07:45:17Z</time>
      </trkpt>
      <trkpt lat="43.65322" lon="3.827">
        <ele>125.19999694824</ele>
        <time>2021-05-18T07:45:31Z</time>
      </trkpt>
      <trkpt lat="43.65325" lon="3.82714">
        <ele>126</ele>
        <time>2021-05-18T07:45:37Z</time>
      </trkpt>
      <trkpt lat="43.65341" lon="3.82711">
        <ele>126.40000152588</ele>
        <time>2021-05-18T07:45:46Z</time>
      </trkpt>
      <trkpt lat="43.65354" lon="3.82714">
        <ele>126.40000152588</ele>
        <time>2021-05-18T07:45:52Z</time>
      </trkpt>
      <trkpt lat="43.65387" lon="3.8273">
        <ele>126.19999694824</ele>
        <time>2021-05-18T07:46:03Z</time>
      </trkpt>
      <trkpt lat="43.65425" lon="3.82762">
        <ele>127.19999694824</ele>
        <time>2021-05-18T07:46:18Z</time>
      </trkpt>
      <trkpt lat="43.65431" lon="3.82769">
        <ele>127.40000152588</ele>
        <time>2021-05-18T07:46:21Z</time>
      </trkpt>
      <trkpt lat="43.6546" lon="3.82774">
        <ele>127.80000305176</ele>
        <time>2021-05-18T07:46:31Z</time>
      </trkpt>
      <trkpt lat="43.6547" lon="3.82789">
        <ele>127.59999847412</ele>
        <time>2021-05-18T07:46:37Z</time>
      </trkpt>
      <trkpt lat="43.6548" lon="3.82799">
        <ele>127.19999694824</ele>
        <time>2021-05-18T07:46:42Z</time>
      </trkpt>
      <trkpt lat="43.65483" lon="3.82805">
        <ele>127</ele>
        <time>2021-05-18T07:46:44Z</time>
      </trkpt>
      <trkpt lat="43.65499" lon="3.82832">
        <ele>125.59999847412</ele>
        <time>2021-05-18T07:46:56Z</time>
      </trkpt>
      <trkpt lat="43.65503" lon="3.82842">
        <ele>126.40000152588</ele>
        <time>2021-05-18T07:47:05Z</time>
      </trkpt>
      <trkpt lat="43.65511" lon="3.8284">
        <ele>126.40000152588</ele>
        <time>2021-05-18T07:47:15Z</time>
      </trkpt>
      <trkpt lat="43.65526" lon="3.82833">
        <ele>124.19999694824</ele>
        <time>2021-05-18T07:47:26Z</time>
      </trkpt>
      <trkpt lat="43.65541" lon="3.8283">
        <ele>121</ele>
        <time>2021-05-18T07:47:36Z</time>
      </trkpt>
      <trkpt lat="43.65544" lon="3.82833">
        <ele>119</ele>
        <time>2021-05-18T07:47:46Z</time>
      </trkpt>
      <trkpt lat="43.65545" lon="3.8283">
        <ele>118.19999694824</ele>
        <time>2021-05-18T07:47:53Z</time>
      </trkpt>
      <trkpt lat="43.65543" lon="3.82821">
        <ele>117.80000305176</ele>
        <time>2021-05-18T07:49:19Z</time>
      </trkpt>
      <trkpt lat="43.65543" lon="3.82819">
        <ele>117.80000305176</ele>
        <time>2021-05-18T07:49:20Z</time>
      </trkpt>
      <trkpt lat="43.65544" lon="3.82817">
        <ele>117.80000305176</ele>
        <time>2021-05-18T07:49:21Z</time>
      </trkpt>
      <trkpt lat="43.65544" lon="3.82815">
        <ele>117.59999847412</ele>
        <time>2021-05-18T07:49:22Z</time>
      </trkpt>
      <trkpt lat="43.65545" lon="3.82813">
        <ele>117.40000152588</ele>
        <time>2021-05-18T07:49:23Z</time>
      </trkpt>
      <trkpt lat="43.65545" lon="3.82811">
        <ele>117.19999694824</ele>
        <time>2021-05-18T07:49:24Z</time>
      </trkpt>
      <trkpt lat="43.65546" lon="3.82809">
        <ele>117</ele>
        <time>2021-05-18T07:49:25Z</time>
      </trkpt>
      <trkpt lat="43.65545" lon="3.82807">
        <ele>117</ele>
        <time>2021-05-18T07:49:26Z</time>
      </trkpt>
      <trkpt lat="43.65548" lon="3.82787">
        <ele>115</ele>
        <time>2021-05-18T07:49:34Z</time>
      </trkpt>
      <trkpt lat="43.65546" lon="3.82785">
        <ele>114.59999847412</ele>
        <time>2021-05-18T07:49:35Z</time>
      </trkpt>
      <trkpt lat="43.65527" lon="3.8276">
        <ele>113.59999847412</ele>
        <time>2021-05-18T07:49:46Z</time>
      </trkpt>
      <trkpt lat="43.65519" lon="3.82737">
        <ele>113.80000305176</ele>
        <time>2021-05-18T07:49:57Z</time>
      </trkpt>
      <trkpt lat="43.65509" lon="3.8271">
        <ele>112.40000152588</ele>
        <time>2021-05-18T07:50:07Z</time>
      </trkpt>
      <trkpt lat="43.65499" lon="3.82692">
        <ele>111.59999847412</ele>
        <time>2021-05-18T07:50:12Z</time>
      </trkpt>
      <trkpt lat="43.65496" lon="3.82689">
        <ele>111.40000152588</ele>
        <time>2021-05-18T07:50:13Z</time>
      </trkpt>
      <trkpt lat="43.65494" lon="3.82687">
        <ele>111.19999694824</ele>
        <time>2021-05-18T07:50:14Z</time>
      </trkpt>
      <trkpt lat="43.65461" lon="3.82662">
        <ele>109.59999847412</ele>
        <time>2021-05-18T07:50:26Z</time>
      </trkpt>
      <trkpt lat="43.65459" lon="3.82658">
        <ele>109.40000152588</ele>
        <time>2021-05-18T07:50:27Z</time>
      </trkpt>
      <trkpt lat="43.65457" lon="3.82654">
        <ele>109.19999694824</ele>
        <time>2021-05-18T07:50:28Z</time>
      </trkpt>
      <trkpt lat="43.65454" lon="3.8265">
        <ele>109</ele>
        <time>2021-05-18T07:50:29Z</time>
      </trkpt>
      <trkpt lat="43.65451" lon="3.82646">
        <ele>108.80000305176</ele>
        <time>2021-05-18T07:50:30Z</time>
      </trkpt>
      <trkpt lat="43.6542" lon="3.82617">
        <ele>107</ele>
        <time>2021-05-18T07:50:38Z</time>
      </trkpt>
      <trkpt lat="43.65415" lon="3.82615">
        <ele>106.59999847412</ele>
        <time>2021-05-18T07:50:39Z</time>
      </trkpt>
      <trkpt lat="43.6541" lon="3.82613">
        <ele>106.40000152588</ele>
        <time>2021-05-18T07:50:40Z</time>
      </trkpt>
      <trkpt lat="43.65377" lon="3.82602">
        <ele>105.59999847412</ele>
        <time>2021-05-18T07:50:47Z</time>
      </trkpt>
      <trkpt lat="43.65327" lon="3.82566">
        <ele>105.19999694824</ele>
        <time>2021-05-18T07:51:01Z</time>
      </trkpt>
      <trkpt lat="43.65322" lon="3.82531">
        <ele>105</ele>
        <time>2021-05-18T07:51:11Z</time>
      </trkpt>
      <trkpt lat="43.65322" lon="3.8253">
        <ele>105</ele>
        <time>2021-05-18T07:51:16Z</time>
      </trkpt>
      <trkpt lat="43.65323" lon="3.8252">
        <ele>104.59999847412</ele>
        <time>2021-05-18T07:51:47Z</time>
      </trkpt>
      <trkpt lat="43.65323" lon="3.82518">
        <ele>104.40000152588</ele>
        <time>2021-05-18T07:51:48Z</time>
      </trkpt>
      <trkpt lat="43.65326" lon="3.82483">
        <ele>101.19999694824</ele>
        <time>2021-05-18T07:51:58Z</time>
      </trkpt>
      <trkpt lat="43.65326" lon="3.82477">
        <ele>100.59999847412</ele>
        <time>2021-05-18T07:51:59Z</time>
      </trkpt>
      <trkpt lat="43.65326" lon="3.82454">
        <ele>97.400001525879</ele>
        <time>2021-05-18T07:52:04Z</time>
      </trkpt>
      <trkpt lat="43.65327" lon="3.82453">
        <ele>96.800003051758</ele>
        <time>2021-05-18T07:52:05Z</time>
      </trkpt>
      <trkpt lat="43.65328" lon="3.82452">
        <ele>96.199996948242</ele>
        <time>2021-05-18T07:52:06Z</time>
      </trkpt>
      <trkpt lat="43.6533" lon="3.82452">
        <ele>94.800003051758</ele>
        <time>2021-05-18T07:52:11Z</time>
      </trkpt>
      <trkpt lat="43.65334" lon="3.82451">
        <ele>94</ele>
        <time>2021-05-18T07:52:27Z</time>
      </trkpt>
      <trkpt lat="43.65336" lon="3.8245">
        <ele>94</ele>
        <time>2021-05-18T07:52:28Z</time>
      </trkpt>
      <trkpt lat="43.65338" lon="3.82448">
        <ele>94</ele>
        <time>2021-05-18T07:52:29Z</time>
      </trkpt>
      <trkpt lat="43.65338" lon="3.82446">
        <ele>94</ele>
        <time>2021-05-18T07:52:30Z</time>
      </trkpt>
      <trkpt lat="43.65338" lon="3.82445">
        <ele>93.599998474121</ele>
        <time>2021-05-18T07:52:35Z</time>
      </trkpt>
      <trkpt lat="43.6534" lon="3.82438">
        <ele>93.199996948242</ele>
        <time>2021-05-18T07:53:45Z</time>
      </trkpt>
      <trkpt lat="43.6534" lon="3.82435">
        <ele>93</ele>
        <time>2021-05-18T07:53:46Z</time>
      </trkpt>
      <trkpt lat="43.65347" lon="3.8235">
        <ele>91.599998474121</ele>
        <time>2021-05-18T07:54:01Z</time>
      </trkpt>
      <trkpt lat="43.65356" lon="3.82263">
        <ele>88.599998474121</ele>
        <time>2021-05-18T07:54:12Z</time>
      </trkpt>
      <trkpt lat="43.65357" lon="3.82256">
        <ele>88.199996948242</ele>
        <time>2021-05-18T07:54:13Z</time>
      </trkpt>
      <trkpt lat="43.65367" lon="3.82224">
        <ele>87.199996948242</ele>
        <time>2021-05-18T07:54:22Z</time>
      </trkpt>
      <trkpt lat="43.65393" lon="3.822">
        <ele>85.800003051758</ele>
        <time>2021-05-18T07:54:32Z</time>
      </trkpt>
      <trkpt lat="43.65395" lon="3.82193">
        <ele>85.400001525879</ele>
        <time>2021-05-18T07:54:33Z</time>
      </trkpt>
      <trkpt lat="43.65397" lon="3.82186">
        <ele>84.599998474121</ele>
        <time>2021-05-18T07:54:34Z</time>
      </trkpt>
      <trkpt lat="43.65398" lon="3.82178">
        <ele>84</ele>
        <time>2021-05-18T07:54:35Z</time>
      </trkpt>
      <trkpt lat="43.65399" lon="3.82171">
        <ele>83.599998474121</ele>
        <time>2021-05-18T07:54:36Z</time>
      </trkpt>
      <trkpt lat="43.65409" lon="3.82096">
        <ele>81.400001525879</ele>
        <time>2021-05-18T07:54:47Z</time>
      </trkpt>
      <trkpt lat="43.65407" lon="3.8209">
        <ele>81.400001525879</ele>
        <time>2021-05-18T07:54:48Z</time>
      </trkpt>
      <trkpt lat="43.65403" lon="3.82087">
        <ele>81.400001525879</ele>
        <time>2021-05-18T07:54:49Z</time>
      </trkpt>
      <trkpt lat="43.654" lon="3.82083">
        <ele>81.599998474121</ele>
        <time>2021-05-18T07:54:50Z</time>
      </trkpt>
      <trkpt lat="43.65398" lon="3.82079">
        <ele>81.599998474121</ele>
        <time>2021-05-18T07:54:51Z</time>
      </trkpt>
      <trkpt lat="43.65399" lon="3.82075">
        <ele>81.599998474121</ele>
        <time>2021-05-18T07:54:52Z</time>
      </trkpt>
      <trkpt lat="43.654" lon="3.82071">
        <ele>81.599998474121</ele>
        <time>2021-05-18T07:54:53Z</time>
      </trkpt>
      <trkpt lat="43.65401" lon="3.82067">
        <ele>81.800003051758</ele>
        <time>2021-05-18T07:54:54Z</time>
      </trkpt>
      <trkpt lat="43.65409" lon="3.8205">
        <ele>84.800003051758</ele>
        <time>2021-05-18T07:55:02Z</time>
      </trkpt>
      <trkpt lat="43.65409" lon="3.8205">
        <ele>85.800003051758</ele>
        <time>2021-05-18T07:55:06Z</time>
      </trkpt>
      <trkpt lat="43.65417" lon="3.82045">
        <ele>86.199996948242</ele>
        <time>2021-05-18T07:55:14Z</time>
      </trkpt>
      <trkpt lat="43.6542" lon="3.82041">
        <ele>86.199996948242</ele>
        <time>2021-05-18T07:55:15Z</time>
      </trkpt>
      <trkpt lat="43.65432" lon="3.82006">
        <ele>84.599998474121</ele>
        <time>2021-05-18T07:55:21Z</time>
      </trkpt>
      <trkpt lat="43.65432" lon="3.81968">
        <ele>82.800003051758</ele>
        <time>2021-05-18T07:55:26Z</time>
      </trkpt>
      <trkpt lat="43.6543" lon="3.8196">
        <ele>82.199996948242</ele>
        <time>2021-05-18T07:55:27Z</time>
      </trkpt>
      <trkpt lat="43.65428" lon="3.81953">
        <ele>82</ele>
        <time>2021-05-18T07:55:28Z</time>
      </trkpt>
      <trkpt lat="43.65413" lon="3.8191">
        <ele>80.800003051758</ele>
        <time>2021-05-18T07:55:34Z</time>
      </trkpt>
      <trkpt lat="43.65412" lon="3.81903">
        <ele>80.599998474121</ele>
        <time>2021-05-18T07:55:35Z</time>
      </trkpt>
      <trkpt lat="43.65411" lon="3.81896">
        <ele>80.400001525879</ele>
        <time>2021-05-18T07:55:36Z</time>
      </trkpt>
      <trkpt lat="43.65409" lon="3.81889">
        <ele>80.199996948242</ele>
        <time>2021-05-18T07:55:37Z</time>
      </trkpt>
      <trkpt lat="43.65408" lon="3.81883">
        <ele>80.199996948242</ele>
        <time>2021-05-18T07:55:38Z</time>
      </trkpt>
      <trkpt lat="43.65405" lon="3.81869">
        <ele>80.199996948242</ele>
        <time>2021-05-18T07:55:40Z</time>
      </trkpt>
      <trkpt lat="43.65405" lon="3.81862">
        <ele>80</ele>
        <time>2021-05-18T07:55:41Z</time>
      </trkpt>
      <trkpt lat="43.65404" lon="3.81856">
        <ele>80</ele>
        <time>2021-05-18T07:55:42Z</time>
      </trkpt>
      <trkpt lat="43.65406" lon="3.81851">
        <ele>79.800003051758</ele>
        <time>2021-05-18T07:55:43Z</time>
      </trkpt>
      <trkpt lat="43.65409" lon="3.81847">
        <ele>79.599998474121</ele>
        <time>2021-05-18T07:55:44Z</time>
      </trkpt>
      <trkpt lat="43.65414" lon="3.81844">
        <ele>79.199996948242</ele>
        <time>2021-05-18T07:55:45Z</time>
      </trkpt>
      <trkpt lat="43.65418" lon="3.81842">
        <ele>79.199996948242</ele>
        <time>2021-05-18T07:55:46Z</time>
      </trkpt>
      <trkpt lat="43.65423" lon="3.8184">
        <ele>79.199996948242</ele>
        <time>2021-05-18T07:55:47Z</time>
      </trkpt>
      <trkpt lat="43.65469" lon="3.81821">
        <ele>78.199996948242</ele>
        <time>2021-05-18T07:56:01Z</time>
      </trkpt>
      <trkpt lat="43.65512" lon="3.81786">
        <ele>79.199996948242</ele>
        <time>2021-05-18T07:56:21Z</time>
      </trkpt>
      <trkpt lat="43.6558" lon="3.81718">
        <ele>80</ele>
        <time>2021-05-18T07:56:47Z</time>
      </trkpt>
      <trkpt lat="43.65636" lon="3.81678">
        <ele>81.400001525879</ele>
        <time>2021-05-18T07:57:04Z</time>
      </trkpt>
      <trkpt lat="43.65679" lon="3.81664">
        <ele>84.199996948242</ele>
        <time>2021-05-18T07:57:18Z</time>
      </trkpt>
      <trkpt lat="43.65704" lon="3.81659">
        <ele>85.400001525879</ele>
        <time>2021-05-18T07:57:30Z</time>
      </trkpt>
      <trkpt lat="43.65715" lon="3.81646">
        <ele>86.400001525879</ele>
        <time>2021-05-18T07:57:41Z</time>
      </trkpt>
      <trkpt lat="43.65715" lon="3.81646">
        <ele>87</ele>
        <time>2021-05-18T07:57:42Z</time>
      </trkpt>
      <trkpt lat="43.6572" lon="3.8164">
        <ele>87</ele>
        <time>2021-05-18T07:57:47Z</time>
      </trkpt>
      <trkpt lat="43.65721" lon="3.81638">
        <ele>87</ele>
        <time>2021-05-18T07:57:48Z</time>
      </trkpt>
      <trkpt lat="43.65722" lon="3.81635">
        <ele>87</ele>
        <time>2021-05-18T07:57:49Z</time>
      </trkpt>
      <trkpt lat="43.65756" lon="3.81607">
        <ele>87.400001525879</ele>
        <time>2021-05-18T07:58:03Z</time>
      </trkpt>
      <trkpt lat="43.65764" lon="3.81602">
        <ele>87.400001525879</ele>
        <time>2021-05-18T07:58:05Z</time>
      </trkpt>
      <trkpt lat="43.65768" lon="3.81598">
        <ele>87.199996948242</ele>
        <time>2021-05-18T07:58:06Z</time>
      </trkpt>
      <trkpt lat="43.65771" lon="3.81595">
        <ele>87.199996948242</ele>
        <time>2021-05-18T07:58:07Z</time>
      </trkpt>
      <trkpt lat="43.6583" lon="3.81532">
        <ele>86.400001525879</ele>
        <time>2021-05-18T07:58:22Z</time>
      </trkpt>
      <trkpt lat="43.65892" lon="3.81467">
        <ele>85.800003051758</ele>
        <time>2021-05-18T07:58:38Z</time>
      </trkpt>
      <trkpt lat="43.65948" lon="3.81418">
        <ele>84.400001525879</ele>
        <time>2021-05-18T07:58:53Z</time>
      </trkpt>
      <trkpt lat="43.65952" lon="3.81416">
        <ele>84.199996948242</ele>
        <time>2021-05-18T07:58:54Z</time>
      </trkpt>
      <trkpt lat="43.66029" lon="3.81384">
        <ele>84.800003051758</ele>
        <time>2021-05-18T07:59:11Z</time>
      </trkpt>
      <trkpt lat="43.66097" lon="3.81355">
        <ele>87</ele>
        <time>2021-05-18T07:59:29Z</time>
      </trkpt>
      <trkpt lat="43.66167" lon="3.81312">
        <ele>89.199996948242</ele>
        <time>2021-05-18T07:59:49Z</time>
      </trkpt>
      <trkpt lat="43.66208" lon="3.81288">
        <ele>91.800003051758</ele>
        <time>2021-05-18T08:00:04Z</time>
      </trkpt>
      <trkpt lat="43.66245" lon="3.81274">
        <ele>94.800003051758</ele>
        <time>2021-05-18T08:00:16Z</time>
      </trkpt>
      <trkpt lat="43.66258" lon="3.81271">
        <ele>96.400001525879</ele>
        <time>2021-05-18T08:00:20Z</time>
      </trkpt>
      <trkpt lat="43.66292" lon="3.81252">
        <ele>99.599998474121</ele>
        <time>2021-05-18T08:00:30Z</time>
      </trkpt>
      <trkpt lat="43.66322" lon="3.81243">
        <ele>102.80000305176</ele>
        <time>2021-05-18T08:00:40Z</time>
      </trkpt>
      <trkpt lat="43.66341" lon="3.81242">
        <ele>106.19999694824</ele>
        <time>2021-05-18T08:00:48Z</time>
      </trkpt>
      <trkpt lat="43.66358" lon="3.81242">
        <ele>109.19999694824</ele>
        <time>2021-05-18T08:00:55Z</time>
      </trkpt>
      <trkpt lat="43.66387" lon="3.81245">
        <ele>112.19999694824</ele>
        <time>2021-05-18T08:01:04Z</time>
      </trkpt>
      <trkpt lat="43.66428" lon="3.81243">
        <ele>115.80000305176</ele>
        <time>2021-05-18T08:01:17Z</time>
      </trkpt>
      <trkpt lat="43.66431" lon="3.81243">
        <ele>116.19999694824</ele>
        <time>2021-05-18T08:01:18Z</time>
      </trkpt>
      <trkpt lat="43.66462" lon="3.81245">
        <ele>119.80000305176</ele>
        <time>2021-05-18T08:01:29Z</time>
      </trkpt>
      <trkpt lat="43.66492" lon="3.81245">
        <ele>122.80000305176</ele>
        <time>2021-05-18T08:01:40Z</time>
      </trkpt>
      <trkpt lat="43.66514" lon="3.81246">
        <ele>126</ele>
        <time>2021-05-18T08:01:48Z</time>
      </trkpt>
      <trkpt lat="43.66537" lon="3.81245">
        <ele>129.39999389648</ele>
        <time>2021-05-18T08:01:56Z</time>
      </trkpt>
      <trkpt lat="43.6656" lon="3.81243">
        <ele>132.80000305176</ele>
        <time>2021-05-18T08:02:04Z</time>
      </trkpt>
      <trkpt lat="43.6658" lon="3.81244">
        <ele>136</ele>
        <time>2021-05-18T08:02:12Z</time>
      </trkpt>
      <trkpt lat="43.66599" lon="3.81246">
        <ele>139.19999694824</ele>
        <time>2021-05-18T08:02:20Z</time>
      </trkpt>
      <trkpt lat="43.66602" lon="3.81246">
        <ele>141.80000305176</ele>
        <time>2021-05-18T08:02:28Z</time>
      </trkpt>
      <trkpt lat="43.66607" lon="3.81239">
        <ele>142.19999694824</ele>
        <time>2021-05-18T08:08:39Z</time>
      </trkpt>
      <trkpt lat="43.66646" lon="3.81228">
        <ele>143</ele>
        <time>2021-05-18T08:08:52Z</time>
      </trkpt>
      <trkpt lat="43.6668" lon="3.81219">
        <ele>143.60000610352</ele>
        <time>2021-05-18T08:09:04Z</time>
      </trkpt>
      <trkpt lat="43.66707" lon="3.81233">
        <ele>143.60000610352</ele>
        <time>2021-05-18T08:09:18Z</time>
      </trkpt>
      <trkpt lat="43.66706" lon="3.81237">
        <ele>143.39999389648</ele>
        <time>2021-05-18T08:09:19Z</time>
      </trkpt>
      <trkpt lat="43.66704" lon="3.8124">
        <ele>143.19999694824</ele>
        <time>2021-05-18T08:09:20Z</time>
      </trkpt>
      <trkpt lat="43.66702" lon="3.81244">
        <ele>143</ele>
        <time>2021-05-18T08:09:21Z</time>
      </trkpt>
      <trkpt lat="43.667" lon="3.81247">
        <ele>143</ele>
        <time>2021-05-18T08:09:22Z</time>
      </trkpt>
      <trkpt lat="43.66666" lon="3.813">
        <ele>141.80000305176</ele>
        <time>2021-05-18T08:09:35Z</time>
      </trkpt>
      <trkpt lat="43.66637" lon="3.81329">
        <ele>141</ele>
        <time>2021-05-18T08:09:44Z</time>
      </trkpt>
      <trkpt lat="43.66634" lon="3.81334">
        <ele>140.80000305176</ele>
        <time>2021-05-18T08:09:45Z</time>
      </trkpt>
      <trkpt lat="43.66632" lon="3.8134">
        <ele>140.60000610352</ele>
        <time>2021-05-18T08:09:46Z</time>
      </trkpt>
      <trkpt lat="43.66613" lon="3.81385">
        <ele>139.80000305176</ele>
        <time>2021-05-18T08:09:55Z</time>
      </trkpt>
      <trkpt lat="43.66573" lon="3.81458">
        <ele>140.60000610352</ele>
        <time>2021-05-18T08:10:11Z</time>
      </trkpt>
      <trkpt lat="43.66547" lon="3.81489">
        <ele>143.60000610352</ele>
        <time>2021-05-18T08:10:24Z</time>
      </trkpt>
      <trkpt lat="43.66514" lon="3.81509">
        <ele>146.80000305176</ele>
        <time>2021-05-18T08:10:38Z</time>
      </trkpt>
      <trkpt lat="43.66501" lon="3.81568">
        <ele>148.80000305176</ele>
        <time>2021-05-18T08:10:53Z</time>
      </trkpt>
      <trkpt lat="43.66485" lon="3.8163">
        <ele>149.39999389648</ele>
        <time>2021-05-18T08:11:08Z</time>
      </trkpt>
      <trkpt lat="43.66468" lon="3.81654">
        <ele>149.19999694824</ele>
        <time>2021-05-18T08:11:14Z</time>
      </trkpt>
      <trkpt lat="43.66466" lon="3.81659">
        <ele>149.19999694824</ele>
        <time>2021-05-18T08:11:15Z</time>
      </trkpt>
      <trkpt lat="43.66464" lon="3.81665">
        <ele>149.19999694824</ele>
        <time>2021-05-18T08:11:16Z</time>
      </trkpt>
      <trkpt lat="43.66464" lon="3.81719">
        <ele>149</ele>
        <time>2021-05-18T08:11:27Z</time>
      </trkpt>
      <trkpt lat="43.66466" lon="3.81724">
        <ele>149</ele>
        <time>2021-05-18T08:11:28Z</time>
      </trkpt>
      <trkpt lat="43.66468" lon="3.81729">
        <ele>149</ele>
        <time>2021-05-18T08:11:29Z</time>
      </trkpt>
      <trkpt lat="43.66473" lon="3.81745">
        <ele>148.60000610352</ele>
        <time>2021-05-18T08:11:32Z</time>
      </trkpt>
      <trkpt lat="43.66473" lon="3.8175">
        <ele>148.60000610352</ele>
        <time>2021-05-18T08:11:33Z</time>
      </trkpt>
      <trkpt lat="43.66477" lon="3.81768">
        <ele>148.60000610352</ele>
        <time>2021-05-18T08:11:36Z</time>
      </trkpt>
      <trkpt lat="43.66479" lon="3.81773">
        <ele>148.39999389648</ele>
        <time>2021-05-18T08:11:37Z</time>
      </trkpt>
      <trkpt lat="43.66482" lon="3.81778">
        <ele>148.39999389648</ele>
        <time>2021-05-18T08:11:38Z</time>
      </trkpt>
      <trkpt lat="43.66485" lon="3.81782">
        <ele>148.39999389648</ele>
        <time>2021-05-18T08:11:39Z</time>
      </trkpt>
      <trkpt lat="43.66488" lon="3.81786">
        <ele>148.39999389648</ele>
        <time>2021-05-18T08:11:40Z</time>
      </trkpt>
      <trkpt lat="43.66491" lon="3.8179">
        <ele>148.39999389648</ele>
        <time>2021-05-18T08:11:41Z</time>
      </trkpt>
      <trkpt lat="43.66503" lon="3.818">
        <ele>148</ele>
        <time>2021-05-18T08:11:44Z</time>
      </trkpt>
      <trkpt lat="43.66508" lon="3.81803">
        <ele>148</ele>
        <time>2021-05-18T08:11:45Z</time>
      </trkpt>
      <trkpt lat="43.66538" lon="3.81826">
        <ele>146.80000305176</ele>
        <time>2021-05-18T08:11:52Z</time>
      </trkpt>
      <trkpt lat="43.66553" lon="3.81845">
        <ele>146.39999389648</ele>
        <time>2021-05-18T08:11:56Z</time>
      </trkpt>
      <trkpt lat="43.66557" lon="3.81848">
        <ele>146.39999389648</ele>
        <time>2021-05-18T08:11:57Z</time>
      </trkpt>
      <trkpt lat="43.66562" lon="3.8185">
        <ele>146.19999694824</ele>
        <time>2021-05-18T08:11:58Z</time>
      </trkpt>
      <trkpt lat="43.66624" lon="3.81901">
        <ele>144.80000305176</ele>
        <time>2021-05-18T08:12:11Z</time>
      </trkpt>
      <trkpt lat="43.66641" lon="3.8191">
        <ele>144.19999694824</ele>
        <time>2021-05-18T08:12:14Z</time>
      </trkpt>
      <trkpt lat="43.66653" lon="3.81918">
        <ele>143.80000305176</ele>
        <time>2021-05-18T08:12:16Z</time>
      </trkpt>
      <trkpt lat="43.66696" lon="3.81953">
        <ele>141.60000610352</ele>
        <time>2021-05-18T08:12:24Z</time>
      </trkpt>
      <trkpt lat="43.66702" lon="3.81955">
        <ele>141.60000610352</ele>
        <time>2021-05-18T08:12:25Z</time>
      </trkpt>
      <trkpt lat="43.66731" lon="3.81966">
        <ele>140.60000610352</ele>
        <time>2021-05-18T08:12:30Z</time>
      </trkpt>
      <trkpt lat="43.66736" lon="3.8197">
        <ele>140.39999389648</ele>
        <time>2021-05-18T08:12:31Z</time>
      </trkpt>
      <trkpt lat="43.66741" lon="3.81974">
        <ele>140.19999694824</ele>
        <time>2021-05-18T08:12:32Z</time>
      </trkpt>
      <trkpt lat="43.66744" lon="3.81978">
        <ele>140.19999694824</ele>
        <time>2021-05-18T08:12:33Z</time>
      </trkpt>
      <trkpt lat="43.66748" lon="3.81982">
        <ele>140.19999694824</ele>
        <time>2021-05-18T08:12:34Z</time>
      </trkpt>
      <trkpt lat="43.66779" lon="3.82041">
        <ele>141.19999694824</ele>
        <time>2021-05-18T08:12:46Z</time>
      </trkpt>
      <trkpt lat="43.66792" lon="3.82094">
        <ele>138</ele>
        <time>2021-05-18T08:12:52Z</time>
      </trkpt>
      <trkpt lat="43.66796" lon="3.82102">
        <ele>137.60000610352</ele>
        <time>2021-05-18T08:12:53Z</time>
      </trkpt>
      <trkpt lat="43.66801" lon="3.82109">
        <ele>137.39999389648</ele>
        <time>2021-05-18T08:12:54Z</time>
      </trkpt>
      <trkpt lat="43.66806" lon="3.82116">
        <ele>137</ele>
        <time>2021-05-18T08:12:55Z</time>
      </trkpt>
      <trkpt lat="43.6682" lon="3.82136">
        <ele>135.39999389648</ele>
        <time>2021-05-18T08:12:58Z</time>
      </trkpt>
      <trkpt lat="43.66823" lon="3.82143">
        <ele>135.19999694824</ele>
        <time>2021-05-18T08:12:59Z</time>
      </trkpt>
      <trkpt lat="43.66833" lon="3.8217">
        <ele>133.19999694824</ele>
        <time>2021-05-18T08:13:05Z</time>
      </trkpt>
      <trkpt lat="43.66835" lon="3.82174">
        <ele>132.60000610352</ele>
        <time>2021-05-18T08:13:11Z</time>
      </trkpt>
      <trkpt lat="43.66839" lon="3.8218">
        <ele>132.39999389648</ele>
        <time>2021-05-18T08:13:17Z</time>
      </trkpt>
      <trkpt lat="43.66847" lon="3.82196">
        <ele>132</ele>
        <time>2021-05-18T08:13:21Z</time>
      </trkpt>
      <trkpt lat="43.66859" lon="3.82206">
        <ele>131.60000610352</ele>
        <time>2021-05-18T08:13:24Z</time>
      </trkpt>
      <trkpt lat="43.66893" lon="3.82231">
        <ele>129.39999389648</ele>
        <time>2021-05-18T08:13:31Z</time>
      </trkpt>
      <trkpt lat="43.66908" lon="3.82244">
        <ele>128.39999389648</ele>
        <time>2021-05-18T08:13:34Z</time>
      </trkpt>
      <trkpt lat="43.66927" lon="3.82263">
        <ele>127.80000305176</ele>
        <time>2021-05-18T08:13:38Z</time>
      </trkpt>
      <trkpt lat="43.66966" lon="3.82314">
        <ele>125.19999694824</ele>
        <time>2021-05-18T08:13:47Z</time>
      </trkpt>
      <trkpt lat="43.66975" lon="3.8234">
        <ele>124</ele>
        <time>2021-05-18T08:13:51Z</time>
      </trkpt>
      <trkpt lat="43.66981" lon="3.82403">
        <ele>121.40000152588</ele>
        <time>2021-05-18T08:14:02Z</time>
      </trkpt>
      <trkpt lat="43.66981" lon="3.82447">
        <ele>119.80000305176</ele>
        <time>2021-05-18T08:14:12Z</time>
      </trkpt>
      <trkpt lat="43.66981" lon="3.82448">
        <ele>119.40000152588</ele>
        <time>2021-05-18T08:14:17Z</time>
      </trkpt>
      <trkpt lat="43.66982" lon="3.82431">
        <ele>120</ele>
        <time>2021-05-18T08:15:01Z</time>
      </trkpt>
      <trkpt lat="43.66982" lon="3.82441">
        <ele>120</ele>
        <time>2021-05-18T08:15:03Z</time>
      </trkpt>
      <trkpt lat="43.66982" lon="3.82447">
        <ele>119.80000305176</ele>
        <time>2021-05-18T08:15:04Z</time>
      </trkpt>
      <trkpt lat="43.66983" lon="3.82455">
        <ele>119.59999847412</ele>
        <time>2021-05-18T08:15:06Z</time>
      </trkpt>
      <trkpt lat="43.66986" lon="3.82455">
        <ele>119.59999847412</ele>
        <time>2021-05-18T08:15:08Z</time>
      </trkpt>
      <trkpt lat="43.66986" lon="3.82452">
        <ele>120</ele>
        <time>2021-05-18T08:15:14Z</time>
      </trkpt>
      <trkpt lat="43.66993" lon="3.82448">
        <ele>120.19999694824</ele>
        <time>2021-05-18T08:15:19Z</time>
      </trkpt>
      <trkpt lat="43.66996" lon="3.82446">
        <ele>120.19999694824</ele>
        <time>2021-05-18T08:15:20Z</time>
      </trkpt>
      <trkpt lat="43.67029" lon="3.82395">
        <ele>121.59999847412</ele>
        <time>2021-05-18T08:15:40Z</time>
      </trkpt>
      <trkpt lat="43.6706" lon="3.82335">
        <ele>123</ele>
        <time>2021-05-18T08:15:58Z</time>
      </trkpt>
      <trkpt lat="43.67079" lon="3.82286">
        <ele>125.19999694824</ele>
        <time>2021-05-18T08:16:12Z</time>
      </trkpt>
      <trkpt lat="43.67081" lon="3.8228">
        <ele>125.19999694824</ele>
        <time>2021-05-18T08:16:13Z</time>
      </trkpt>
      <trkpt lat="43.67086" lon="3.82276">
        <ele>125.19999694824</ele>
        <time>2021-05-18T08:16:14Z</time>
      </trkpt>
      <trkpt lat="43.67089" lon="3.82273">
        <ele>125.19999694824</ele>
        <time>2021-05-18T08:16:15Z</time>
      </trkpt>
      <trkpt lat="43.67094" lon="3.82272">
        <ele>125</ele>
        <time>2021-05-18T08:16:16Z</time>
      </trkpt>
      <trkpt lat="43.67099" lon="3.82273">
        <ele>124.59999847412</ele>
        <time>2021-05-18T08:16:17Z</time>
      </trkpt>
      <trkpt lat="43.67104" lon="3.82276">
        <ele>124.40000152588</ele>
        <time>2021-05-18T08:16:18Z</time>
      </trkpt>
      <trkpt lat="43.67108" lon="3.8228">
        <ele>124.19999694824</ele>
        <time>2021-05-18T08:16:19Z</time>
      </trkpt>
      <trkpt lat="43.67113" lon="3.82286">
        <ele>124.19999694824</ele>
        <time>2021-05-18T08:16:20Z</time>
      </trkpt>
      <trkpt lat="43.67117" lon="3.82292">
        <ele>124</ele>
        <time>2021-05-18T08:16:21Z</time>
      </trkpt>
      <trkpt lat="43.67132" lon="3.8231">
        <ele>124.40000152588</ele>
        <time>2021-05-18T08:16:29Z</time>
      </trkpt>
      <trkpt lat="43.67132" lon="3.82313">
        <ele>124.40000152588</ele>
        <time>2021-05-18T08:16:30Z</time>
      </trkpt>
      <trkpt lat="43.67131" lon="3.82317">
        <ele>124.59999847412</ele>
        <time>2021-05-18T08:16:31Z</time>
      </trkpt>
      <trkpt lat="43.6713" lon="3.82321">
        <ele>124.59999847412</ele>
        <time>2021-05-18T08:16:32Z</time>
      </trkpt>
      <trkpt lat="43.67128" lon="3.82324">
        <ele>125</ele>
        <time>2021-05-18T08:16:33Z</time>
      </trkpt>
      <trkpt lat="43.67127" lon="3.82327">
        <ele>125.19999694824</ele>
        <time>2021-05-18T08:16:34Z</time>
      </trkpt>
      <trkpt lat="43.67101" lon="3.82367">
        <ele>125.19999694824</ele>
        <time>2021-05-18T08:16:52Z</time>
      </trkpt>
      <trkpt lat="43.67082" lon="3.82401">
        <ele>122</ele>
        <time>2021-05-18T08:17:06Z</time>
      </trkpt>
      <trkpt lat="43.67067" lon="3.82424">
        <ele>120.19999694824</ele>
        <time>2021-05-18T08:17:13Z</time>
      </trkpt>
      <trkpt lat="43.67065" lon="3.82428">
        <ele>120</ele>
        <time>2021-05-18T08:17:14Z</time>
      </trkpt>
      <trkpt lat="43.67064" lon="3.82431">
        <ele>119.80000305176</ele>
        <time>2021-05-18T08:17:15Z</time>
      </trkpt>
      <trkpt lat="43.67061" lon="3.82434">
        <ele>119.59999847412</ele>
        <time>2021-05-18T08:17:16Z</time>
      </trkpt>
      <trkpt lat="43.67059" lon="3.82437">
        <ele>119.40000152588</ele>
        <time>2021-05-18T08:17:17Z</time>
      </trkpt>
      <trkpt lat="43.67057" lon="3.8244">
        <ele>119.19999694824</ele>
        <time>2021-05-18T08:17:18Z</time>
      </trkpt>
      <trkpt lat="43.6703" lon="3.82483">
        <ele>117</ele>
        <time>2021-05-18T08:17:29Z</time>
      </trkpt>
      <trkpt lat="43.67027" lon="3.82485">
        <ele>116.80000305176</ele>
        <time>2021-05-18T08:17:30Z</time>
      </trkpt>
      <trkpt lat="43.67024" lon="3.82485">
        <ele>116.59999847412</ele>
        <time>2021-05-18T08:17:31Z</time>
      </trkpt>
      <trkpt lat="43.67022" lon="3.82487">
        <ele>116.59999847412</ele>
        <time>2021-05-18T08:17:32Z</time>
      </trkpt>
      <trkpt lat="43.67021" lon="3.8249">
        <ele>116.40000152588</ele>
        <time>2021-05-18T08:17:33Z</time>
      </trkpt>
      <trkpt lat="43.67019" lon="3.82493">
        <ele>116.40000152588</ele>
        <time>2021-05-18T08:17:34Z</time>
      </trkpt>
      <trkpt lat="43.67017" lon="3.82495">
        <ele>116.40000152588</ele>
        <time>2021-05-18T08:17:35Z</time>
      </trkpt>
      <trkpt lat="43.67014" lon="3.82498">
        <ele>116.40000152588</ele>
        <time>2021-05-18T08:17:36Z</time>
      </trkpt>
      <trkpt lat="43.66964" lon="3.82547">
        <ele>115</ele>
        <time>2021-05-18T08:17:53Z</time>
      </trkpt>
      <trkpt lat="43.66932" lon="3.82573">
        <ele>115.40000152588</ele>
        <time>2021-05-18T08:18:09Z</time>
      </trkpt>
      <trkpt lat="43.66932" lon="3.82573">
        <ele>115.59999847412</ele>
        <time>2021-05-18T08:18:12Z</time>
      </trkpt>
      <trkpt lat="43.66932" lon="3.82582">
        <ele>115.80000305176</ele>
        <time>2021-05-18T08:18:23Z</time>
      </trkpt>
      <trkpt lat="43.66931" lon="3.82591">
        <ele>115.40000152588</ele>
        <time>2021-05-18T08:18:33Z</time>
      </trkpt>
      <trkpt lat="43.66929" lon="3.82594">
        <ele>115.40000152588</ele>
        <time>2021-05-18T08:18:37Z</time>
      </trkpt>
      <trkpt lat="43.66927" lon="3.82593">
        <ele>115.40000152588</ele>
        <time>2021-05-18T08:18:44Z</time>
      </trkpt>
      <trkpt lat="43.66908" lon="3.82594">
        <ele>115.40000152588</ele>
        <time>2021-05-18T08:18:53Z</time>
      </trkpt>
      <trkpt lat="43.66874" lon="3.82626">
        <ele>115.80000305176</ele>
        <time>2021-05-18T08:19:09Z</time>
      </trkpt>
      <trkpt lat="43.66874" lon="3.82626">
        <ele>116</ele>
        <time>2021-05-18T08:19:11Z</time>
      </trkpt>
      <trkpt lat="43.6687" lon="3.82633">
        <ele>116.59999847412</ele>
        <time>2021-05-18T08:19:27Z</time>
      </trkpt>
      <trkpt lat="43.66869" lon="3.82635">
        <ele>116.59999847412</ele>
        <time>2021-05-18T08:19:28Z</time>
      </trkpt>
      <trkpt lat="43.66867" lon="3.82637">
        <ele>116.40000152588</ele>
        <time>2021-05-18T08:19:29Z</time>
      </trkpt>
      <trkpt lat="43.66864" lon="3.82639">
        <ele>116.40000152588</ele>
        <time>2021-05-18T08:19:30Z</time>
      </trkpt>
      <trkpt lat="43.6686" lon="3.82642">
        <ele>116.19999694824</ele>
        <time>2021-05-18T08:19:31Z</time>
      </trkpt>
      <trkpt lat="43.66857" lon="3.82645">
        <ele>116.19999694824</ele>
        <time>2021-05-18T08:19:32Z</time>
      </trkpt>
      <trkpt lat="43.66844" lon="3.82655">
        <ele>116.80000305176</ele>
        <time>2021-05-18T08:19:35Z</time>
      </trkpt>
      <trkpt lat="43.66841" lon="3.82657">
        <ele>116.80000305176</ele>
        <time>2021-05-18T08:19:36Z</time>
      </trkpt>
      <trkpt lat="43.66806" lon="3.82683">
        <ele>120</ele>
        <time>2021-05-18T08:19:49Z</time>
      </trkpt>
      <trkpt lat="43.66776" lon="3.82709">
        <ele>120.19999694824</ele>
        <time>2021-05-18T08:20:00Z</time>
      </trkpt>
      <trkpt lat="43.66729" lon="3.82749">
        <ele>120.59999847412</ele>
        <time>2021-05-18T08:20:16Z</time>
      </trkpt>
      <trkpt lat="43.66697" lon="3.82778">
        <ele>120.80000305176</ele>
        <time>2021-05-18T08:20:27Z</time>
      </trkpt>
      <trkpt lat="43.66647" lon="3.82825">
        <ele>121</ele>
        <time>2021-05-18T08:20:44Z</time>
      </trkpt>
      <trkpt lat="43.66613" lon="3.82866">
        <ele>121</ele>
        <time>2021-05-18T08:21:00Z</time>
      </trkpt>
      <trkpt lat="43.66613" lon="3.82867">
        <ele>121.40000152588</ele>
        <time>2021-05-18T08:21:05Z</time>
      </trkpt>
      <trkpt lat="43.66613" lon="3.82878">
        <ele>121.19999694824</ele>
        <time>2021-05-18T08:21:56Z</time>
      </trkpt>
      <trkpt lat="43.66627" lon="3.82951">
        <ele>121.40000152588</ele>
        <time>2021-05-18T08:22:11Z</time>
      </trkpt>
      <trkpt lat="43.66645" lon="3.83039">
        <ele>122.59999847412</ele>
        <time>2021-05-18T08:22:28Z</time>
      </trkpt>
      <trkpt lat="43.66646" lon="3.8305">
        <ele>122.80000305176</ele>
        <time>2021-05-18T08:22:30Z</time>
      </trkpt>
      <trkpt lat="43.66646" lon="3.83056">
        <ele>122.80000305176</ele>
        <time>2021-05-18T08:22:31Z</time>
      </trkpt>
      <trkpt lat="43.66645" lon="3.83062">
        <ele>122.80000305176</ele>
        <time>2021-05-18T08:22:32Z</time>
      </trkpt>
      <trkpt lat="43.66644" lon="3.83068">
        <ele>122.80000305176</ele>
        <time>2021-05-18T08:22:33Z</time>
      </trkpt>
      <trkpt lat="43.66642" lon="3.83075">
        <ele>122.80000305176</ele>
        <time>2021-05-18T08:22:34Z</time>
      </trkpt>
      <trkpt lat="43.66637" lon="3.83145">
        <ele>123.19999694824</ele>
        <time>2021-05-18T08:22:48Z</time>
      </trkpt>
      <trkpt lat="43.66639" lon="3.83146">
        <ele>123.40000152588</ele>
        <time>2021-05-18T08:22:49Z</time>
      </trkpt>
      <trkpt lat="43.66642" lon="3.83146">
        <ele>123.40000152588</ele>
        <time>2021-05-18T08:22:50Z</time>
      </trkpt>
      <trkpt lat="43.6669" lon="3.8314">
        <ele>123</ele>
        <time>2021-05-18T08:23:01Z</time>
      </trkpt>
      <trkpt lat="43.66711" lon="3.83139">
        <ele>122.59999847412</ele>
        <time>2021-05-18T08:23:05Z</time>
      </trkpt>
      <trkpt lat="43.66716" lon="3.8314">
        <ele>122.40000152588</ele>
        <time>2021-05-18T08:23:06Z</time>
      </trkpt>
      <trkpt lat="43.66733" lon="3.83146">
        <ele>120.19999694824</ele>
        <time>2021-05-18T08:23:14Z</time>
      </trkpt>
      <trkpt lat="43.6674" lon="3.83187">
        <ele>117</ele>
        <time>2021-05-18T08:23:25Z</time>
      </trkpt>
      <trkpt lat="43.66746" lon="3.83219">
        <ele>113.80000305176</ele>
        <time>2021-05-18T08:23:32Z</time>
      </trkpt>
      <trkpt lat="43.66758" lon="3.8326">
        <ele>111.40000152588</ele>
        <time>2021-05-18T08:23:40Z</time>
      </trkpt>
      <trkpt lat="43.66761" lon="3.83279">
        <ele>109.40000152588</ele>
        <time>2021-05-18T08:23:44Z</time>
      </trkpt>
      <trkpt lat="43.66768" lon="3.83325">
        <ele>106.19999694824</ele>
        <time>2021-05-18T08:23:54Z</time>
      </trkpt>
      <trkpt lat="43.66764" lon="3.83342">
        <ele>104.59999847412</ele>
        <time>2021-05-18T08:23:58Z</time>
      </trkpt>
      <trkpt lat="43.66743" lon="3.83386">
        <ele>101.40000152588</ele>
        <time>2021-05-18T08:24:08Z</time>
      </trkpt>
      <trkpt lat="43.66741" lon="3.83391">
        <ele>101</ele>
        <time>2021-05-18T08:24:09Z</time>
      </trkpt>
      <trkpt lat="43.66739" lon="3.83397">
        <ele>100.59999847412</ele>
        <time>2021-05-18T08:24:10Z</time>
      </trkpt>
      <trkpt lat="43.66737" lon="3.83404">
        <ele>100.40000152588</ele>
        <time>2021-05-18T08:24:11Z</time>
      </trkpt>
      <trkpt lat="43.66734" lon="3.83488">
        <ele>97.599998474121</ele>
        <time>2021-05-18T08:24:26Z</time>
      </trkpt>
      <trkpt lat="43.66745" lon="3.83559">
        <ele>97.400001525879</ele>
        <time>2021-05-18T08:24:40Z</time>
      </trkpt>
      <trkpt lat="43.66747" lon="3.83566">
        <ele>97.400001525879</ele>
        <time>2021-05-18T08:24:41Z</time>
      </trkpt>
      <trkpt lat="43.66771" lon="3.83595">
        <ele>97.599998474121</ele>
        <time>2021-05-18T08:24:50Z</time>
      </trkpt>
      <trkpt lat="43.66805" lon="3.83593">
        <ele>95.400001525879</ele>
        <time>2021-05-18T08:25:01Z</time>
      </trkpt>
      <trkpt lat="43.66812" lon="3.83591">
        <ele>94.800003051758</ele>
        <time>2021-05-18T08:25:03Z</time>
      </trkpt>
      <trkpt lat="43.66835" lon="3.83586">
        <ele>92.599998474121</ele>
        <time>2021-05-18T08:25:08Z</time>
      </trkpt>
      <trkpt lat="43.66839" lon="3.83588">
        <ele>92.199996948242</ele>
        <time>2021-05-18T08:25:09Z</time>
      </trkpt>
      <trkpt lat="43.66844" lon="3.8359">
        <ele>91.599998474121</ele>
        <time>2021-05-18T08:25:10Z</time>
      </trkpt>
      <trkpt lat="43.66848" lon="3.83593">
        <ele>91.199996948242</ele>
        <time>2021-05-18T08:25:11Z</time>
      </trkpt>
      <trkpt lat="43.66852" lon="3.83597">
        <ele>90.199996948242</ele>
        <time>2021-05-18T08:25:12Z</time>
      </trkpt>
      <trkpt lat="43.66855" lon="3.83602">
        <ele>89.800003051758</ele>
        <time>2021-05-18T08:25:13Z</time>
      </trkpt>
      <trkpt lat="43.66859" lon="3.83607">
        <ele>89.599998474121</ele>
        <time>2021-05-18T08:25:14Z</time>
      </trkpt>
      <trkpt lat="43.66875" lon="3.83628">
        <ele>87</ele>
        <time>2021-05-18T08:25:24Z</time>
      </trkpt>
      <trkpt lat="43.66876" lon="3.83632">
        <ele>86.599998474121</ele>
        <time>2021-05-18T08:25:26Z</time>
      </trkpt>
      <trkpt lat="43.66879" lon="3.8366">
        <ele>86</ele>
        <time>2021-05-18T08:25:32Z</time>
      </trkpt>
      <trkpt lat="43.66877" lon="3.83695">
        <ele>84.400001525879</ele>
        <time>2021-05-18T08:25:37Z</time>
      </trkpt>
      <trkpt lat="43.66873" lon="3.83717">
        <ele>83.400001525879</ele>
        <time>2021-05-18T08:25:40Z</time>
      </trkpt>
      <trkpt lat="43.66871" lon="3.83724">
        <ele>83.199996948242</ele>
        <time>2021-05-18T08:25:41Z</time>
      </trkpt>
      <trkpt lat="43.66868" lon="3.8373">
        <ele>82.800003051758</ele>
        <time>2021-05-18T08:25:42Z</time>
      </trkpt>
      <trkpt lat="43.66866" lon="3.83736">
        <ele>82.400001525879</ele>
        <time>2021-05-18T08:25:43Z</time>
      </trkpt>
      <trkpt lat="43.66865" lon="3.83743">
        <ele>82.199996948242</ele>
        <time>2021-05-18T08:25:44Z</time>
      </trkpt>
      <trkpt lat="43.66864" lon="3.83749">
        <ele>82.199996948242</ele>
        <time>2021-05-18T08:25:45Z</time>
      </trkpt>
      <trkpt lat="43.66865" lon="3.83756">
        <ele>82</ele>
        <time>2021-05-18T08:25:46Z</time>
      </trkpt>
      <trkpt lat="43.66866" lon="3.83762">
        <ele>81.800003051758</ele>
        <time>2021-05-18T08:25:47Z</time>
      </trkpt>
      <trkpt lat="43.66867" lon="3.83769">
        <ele>81.800003051758</ele>
        <time>2021-05-18T08:25:48Z</time>
      </trkpt>
      <trkpt lat="43.66869" lon="3.83789">
        <ele>81.599998474121</ele>
        <time>2021-05-18T08:25:51Z</time>
      </trkpt>
      <trkpt lat="43.66871" lon="3.83796">
        <ele>81.199996948242</ele>
        <time>2021-05-18T08:25:52Z</time>
      </trkpt>
      <trkpt lat="43.66873" lon="3.83803">
        <ele>81.199996948242</ele>
        <time>2021-05-18T08:25:53Z</time>
      </trkpt>
      <trkpt lat="43.66876" lon="3.8381">
        <ele>81</ele>
        <time>2021-05-18T08:25:54Z</time>
      </trkpt>
      <trkpt lat="43.66879" lon="3.83817">
        <ele>80.599998474121</ele>
        <time>2021-05-18T08:25:55Z</time>
      </trkpt>
      <trkpt lat="43.66883" lon="3.83832">
        <ele>80.199996948242</ele>
        <time>2021-05-18T08:25:57Z</time>
      </trkpt>
      <trkpt lat="43.66882" lon="3.83839">
        <ele>80.199996948242</ele>
        <time>2021-05-18T08:25:58Z</time>
      </trkpt>
      <trkpt lat="43.66882" lon="3.83846">
        <ele>79.599998474121</ele>
        <time>2021-05-18T08:25:59Z</time>
      </trkpt>
      <trkpt lat="43.6688" lon="3.83868">
        <ele>79</ele>
        <time>2021-05-18T08:26:02Z</time>
      </trkpt>
      <trkpt lat="43.66881" lon="3.83876">
        <ele>78.800003051758</ele>
        <time>2021-05-18T08:26:03Z</time>
      </trkpt>
      <trkpt lat="43.66887" lon="3.83937">
        <ele>77.800003051758</ele>
        <time>2021-05-18T08:26:12Z</time>
      </trkpt>
      <trkpt lat="43.6689" lon="3.83947">
        <ele>77.599998474121</ele>
        <time>2021-05-18T08:26:14Z</time>
      </trkpt>
      <trkpt lat="43.66893" lon="3.83953">
        <ele>77.599998474121</ele>
        <time>2021-05-18T08:26:15Z</time>
      </trkpt>
      <trkpt lat="43.66896" lon="3.83958">
        <ele>77.599998474121</ele>
        <time>2021-05-18T08:26:16Z</time>
      </trkpt>
      <trkpt lat="43.66899" lon="3.83962">
        <ele>77.599998474121</ele>
        <time>2021-05-18T08:26:17Z</time>
      </trkpt>
      <trkpt lat="43.66903" lon="3.83967">
        <ele>77.599998474121</ele>
        <time>2021-05-18T08:26:18Z</time>
      </trkpt>
      <trkpt lat="43.66906" lon="3.83971">
        <ele>77.599998474121</ele>
        <time>2021-05-18T08:26:19Z</time>
      </trkpt>
      <trkpt lat="43.66915" lon="3.83986">
        <ele>77</ele>
        <time>2021-05-18T08:26:22Z</time>
      </trkpt>
      <trkpt lat="43.66917" lon="3.83992">
        <ele>77</ele>
        <time>2021-05-18T08:26:23Z</time>
      </trkpt>
      <trkpt lat="43.66918" lon="3.83997">
        <ele>77</ele>
        <time>2021-05-18T08:26:24Z</time>
      </trkpt>
      <trkpt lat="43.66918" lon="3.84002">
        <ele>77</ele>
        <time>2021-05-18T08:26:25Z</time>
      </trkpt>
      <trkpt lat="43.66918" lon="3.84006">
        <ele>76.800003051758</ele>
        <time>2021-05-18T08:26:26Z</time>
      </trkpt>
      <trkpt lat="43.66916" lon="3.84026">
        <ele>76.800003051758</ele>
        <time>2021-05-18T08:26:34Z</time>
      </trkpt>
      <trkpt lat="43.66917" lon="3.84028">
        <ele>76.800003051758</ele>
        <time>2021-05-18T08:26:35Z</time>
      </trkpt>
      <trkpt lat="43.66919" lon="3.84028">
        <ele>76.599998474121</ele>
        <time>2021-05-18T08:26:37Z</time>
      </trkpt>
      <trkpt lat="43.6692" lon="3.84027">
        <ele>76.599998474121</ele>
        <time>2021-05-18T08:26:38Z</time>
      </trkpt>
      <trkpt lat="43.66921" lon="3.84025">
        <ele>76.599998474121</ele>
        <time>2021-05-18T08:26:39Z</time>
      </trkpt>
      <trkpt lat="43.66922" lon="3.84023">
        <ele>76.599998474121</ele>
        <time>2021-05-18T08:26:45Z</time>
      </trkpt>
      <trkpt lat="43.66929" lon="3.84018">
        <ele>76</ele>
        <time>2021-05-18T08:28:41Z</time>
      </trkpt>
      <trkpt lat="43.66931" lon="3.84016">
        <ele>76</ele>
        <time>2021-05-18T08:28:42Z</time>
      </trkpt>
      <trkpt lat="43.66933" lon="3.84013">
        <ele>76</ele>
        <time>2021-05-18T08:28:43Z</time>
      </trkpt>
      <trkpt lat="43.66935" lon="3.8401">
        <ele>76</ele>
        <time>2021-05-18T08:28:44Z</time>
      </trkpt>
      <trkpt lat="43.6698" lon="3.83978">
        <ele>75.400001525879</ele>
        <time>2021-05-18T08:28:58Z</time>
      </trkpt>
      <trkpt lat="43.67043" lon="3.83953">
        <ele>75.800003051758</ele>
        <time>2021-05-18T08:29:16Z</time>
      </trkpt>
      <trkpt lat="43.67122" lon="3.83926">
        <ele>76.400001525879</ele>
        <time>2021-05-18T08:29:36Z</time>
      </trkpt>
      <trkpt lat="43.67201" lon="3.8392">
        <ele>77.400001525879</ele>
        <time>2021-05-18T08:29:55Z</time>
      </trkpt>
      <trkpt lat="43.67312" lon="3.83925">
        <ele>79.599998474121</ele>
        <time>2021-05-18T08:30:21Z</time>
      </trkpt>
      <trkpt lat="43.67351" lon="3.83927">
        <ele>80</ele>
        <time>2021-05-18T08:30:30Z</time>
      </trkpt>
      <trkpt lat="43.67364" lon="3.83926">
        <ele>80.199996948242</ele>
        <time>2021-05-18T08:30:33Z</time>
      </trkpt>
      <trkpt lat="43.67368" lon="3.83927">
        <ele>80.400001525879</ele>
        <time>2021-05-18T08:30:34Z</time>
      </trkpt>
      <trkpt lat="43.6738" lon="3.83927">
        <ele>80.599998474121</ele>
        <time>2021-05-18T08:30:37Z</time>
      </trkpt>
      <trkpt lat="43.67401" lon="3.83927">
        <ele>81</ele>
        <time>2021-05-18T08:30:42Z</time>
      </trkpt>
      <trkpt lat="43.67459" lon="3.83916">
        <ele>81.599998474121</ele>
        <time>2021-05-18T08:30:56Z</time>
      </trkpt>
      <trkpt lat="43.67514" lon="3.83894">
        <ele>83</ele>
        <time>2021-05-18T08:31:12Z</time>
      </trkpt>
      <trkpt lat="43.67587" lon="3.83879">
        <ele>84.400001525879</ele>
        <time>2021-05-18T08:31:32Z</time>
      </trkpt>
      <trkpt lat="43.6768" lon="3.83878">
        <ele>86.400001525879</ele>
        <time>2021-05-18T08:31:56Z</time>
      </trkpt>
      <trkpt lat="43.67767" lon="3.83867">
        <ele>88.800003051758</ele>
        <time>2021-05-18T08:32:19Z</time>
      </trkpt>
      <trkpt lat="43.6781" lon="3.83825">
        <ele>89.599998474121</ele>
        <time>2021-05-18T08:32:33Z</time>
      </trkpt>
      <trkpt lat="43.67881" lon="3.83769">
        <ele>90.400001525879</ele>
        <time>2021-05-18T08:32:52Z</time>
      </trkpt>
      <trkpt lat="43.67939" lon="3.83727">
        <ele>90.599998474121</ele>
        <time>2021-05-18T08:33:08Z</time>
      </trkpt>
      <trkpt lat="43.67941" lon="3.83723">
        <ele>90.599998474121</ele>
        <time>2021-05-18T08:33:09Z</time>
      </trkpt>
      <trkpt lat="43.67943" lon="3.83718">
        <ele>90.599998474121</ele>
        <time>2021-05-18T08:33:10Z</time>
      </trkpt>
      <trkpt lat="43.67946" lon="3.83714">
        <ele>90.599998474121</ele>
        <time>2021-05-18T08:33:11Z</time>
      </trkpt>
      <trkpt lat="43.67949" lon="3.83711">
        <ele>90.599998474121</ele>
        <time>2021-05-18T08:33:12Z</time>
      </trkpt>
      <trkpt lat="43.67952" lon="3.83707">
        <ele>90.599998474121</ele>
        <time>2021-05-18T08:33:13Z</time>
      </trkpt>
      <trkpt lat="43.67956" lon="3.83705">
        <ele>90.599998474121</ele>
        <time>2021-05-18T08:33:14Z</time>
      </trkpt>
      <trkpt lat="43.6796" lon="3.83703">
        <ele>90.599998474121</ele>
        <time>2021-05-18T08:33:15Z</time>
      </trkpt>
      <trkpt lat="43.67963" lon="3.83701">
        <ele>90.599998474121</ele>
        <time>2021-05-18T08:33:16Z</time>
      </trkpt>
      <trkpt lat="43.67985" lon="3.83667">
        <ele>91</ele>
        <time>2021-05-18T08:33:27Z</time>
      </trkpt>
      <trkpt lat="43.68029" lon="3.83618">
        <ele>90.800003051758</ele>
        <time>2021-05-18T08:33:41Z</time>
      </trkpt>
      <trkpt lat="43.681" lon="3.83542">
        <ele>90.599998474121</ele>
        <time>2021-05-18T08:34:00Z</time>
      </trkpt>
      <trkpt lat="43.6813" lon="3.83489">
        <ele>90.800003051758</ele>
        <time>2021-05-18T08:34:10Z</time>
      </trkpt>
      <trkpt lat="43.68133" lon="3.83484">
        <ele>91</ele>
        <time>2021-05-18T08:34:11Z</time>
      </trkpt>
      <trkpt lat="43.68188" lon="3.83404">
        <ele>91.800003051758</ele>
        <time>2021-05-18T08:34:25Z</time>
      </trkpt>
      <trkpt lat="43.68225" lon="3.83357">
        <ele>92.800003051758</ele>
        <time>2021-05-18T08:34:37Z</time>
      </trkpt>
      <trkpt lat="43.68253" lon="3.83328">
        <ele>92.599998474121</ele>
        <time>2021-05-18T08:34:44Z</time>
      </trkpt>
      <trkpt lat="43.6828" lon="3.83282">
        <ele>92.599998474121</ele>
        <time>2021-05-18T08:34:56Z</time>
      </trkpt>
      <trkpt lat="43.68304" lon="3.8325">
        <ele>92.400001525879</ele>
        <time>2021-05-18T08:35:09Z</time>
      </trkpt>
      <trkpt lat="43.68309" lon="3.83248">
        <ele>92.199996948242</ele>
        <time>2021-05-18T08:35:13Z</time>
      </trkpt>
      <trkpt lat="43.68312" lon="3.83258">
        <ele>91.400001525879</ele>
        <time>2021-05-18T08:35:20Z</time>
      </trkpt>
      <trkpt lat="43.68324" lon="3.83258">
        <ele>91</ele>
        <time>2021-05-18T08:36:10Z</time>
      </trkpt>
      <trkpt lat="43.68327" lon="3.83257">
        <ele>91</ele>
        <time>2021-05-18T08:36:13Z</time>
      </trkpt>
      <trkpt lat="43.68331" lon="3.83257">
        <ele>91.599998474121</ele>
        <time>2021-05-18T08:36:21Z</time>
      </trkpt>
      <trkpt lat="43.68337" lon="3.8326">
        <ele>91.599998474121</ele>
        <time>2021-05-18T08:36:25Z</time>
      </trkpt>
      <trkpt lat="43.68339" lon="3.83259">
        <ele>91.599998474121</ele>
        <time>2021-05-18T08:36:26Z</time>
      </trkpt>
      <trkpt lat="43.68349" lon="3.83255">
        <ele>92.199996948242</ele>
        <time>2021-05-18T08:36:35Z</time>
      </trkpt>
      <trkpt lat="43.68354" lon="3.83245">
        <ele>91.800003051758</ele>
        <time>2021-05-18T08:37:49Z</time>
      </trkpt>
      <trkpt lat="43.68363" lon="3.83194">
        <ele>92</ele>
        <time>2021-05-18T08:38:00Z</time>
      </trkpt>
      <trkpt lat="43.6836" lon="3.83181">
        <ele>92.199996948242</ele>
        <time>2021-05-18T08:38:03Z</time>
      </trkpt>
      <trkpt lat="43.68373" lon="3.83141">
        <ele>92.800003051758</ele>
        <time>2021-05-18T08:38:13Z</time>
      </trkpt>
      <trkpt lat="43.68378" lon="3.83135">
        <ele>93.400001525879</ele>
        <time>2021-05-18T08:38:20Z</time>
      </trkpt>
      <trkpt lat="43.68378" lon="3.83123">
        <ele>94</ele>
        <time>2021-05-18T08:38:31Z</time>
      </trkpt>
      <trkpt lat="43.6838" lon="3.83109">
        <ele>94.199996948242</ele>
        <time>2021-05-18T08:38:35Z</time>
      </trkpt>
      <trkpt lat="43.68401" lon="3.8307">
        <ele>95.400001525879</ele>
        <time>2021-05-18T08:38:46Z</time>
      </trkpt>
      <trkpt lat="43.68414" lon="3.8305">
        <ele>97.199996948242</ele>
        <time>2021-05-18T08:38:54Z</time>
      </trkpt>
      <trkpt lat="43.68411" lon="3.83037">
        <ele>98.400001525879</ele>
        <time>2021-05-18T08:38:59Z</time>
      </trkpt>
      <trkpt lat="43.68407" lon="3.83002">
        <ele>98.199996948242</ele>
        <time>2021-05-18T08:39:11Z</time>
      </trkpt>
      <trkpt lat="43.68412" lon="3.82998">
        <ele>98</ele>
        <time>2021-05-18T08:39:13Z</time>
      </trkpt>
      <trkpt lat="43.68419" lon="3.82987">
        <ele>97.400001525879</ele>
        <time>2021-05-18T08:39:18Z</time>
      </trkpt>
      <trkpt lat="43.68433" lon="3.82967">
        <ele>97.400001525879</ele>
        <time>2021-05-18T08:39:29Z</time>
      </trkpt>
      <trkpt lat="43.68434" lon="3.8296">
        <ele>97.400001525879</ele>
        <time>2021-05-18T08:39:37Z</time>
      </trkpt>
      <trkpt lat="43.68437" lon="3.82958">
        <ele>97.400001525879</ele>
        <time>2021-05-18T08:39:39Z</time>
      </trkpt>
      <trkpt lat="43.68463" lon="3.82935">
        <ele>97.599998474121</ele>
        <time>2021-05-18T08:39:49Z</time>
      </trkpt>
      <trkpt lat="43.68472" lon="3.8293">
        <ele>98</ele>
        <time>2021-05-18T08:39:53Z</time>
      </trkpt>
      <trkpt lat="43.68492" lon="3.82924">
        <ele>98.599998474121</ele>
        <time>2021-05-18T08:40:02Z</time>
      </trkpt>
      <trkpt lat="43.68497" lon="3.82921">
        <ele>98.800003051758</ele>
        <time>2021-05-18T08:40:04Z</time>
      </trkpt>
      <trkpt lat="43.6853" lon="3.82905">
        <ele>99.400001525879</ele>
        <time>2021-05-18T08:40:14Z</time>
      </trkpt>
      <trkpt lat="43.6857" lon="3.82882">
        <ele>101</ele>
        <time>2021-05-18T08:40:26Z</time>
      </trkpt>
      <trkpt lat="43.68573" lon="3.8288">
        <ele>101.19999694824</ele>
        <time>2021-05-18T08:40:27Z</time>
      </trkpt>
      <trkpt lat="43.68575" lon="3.82877">
        <ele>101.40000152588</ele>
        <time>2021-05-18T08:40:28Z</time>
      </trkpt>
      <trkpt lat="43.68577" lon="3.82874">
        <ele>101.59999847412</ele>
        <time>2021-05-18T08:40:29Z</time>
      </trkpt>
      <trkpt lat="43.68579" lon="3.8287">
        <ele>101.80000305176</ele>
        <time>2021-05-18T08:40:30Z</time>
      </trkpt>
      <trkpt lat="43.68582" lon="3.82866">
        <ele>101.80000305176</ele>
        <time>2021-05-18T08:40:31Z</time>
      </trkpt>
      <trkpt lat="43.68584" lon="3.82862">
        <ele>102</ele>
        <time>2021-05-18T08:40:32Z</time>
      </trkpt>
      <trkpt lat="43.68592" lon="3.82854">
        <ele>102</ele>
        <time>2021-05-18T08:40:40Z</time>
      </trkpt>
      <trkpt lat="43.68602" lon="3.82847">
        <ele>101.59999847412</ele>
        <time>2021-05-18T08:44:51Z</time>
      </trkpt>
      <trkpt lat="43.68604" lon="3.82845">
        <ele>101.59999847412</ele>
        <time>2021-05-18T08:44:52Z</time>
      </trkpt>
      <trkpt lat="43.68607" lon="3.82844">
        <ele>101.59999847412</ele>
        <time>2021-05-18T08:44:53Z</time>
      </trkpt>
      <trkpt lat="43.68642" lon="3.8283">
        <ele>101.80000305176</ele>
        <time>2021-05-18T08:45:07Z</time>
      </trkpt>
      <trkpt lat="43.68678" lon="3.82824">
        <ele>102.80000305176</ele>
        <time>2021-05-18T08:45:19Z</time>
      </trkpt>
      <trkpt lat="43.68689" lon="3.82817">
        <ele>103.40000152588</ele>
        <time>2021-05-18T08:45:24Z</time>
      </trkpt>
      <trkpt lat="43.68694" lon="3.82816">
        <ele>103.40000152588</ele>
        <time>2021-05-18T08:45:25Z</time>
      </trkpt>
      <trkpt lat="43.68787" lon="3.82808">
        <ele>103.80000305176</ele>
        <time>2021-05-18T08:45:47Z</time>
      </trkpt>
      <trkpt lat="43.68854" lon="3.82813">
        <ele>104.59999847412</ele>
        <time>2021-05-18T08:46:02Z</time>
      </trkpt>
      <trkpt lat="43.68858" lon="3.82812">
        <ele>104.59999847412</ele>
        <time>2021-05-18T08:46:03Z</time>
      </trkpt>
      <trkpt lat="43.68862" lon="3.82811">
        <ele>104.59999847412</ele>
        <time>2021-05-18T08:46:04Z</time>
      </trkpt>
      <trkpt lat="43.68865" lon="3.82809">
        <ele>104.80000305176</ele>
        <time>2021-05-18T08:46:05Z</time>
      </trkpt>
      <trkpt lat="43.68869" lon="3.82807">
        <ele>104.80000305176</ele>
        <time>2021-05-18T08:46:06Z</time>
      </trkpt>
      <trkpt lat="43.68933" lon="3.82789">
        <ele>106.40000152588</ele>
        <time>2021-05-18T08:46:23Z</time>
      </trkpt>
      <trkpt lat="43.68937" lon="3.8279">
        <ele>106.40000152588</ele>
        <time>2021-05-18T08:46:24Z</time>
      </trkpt>
      <trkpt lat="43.68942" lon="3.82792">
        <ele>106.40000152588</ele>
        <time>2021-05-18T08:46:25Z</time>
      </trkpt>
      <trkpt lat="43.68946" lon="3.82794">
        <ele>106.19999694824</ele>
        <time>2021-05-18T08:46:26Z</time>
      </trkpt>
      <trkpt lat="43.6896" lon="3.828">
        <ele>106</ele>
        <time>2021-05-18T08:46:29Z</time>
      </trkpt>
      <trkpt lat="43.68964" lon="3.82801">
        <ele>106</ele>
        <time>2021-05-18T08:46:30Z</time>
      </trkpt>
      <trkpt lat="43.68969" lon="3.82801">
        <ele>106</ele>
        <time>2021-05-18T08:46:31Z</time>
      </trkpt>
      <trkpt lat="43.68974" lon="3.82801">
        <ele>106</ele>
        <time>2021-05-18T08:46:32Z</time>
      </trkpt>
      <trkpt lat="43.68978" lon="3.82801">
        <ele>105.80000305176</ele>
        <time>2021-05-18T08:46:33Z</time>
      </trkpt>
      <trkpt lat="43.69102" lon="3.82786">
        <ele>106.19999694824</ele>
        <time>2021-05-18T08:46:59Z</time>
      </trkpt>
      <trkpt lat="43.69215" lon="3.8277">
        <ele>106.59999847412</ele>
        <time>2021-05-18T08:47:24Z</time>
      </trkpt>
      <trkpt lat="43.69267" lon="3.82771">
        <ele>106.59999847412</ele>
        <time>2021-05-18T08:47:37Z</time>
      </trkpt>
      <trkpt lat="43.69268" lon="3.82774">
        <ele>106.59999847412</ele>
        <time>2021-05-18T08:47:38Z</time>
      </trkpt>
      <trkpt lat="43.69269" lon="3.82779">
        <ele>106.59999847412</ele>
        <time>2021-05-18T08:47:39Z</time>
      </trkpt>
      <trkpt lat="43.6927" lon="3.82783">
        <ele>106.59999847412</ele>
        <time>2021-05-18T08:47:40Z</time>
      </trkpt>
      <trkpt lat="43.6927" lon="3.82789">
        <ele>106.59999847412</ele>
        <time>2021-05-18T08:47:41Z</time>
      </trkpt>
      <trkpt lat="43.69269" lon="3.82793">
        <ele>106.40000152588</ele>
        <time>2021-05-18T08:47:42Z</time>
      </trkpt>
      <trkpt lat="43.69268" lon="3.82797">
        <ele>106.40000152588</ele>
        <time>2021-05-18T08:47:43Z</time>
      </trkpt>
      <trkpt lat="43.69267" lon="3.82801">
        <ele>106.59999847412</ele>
        <time>2021-05-18T08:47:44Z</time>
      </trkpt>
      <trkpt lat="43.69251" lon="3.82823">
        <ele>107.40000152588</ele>
        <time>2021-05-18T08:47:51Z</time>
      </trkpt>
      <trkpt lat="43.69247" lon="3.82823">
        <ele>107.59999847412</ele>
        <time>2021-05-18T08:47:52Z</time>
      </trkpt>
      <trkpt lat="43.69204" lon="3.82835">
        <ele>110.19999694824</ele>
        <time>2021-05-18T08:48:05Z</time>
      </trkpt>
      <trkpt lat="43.69145" lon="3.82897">
        <ele>110.40000152588</ele>
        <time>2021-05-18T08:48:24Z</time>
      </trkpt>
      <trkpt lat="43.69134" lon="3.82907">
        <ele>109.80000305176</ele>
        <time>2021-05-18T08:48:27Z</time>
      </trkpt>
      <trkpt lat="43.69129" lon="3.82911">
        <ele>109.59999847412</ele>
        <time>2021-05-18T08:48:28Z</time>
      </trkpt>
      <trkpt lat="43.69125" lon="3.82915">
        <ele>109.40000152588</ele>
        <time>2021-05-18T08:48:29Z</time>
      </trkpt>
      <trkpt lat="43.69122" lon="3.8292">
        <ele>109.19999694824</ele>
        <time>2021-05-18T08:48:30Z</time>
      </trkpt>
      <trkpt lat="43.6912" lon="3.82927">
        <ele>108.80000305176</ele>
        <time>2021-05-18T08:48:31Z</time>
      </trkpt>
      <trkpt lat="43.6912" lon="3.82934">
        <ele>108.40000152588</ele>
        <time>2021-05-18T08:48:32Z</time>
      </trkpt>
      <trkpt lat="43.69121" lon="3.82941">
        <ele>108</ele>
        <time>2021-05-18T08:48:33Z</time>
      </trkpt>
      <trkpt lat="43.69124" lon="3.82947">
        <ele>107.59999847412</ele>
        <time>2021-05-18T08:48:34Z</time>
      </trkpt>
      <trkpt lat="43.69128" lon="3.82951">
        <ele>107.19999694824</ele>
        <time>2021-05-18T08:48:35Z</time>
      </trkpt>
      <trkpt lat="43.69133" lon="3.82954">
        <ele>107</ele>
        <time>2021-05-18T08:48:36Z</time>
      </trkpt>
      <trkpt lat="43.69138" lon="3.82956">
        <ele>106.80000305176</ele>
        <time>2021-05-18T08:48:37Z</time>
      </trkpt>
      <trkpt lat="43.69143" lon="3.82957">
        <ele>106.80000305176</ele>
        <time>2021-05-18T08:48:38Z</time>
      </trkpt>
      <trkpt lat="43.69153" lon="3.82962">
        <ele>106.40000152588</ele>
        <time>2021-05-18T08:48:40Z</time>
      </trkpt>
      <trkpt lat="43.69157" lon="3.82968">
        <ele>106.19999694824</ele>
        <time>2021-05-18T08:48:41Z</time>
      </trkpt>
      <trkpt lat="43.6916" lon="3.82975">
        <ele>106</ele>
        <time>2021-05-18T08:48:42Z</time>
      </trkpt>
      <trkpt lat="43.69163" lon="3.82981">
        <ele>105.59999847412</ele>
        <time>2021-05-18T08:48:43Z</time>
      </trkpt>
      <trkpt lat="43.69168" lon="3.82987">
        <ele>105.19999694824</ele>
        <time>2021-05-18T08:48:44Z</time>
      </trkpt>
      <trkpt lat="43.69173" lon="3.82992">
        <ele>105</ele>
        <time>2021-05-18T08:48:45Z</time>
      </trkpt>
      <trkpt lat="43.69179" lon="3.82996">
        <ele>104.80000305176</ele>
        <time>2021-05-18T08:48:46Z</time>
      </trkpt>
      <trkpt lat="43.69191" lon="3.83008">
        <ele>103.40000152588</ele>
        <time>2021-05-18T08:48:48Z</time>
      </trkpt>
      <trkpt lat="43.6923" lon="3.83059">
        <ele>100.19999694824</ele>
        <time>2021-05-18T08:48:55Z</time>
      </trkpt>
      <trkpt lat="43.69246" lon="3.83076">
        <ele>98.400001525879</ele>
        <time>2021-05-18T08:48:58Z</time>
      </trkpt>
      <trkpt lat="43.69253" lon="3.83089">
        <ele>98</ele>
        <time>2021-05-18T08:49:00Z</time>
      </trkpt>
      <trkpt lat="43.69255" lon="3.83094">
        <ele>98</ele>
        <time>2021-05-18T08:49:01Z</time>
      </trkpt>
      <trkpt lat="43.69272" lon="3.8315">
        <ele>99.199996948242</ele>
        <time>2021-05-18T08:49:13Z</time>
      </trkpt>
      <trkpt lat="43.69241" lon="3.83185">
        <ele>98</ele>
        <time>2021-05-18T08:49:24Z</time>
      </trkpt>
      <trkpt lat="43.69223" lon="3.83202">
        <ele>97</ele>
        <time>2021-05-18T08:49:29Z</time>
      </trkpt>
      <trkpt lat="43.69221" lon="3.83208">
        <ele>96.800003051758</ele>
        <time>2021-05-18T08:49:30Z</time>
      </trkpt>
      <trkpt lat="43.69219" lon="3.83215">
        <ele>96.599998474121</ele>
        <time>2021-05-18T08:49:31Z</time>
      </trkpt>
      <trkpt lat="43.69215" lon="3.83237">
        <ele>95.599998474121</ele>
        <time>2021-05-18T08:49:34Z</time>
      </trkpt>
      <trkpt lat="43.69215" lon="3.83245">
        <ele>95.400001525879</ele>
        <time>2021-05-18T08:49:35Z</time>
      </trkpt>
      <trkpt lat="43.69218" lon="3.83276">
        <ele>94.599998474121</ele>
        <time>2021-05-18T08:49:39Z</time>
      </trkpt>
      <trkpt lat="43.69221" lon="3.83282">
        <ele>94.400001525879</ele>
        <time>2021-05-18T08:49:40Z</time>
      </trkpt>
      <trkpt lat="43.69224" lon="3.83287">
        <ele>94.400001525879</ele>
        <time>2021-05-18T08:49:41Z</time>
      </trkpt>
      <trkpt lat="43.69228" lon="3.83291">
        <ele>94.199996948242</ele>
        <time>2021-05-18T08:49:42Z</time>
      </trkpt>
      <trkpt lat="43.69231" lon="3.83295">
        <ele>94</ele>
        <time>2021-05-18T08:49:43Z</time>
      </trkpt>
      <trkpt lat="43.6924" lon="3.83307">
        <ele>93.599998474121</ele>
        <time>2021-05-18T08:49:46Z</time>
      </trkpt>
      <trkpt lat="43.69244" lon="3.8331">
        <ele>93.599998474121</ele>
        <time>2021-05-18T08:49:47Z</time>
      </trkpt>
      <trkpt lat="43.69247" lon="3.83312">
        <ele>93.599998474121</ele>
        <time>2021-05-18T08:49:48Z</time>
      </trkpt>
      <trkpt lat="43.6925" lon="3.83314">
        <ele>93.599998474121</ele>
        <time>2021-05-18T08:49:49Z</time>
      </trkpt>
      <trkpt lat="43.69253" lon="3.83314">
        <ele>93.599998474121</ele>
        <time>2021-05-18T08:49:50Z</time>
      </trkpt>
      <trkpt lat="43.69256" lon="3.83314">
        <ele>93.599998474121</ele>
        <time>2021-05-18T08:49:51Z</time>
      </trkpt>
      <trkpt lat="43.69258" lon="3.83314">
        <ele>93.599998474121</ele>
        <time>2021-05-18T08:49:52Z</time>
      </trkpt>
      <trkpt lat="43.6926" lon="3.83314">
        <ele>93.599998474121</ele>
        <time>2021-05-18T08:49:53Z</time>
      </trkpt>
      <trkpt lat="43.69263" lon="3.83314">
        <ele>93.800003051758</ele>
        <time>2021-05-18T08:49:54Z</time>
      </trkpt>
      <trkpt lat="43.69302" lon="3.83301">
        <ele>95.800003051758</ele>
        <time>2021-05-18T08:50:08Z</time>
      </trkpt>
      <trkpt lat="43.69354" lon="3.83319">
        <ele>96</ele>
        <time>2021-05-18T08:50:24Z</time>
      </trkpt>
      <trkpt lat="43.69389" lon="3.83336">
        <ele>96</ele>
        <time>2021-05-18T08:50:35Z</time>
      </trkpt>
      <trkpt lat="43.6939" lon="3.8334">
        <ele>96</ele>
        <time>2021-05-18T08:50:36Z</time>
      </trkpt>
      <trkpt lat="43.6939" lon="3.83344">
        <ele>96</ele>
        <time>2021-05-18T08:50:37Z</time>
      </trkpt>
      <trkpt lat="43.69388" lon="3.83348">
        <ele>96.199996948242</ele>
        <time>2021-05-18T08:50:38Z</time>
      </trkpt>
      <trkpt lat="43.69386" lon="3.83351">
        <ele>96.199996948242</ele>
        <time>2021-05-18T08:50:39Z</time>
      </trkpt>
      <trkpt lat="43.69383" lon="3.83355">
        <ele>96.199996948242</ele>
        <time>2021-05-18T08:50:40Z</time>
      </trkpt>
      <trkpt lat="43.69381" lon="3.83357">
        <ele>96.199996948242</ele>
        <time>2021-05-18T08:50:41Z</time>
      </trkpt>
      <trkpt lat="43.69378" lon="3.8336">
        <ele>96.199996948242</ele>
        <time>2021-05-18T08:50:42Z</time>
      </trkpt>
      <trkpt lat="43.69375" lon="3.83361">
        <ele>96.199996948242</ele>
        <time>2021-05-18T08:50:43Z</time>
      </trkpt>
      <trkpt lat="43.69371" lon="3.83363">
        <ele>96.199996948242</ele>
        <time>2021-05-18T08:50:44Z</time>
      </trkpt>
      <trkpt lat="43.69312" lon="3.83394">
        <ele>98.800003051758</ele>
        <time>2021-05-18T08:51:04Z</time>
      </trkpt>
      <trkpt lat="43.69278" lon="3.83422">
        <ele>98.400001525879</ele>
        <time>2021-05-18T08:51:13Z</time>
      </trkpt>
      <trkpt lat="43.69275" lon="3.83427">
        <ele>98.400001525879</ele>
        <time>2021-05-18T08:51:14Z</time>
      </trkpt>
      <trkpt lat="43.69273" lon="3.83433">
        <ele>98.400001525879</ele>
        <time>2021-05-18T08:51:15Z</time>
      </trkpt>
      <trkpt lat="43.69273" lon="3.8344">
        <ele>98.599998474121</ele>
        <time>2021-05-18T08:51:16Z</time>
      </trkpt>
      <trkpt lat="43.69275" lon="3.83445">
        <ele>98.599998474121</ele>
        <time>2021-05-18T08:51:17Z</time>
      </trkpt>
      <trkpt lat="43.69277" lon="3.8345">
        <ele>98.599998474121</ele>
        <time>2021-05-18T08:51:18Z</time>
      </trkpt>
      <trkpt lat="43.69281" lon="3.83454">
        <ele>98.599998474121</ele>
        <time>2021-05-18T08:51:19Z</time>
      </trkpt>
      <trkpt lat="43.69285" lon="3.83456">
        <ele>98.599998474121</ele>
        <time>2021-05-18T08:51:20Z</time>
      </trkpt>
      <trkpt lat="43.6929" lon="3.83457">
        <ele>98.599998474121</ele>
        <time>2021-05-18T08:51:21Z</time>
      </trkpt>
      <trkpt lat="43.69294" lon="3.83459">
        <ele>98.599998474121</ele>
        <time>2021-05-18T08:51:22Z</time>
      </trkpt>
      <trkpt lat="43.69298" lon="3.83462">
        <ele>98.599998474121</ele>
        <time>2021-05-18T08:51:23Z</time>
      </trkpt>
      <trkpt lat="43.69301" lon="3.83467">
        <ele>98.400001525879</ele>
        <time>2021-05-18T08:51:24Z</time>
      </trkpt>
      <trkpt lat="43.69303" lon="3.83473">
        <ele>98.400001525879</ele>
        <time>2021-05-18T08:51:25Z</time>
      </trkpt>
      <trkpt lat="43.69302" lon="3.83478">
        <ele>98.199996948242</ele>
        <time>2021-05-18T08:51:26Z</time>
      </trkpt>
      <trkpt lat="43.69301" lon="3.83483">
        <ele>98</ele>
        <time>2021-05-18T08:51:27Z</time>
      </trkpt>
      <trkpt lat="43.693" lon="3.83486">
        <ele>97.599998474121</ele>
        <time>2021-05-18T08:51:28Z</time>
      </trkpt>
      <trkpt lat="43.69299" lon="3.83488">
        <ele>97.400001525879</ele>
        <time>2021-05-18T08:51:29Z</time>
      </trkpt>
      <trkpt lat="43.69297" lon="3.83488">
        <ele>97.599998474121</ele>
        <time>2021-05-18T08:51:34Z</time>
      </trkpt>
      <trkpt lat="43.69294" lon="3.83496">
        <ele>98</ele>
        <time>2021-05-18T08:51:50Z</time>
      </trkpt>
      <trkpt lat="43.69302" lon="3.83538">
        <ele>97.599998474121</ele>
        <time>2021-05-18T08:52:01Z</time>
      </trkpt>
      <trkpt lat="43.69342" lon="3.83532">
        <ele>98.199996948242</ele>
        <time>2021-05-18T08:52:12Z</time>
      </trkpt>
      <trkpt lat="43.69417" lon="3.83494">
        <ele>99.400001525879</ele>
        <time>2021-05-18T08:52:32Z</time>
      </trkpt>
      <trkpt lat="43.69472" lon="3.83447">
        <ele>101.19999694824</ele>
        <time>2021-05-18T08:52:49Z</time>
      </trkpt>
      <trkpt lat="43.69526" lon="3.83433">
        <ele>102.80000305176</ele>
        <time>2021-05-18T08:53:03Z</time>
      </trkpt>
      <trkpt lat="43.6953" lon="3.83434">
        <ele>102.80000305176</ele>
        <time>2021-05-18T08:53:04Z</time>
      </trkpt>
      <trkpt lat="43.69539" lon="3.83436">
        <ele>102.80000305176</ele>
        <time>2021-05-18T08:53:06Z</time>
      </trkpt>
      <trkpt lat="43.69544" lon="3.83436">
        <ele>103</ele>
        <time>2021-05-18T08:53:07Z</time>
      </trkpt>
      <trkpt lat="43.69629" lon="3.8344">
        <ele>105.19999694824</ele>
        <time>2021-05-18T08:53:22Z</time>
      </trkpt>
      <trkpt lat="43.69664" lon="3.83439">
        <ele>107.40000152588</ele>
        <time>2021-05-18T08:53:29Z</time>
      </trkpt>
      <trkpt lat="43.69711" lon="3.83443">
        <ele>110.59999847412</ele>
        <time>2021-05-18T08:53:41Z</time>
      </trkpt>
      <trkpt lat="43.69784" lon="3.83443">
        <ele>113.40000152588</ele>
        <time>2021-05-18T08:54:00Z</time>
      </trkpt>
      <trkpt lat="43.69827" lon="3.83448">
        <ele>116.59999847412</ele>
        <time>2021-05-18T08:54:11Z</time>
      </trkpt>
      <trkpt lat="43.69864" lon="3.8345">
        <ele>119.59999847412</ele>
        <time>2021-05-18T08:54:21Z</time>
      </trkpt>
      <trkpt lat="43.69908" lon="3.83449">
        <ele>122.80000305176</ele>
        <time>2021-05-18T08:54:32Z</time>
      </trkpt>
      <trkpt lat="43.69958" lon="3.83459">
        <ele>125.80000305176</ele>
        <time>2021-05-18T08:54:45Z</time>
      </trkpt>
      <trkpt lat="43.70002" lon="3.8344">
        <ele>128.39999389648</ele>
        <time>2021-05-18T08:54:58Z</time>
      </trkpt>
      <trkpt lat="43.70047" lon="3.83413">
        <ele>129.19999694824</ele>
        <time>2021-05-18T08:55:15Z</time>
      </trkpt>
      <trkpt lat="43.7005" lon="3.83412">
        <ele>129.19999694824</ele>
        <time>2021-05-18T08:55:17Z</time>
      </trkpt>
      <trkpt lat="43.70051" lon="3.8341">
        <ele>129.19999694824</ele>
        <time>2021-05-18T08:55:18Z</time>
      </trkpt>
      <trkpt lat="43.70051" lon="3.83408">
        <ele>129.19999694824</ele>
        <time>2021-05-18T08:55:19Z</time>
      </trkpt>
      <trkpt lat="43.70051" lon="3.83407">
        <ele>129.19999694824</ele>
        <time>2021-05-18T08:55:20Z</time>
      </trkpt>
      <trkpt lat="43.70051" lon="3.83405">
        <ele>129.19999694824</ele>
        <time>2021-05-18T08:55:25Z</time>
      </trkpt>
      <trkpt lat="43.70053" lon="3.83397">
        <ele>127</ele>
        <time>2021-05-18T08:58:51Z</time>
      </trkpt>
      <trkpt lat="43.70055" lon="3.83394">
        <ele>126.80000305176</ele>
        <time>2021-05-18T08:58:52Z</time>
      </trkpt>
      <trkpt lat="43.70057" lon="3.8339">
        <ele>126.80000305176</ele>
        <time>2021-05-18T08:58:53Z</time>
      </trkpt>
      <trkpt lat="43.7007" lon="3.83335">
        <ele>126</ele>
        <time>2021-05-18T08:59:06Z</time>
      </trkpt>
      <trkpt lat="43.70069" lon="3.83304">
        <ele>125.80000305176</ele>
        <time>2021-05-18T08:59:12Z</time>
      </trkpt>
      <trkpt lat="43.70068" lon="3.83298">
        <ele>125.80000305176</ele>
        <time>2021-05-18T08:59:13Z</time>
      </trkpt>
      <trkpt lat="43.70067" lon="3.83231">
        <ele>125.40000152588</ele>
        <time>2021-05-18T08:59:25Z</time>
      </trkpt>
      <trkpt lat="43.70069" lon="3.83229">
        <ele>125.40000152588</ele>
        <time>2021-05-18T08:59:26Z</time>
      </trkpt>
      <trkpt lat="43.70072" lon="3.83226">
        <ele>125.40000152588</ele>
        <time>2021-05-18T08:59:27Z</time>
      </trkpt>
      <trkpt lat="43.70077" lon="3.83224">
        <ele>125.40000152588</ele>
        <time>2021-05-18T08:59:28Z</time>
      </trkpt>
      <trkpt lat="43.70082" lon="3.83223">
        <ele>125.40000152588</ele>
        <time>2021-05-18T08:59:29Z</time>
      </trkpt>
      <trkpt lat="43.70087" lon="3.83223">
        <ele>125</ele>
        <time>2021-05-18T08:59:30Z</time>
      </trkpt>
      <trkpt lat="43.70093" lon="3.83222">
        <ele>124.59999847412</ele>
        <time>2021-05-18T08:59:31Z</time>
      </trkpt>
      <trkpt lat="43.70104" lon="3.83223">
        <ele>124</ele>
        <time>2021-05-18T08:59:33Z</time>
      </trkpt>
      <trkpt lat="43.7011" lon="3.83225">
        <ele>123.80000305176</ele>
        <time>2021-05-18T08:59:34Z</time>
      </trkpt>
      <trkpt lat="43.70115" lon="3.83228">
        <ele>123.40000152588</ele>
        <time>2021-05-18T08:59:35Z</time>
      </trkpt>
      <trkpt lat="43.7012" lon="3.83231">
        <ele>123.19999694824</ele>
        <time>2021-05-18T08:59:36Z</time>
      </trkpt>
      <trkpt lat="43.70125" lon="3.83235">
        <ele>122.80000305176</ele>
        <time>2021-05-18T08:59:37Z</time>
      </trkpt>
      <trkpt lat="43.7013" lon="3.8324">
        <ele>122.40000152588</ele>
        <time>2021-05-18T08:59:38Z</time>
      </trkpt>
      <trkpt lat="43.70142" lon="3.83253">
        <ele>122.19999694824</ele>
        <time>2021-05-18T08:59:41Z</time>
      </trkpt>
      <trkpt lat="43.70187" lon="3.8328">
        <ele>124.80000305176</ele>
        <time>2021-05-18T08:59:54Z</time>
      </trkpt>
      <trkpt lat="43.70231" lon="3.83293">
        <ele>128</ele>
        <time>2021-05-18T09:00:07Z</time>
      </trkpt>
      <trkpt lat="43.70268" lon="3.83317">
        <ele>130.60000610352</ele>
        <time>2021-05-18T09:00:21Z</time>
      </trkpt>
      <trkpt lat="43.70273" lon="3.83317">
        <ele>130.80000305176</ele>
        <time>2021-05-18T09:00:23Z</time>
      </trkpt>
      <trkpt lat="43.70276" lon="3.83314">
        <ele>130.80000305176</ele>
        <time>2021-05-18T09:00:24Z</time>
      </trkpt>
      <trkpt lat="43.70278" lon="3.83311">
        <ele>130.80000305176</ele>
        <time>2021-05-18T09:00:25Z</time>
      </trkpt>
      <trkpt lat="43.7028" lon="3.83308">
        <ele>131</ele>
        <time>2021-05-18T09:00:26Z</time>
      </trkpt>
      <trkpt lat="43.70281" lon="3.83305">
        <ele>131</ele>
        <time>2021-05-18T09:00:27Z</time>
      </trkpt>
      <trkpt lat="43.70282" lon="3.83301">
        <ele>131.19999694824</ele>
        <time>2021-05-18T09:00:28Z</time>
      </trkpt>
      <trkpt lat="43.70282" lon="3.83297">
        <ele>131.39999389648</ele>
        <time>2021-05-18T09:00:29Z</time>
      </trkpt>
      <trkpt lat="43.70283" lon="3.83293">
        <ele>131.39999389648</ele>
        <time>2021-05-18T09:00:30Z</time>
      </trkpt>
      <trkpt lat="43.70283" lon="3.8329">
        <ele>131.60000610352</ele>
        <time>2021-05-18T09:00:31Z</time>
      </trkpt>
      <trkpt lat="43.70301" lon="3.83257">
        <ele>133.19999694824</ele>
        <time>2021-05-18T09:00:44Z</time>
      </trkpt>
      <trkpt lat="43.70327" lon="3.83222">
        <ele>133.19999694824</ele>
        <time>2021-05-18T09:00:56Z</time>
      </trkpt>
      <trkpt lat="43.70344" lon="3.83205">
        <ele>133</ele>
        <time>2021-05-18T09:01:06Z</time>
      </trkpt>
      <trkpt lat="43.70345" lon="3.83203">
        <ele>133.19999694824</ele>
        <time>2021-05-18T09:01:07Z</time>
      </trkpt>
      <trkpt lat="43.70347" lon="3.83201">
        <ele>133.19999694824</ele>
        <time>2021-05-18T09:01:08Z</time>
      </trkpt>
      <trkpt lat="43.7035" lon="3.8319">
        <ele>132.60000610352</ele>
        <time>2021-05-18T09:01:13Z</time>
      </trkpt>
      <trkpt lat="43.70349" lon="3.83188">
        <ele>132.60000610352</ele>
        <time>2021-05-18T09:01:14Z</time>
      </trkpt>
      <trkpt lat="43.70348" lon="3.83186">
        <ele>132.39999389648</ele>
        <time>2021-05-18T09:01:15Z</time>
      </trkpt>
      <trkpt lat="43.70331" lon="3.83159">
        <ele>131</ele>
        <time>2021-05-18T09:01:29Z</time>
      </trkpt>
      <trkpt lat="43.70333" lon="3.83133">
        <ele>130.19999694824</ele>
        <time>2021-05-18T09:01:40Z</time>
      </trkpt>
      <trkpt lat="43.70332" lon="3.8313">
        <ele>130.19999694824</ele>
        <time>2021-05-18T09:01:41Z</time>
      </trkpt>
      <trkpt lat="43.70334" lon="3.83095">
        <ele>128.80000305176</ele>
        <time>2021-05-18T09:01:51Z</time>
      </trkpt>
      <trkpt lat="43.70341" lon="3.83061">
        <ele>127.40000152588</ele>
        <time>2021-05-18T09:01:58Z</time>
      </trkpt>
      <trkpt lat="43.70339" lon="3.83028">
        <ele>126.40000152588</ele>
        <time>2021-05-18T09:02:04Z</time>
      </trkpt>
      <trkpt lat="43.70337" lon="3.83015">
        <ele>126</ele>
        <time>2021-05-18T09:02:06Z</time>
      </trkpt>
      <trkpt lat="43.70337" lon="3.82999">
        <ele>125.40000152588</ele>
        <time>2021-05-18T09:02:08Z</time>
      </trkpt>
      <trkpt lat="43.70346" lon="3.82941">
        <ele>122.19999694824</ele>
        <time>2021-05-18T09:02:16Z</time>
      </trkpt>
      <trkpt lat="43.70348" lon="3.82935">
        <ele>122</ele>
        <time>2021-05-18T09:02:17Z</time>
      </trkpt>
      <trkpt lat="43.7035" lon="3.82928">
        <ele>121.59999847412</ele>
        <time>2021-05-18T09:02:18Z</time>
      </trkpt>
      <trkpt lat="43.70352" lon="3.82923">
        <ele>121.40000152588</ele>
        <time>2021-05-18T09:02:19Z</time>
      </trkpt>
      <trkpt lat="43.70354" lon="3.82917">
        <ele>121</ele>
        <time>2021-05-18T09:02:20Z</time>
      </trkpt>
      <trkpt lat="43.70358" lon="3.82904">
        <ele>120.59999847412</ele>
        <time>2021-05-18T09:02:22Z</time>
      </trkpt>
      <trkpt lat="43.70363" lon="3.82887">
        <ele>120</ele>
        <time>2021-05-18T09:02:25Z</time>
      </trkpt>
      <trkpt lat="43.70377" lon="3.82855">
        <ele>118</ele>
        <time>2021-05-18T09:02:36Z</time>
      </trkpt>
      <trkpt lat="43.70379" lon="3.82852">
        <ele>117.80000305176</ele>
        <time>2021-05-18T09:02:38Z</time>
      </trkpt>
      <trkpt lat="43.70379" lon="3.8285">
        <ele>117.59999847412</ele>
        <time>2021-05-18T09:02:39Z</time>
      </trkpt>
      <trkpt lat="43.70377" lon="3.8285">
        <ele>117.59999847412</ele>
        <time>2021-05-18T09:02:40Z</time>
      </trkpt>
      <trkpt lat="43.70374" lon="3.8285">
        <ele>117.40000152588</ele>
        <time>2021-05-18T09:02:41Z</time>
      </trkpt>
      <trkpt lat="43.70372" lon="3.8285">
        <ele>117.40000152588</ele>
        <time>2021-05-18T09:02:42Z</time>
      </trkpt>
      <trkpt lat="43.70337" lon="3.82834">
        <ele>116.40000152588</ele>
        <time>2021-05-18T09:02:53Z</time>
      </trkpt>
      <trkpt lat="43.70312" lon="3.82817">
        <ele>116</ele>
        <time>2021-05-18T09:03:04Z</time>
      </trkpt>
      <trkpt lat="43.7029" lon="3.82787">
        <ele>115.19999694824</ele>
        <time>2021-05-18T09:03:11Z</time>
      </trkpt>
      <trkpt lat="43.70277" lon="3.82765">
        <ele>114.59999847412</ele>
        <time>2021-05-18T09:03:16Z</time>
      </trkpt>
      <trkpt lat="43.70267" lon="3.82747">
        <ele>113.59999847412</ele>
        <time>2021-05-18T09:03:20Z</time>
      </trkpt>
      <trkpt lat="43.70262" lon="3.82728">
        <ele>113.19999694824</ele>
        <time>2021-05-18T09:03:23Z</time>
      </trkpt>
      <trkpt lat="43.70258" lon="3.82723">
        <ele>113</ele>
        <time>2021-05-18T09:03:24Z</time>
      </trkpt>
      <trkpt lat="43.70253" lon="3.8272">
        <ele>112.80000305176</ele>
        <time>2021-05-18T09:03:25Z</time>
      </trkpt>
      <trkpt lat="43.70248" lon="3.82717">
        <ele>112.80000305176</ele>
        <time>2021-05-18T09:03:26Z</time>
      </trkpt>
      <trkpt lat="43.70242" lon="3.82715">
        <ele>112.59999847412</ele>
        <time>2021-05-18T09:03:27Z</time>
      </trkpt>
      <trkpt lat="43.70154" lon="3.82672">
        <ele>111.59999847412</ele>
        <time>2021-05-18T09:03:45Z</time>
      </trkpt>
      <trkpt lat="43.70128" lon="3.82659">
        <ele>111.80000305176</ele>
        <time>2021-05-18T09:03:51Z</time>
      </trkpt>
      <trkpt lat="43.70125" lon="3.82655">
        <ele>112</ele>
        <time>2021-05-18T09:03:52Z</time>
      </trkpt>
      <trkpt lat="43.70123" lon="3.82652">
        <ele>112</ele>
        <time>2021-05-18T09:03:53Z</time>
      </trkpt>
      <trkpt lat="43.70121" lon="3.82648">
        <ele>112.19999694824</ele>
        <time>2021-05-18T09:03:54Z</time>
      </trkpt>
      <trkpt lat="43.70121" lon="3.82644">
        <ele>112.19999694824</ele>
        <time>2021-05-18T09:03:55Z</time>
      </trkpt>
      <trkpt lat="43.7012" lon="3.82639">
        <ele>112.59999847412</ele>
        <time>2021-05-18T09:03:56Z</time>
      </trkpt>
      <trkpt lat="43.70119" lon="3.82634">
        <ele>112.80000305176</ele>
        <time>2021-05-18T09:03:57Z</time>
      </trkpt>
      <trkpt lat="43.70118" lon="3.82629">
        <ele>113</ele>
        <time>2021-05-18T09:03:58Z</time>
      </trkpt>
      <trkpt lat="43.70116" lon="3.82623">
        <ele>113</ele>
        <time>2021-05-18T09:03:59Z</time>
      </trkpt>
      <trkpt lat="43.70113" lon="3.82618">
        <ele>113.19999694824</ele>
        <time>2021-05-18T09:04:00Z</time>
      </trkpt>
      <trkpt lat="43.7011" lon="3.82614">
        <ele>113.19999694824</ele>
        <time>2021-05-18T09:04:01Z</time>
      </trkpt>
      <trkpt lat="43.70106" lon="3.8261">
        <ele>113.19999694824</ele>
        <time>2021-05-18T09:04:02Z</time>
      </trkpt>
      <trkpt lat="43.70102" lon="3.82607">
        <ele>113.40000152588</ele>
        <time>2021-05-18T09:04:03Z</time>
      </trkpt>
      <trkpt lat="43.70098" lon="3.82604">
        <ele>113.40000152588</ele>
        <time>2021-05-18T09:04:04Z</time>
      </trkpt>
      <trkpt lat="43.70073" lon="3.82579">
        <ele>113.40000152588</ele>
        <time>2021-05-18T09:04:11Z</time>
      </trkpt>
      <trkpt lat="43.70069" lon="3.82577">
        <ele>113.59999847412</ele>
        <time>2021-05-18T09:04:12Z</time>
      </trkpt>
      <trkpt lat="43.70058" lon="3.82569">
        <ele>113.59999847412</ele>
        <time>2021-05-18T09:04:15Z</time>
      </trkpt>
      <trkpt lat="43.70054" lon="3.82565">
        <ele>113.59999847412</ele>
        <time>2021-05-18T09:04:16Z</time>
      </trkpt>
      <trkpt lat="43.70036" lon="3.82549">
        <ele>113.80000305176</ele>
        <time>2021-05-18T09:04:26Z</time>
      </trkpt>
      <trkpt lat="43.70034" lon="3.82547">
        <ele>113.80000305176</ele>
        <time>2021-05-18T09:04:28Z</time>
      </trkpt>
      <trkpt lat="43.70028" lon="3.82543">
        <ele>113.80000305176</ele>
        <time>2021-05-18T09:04:31Z</time>
      </trkpt>
      <trkpt lat="43.70025" lon="3.82545">
        <ele>113.80000305176</ele>
        <time>2021-05-18T09:04:32Z</time>
      </trkpt>
      <trkpt lat="43.70022" lon="3.82547">
        <ele>113.80000305176</ele>
        <time>2021-05-18T09:04:33Z</time>
      </trkpt>
      <trkpt lat="43.70012" lon="3.82557">
        <ele>113.80000305176</ele>
        <time>2021-05-18T09:04:36Z</time>
      </trkpt>
      <trkpt lat="43.7001" lon="3.82563">
        <ele>113.80000305176</ele>
        <time>2021-05-18T09:04:37Z</time>
      </trkpt>
      <trkpt lat="43.7001" lon="3.8257">
        <ele>113.80000305176</ele>
        <time>2021-05-18T09:04:38Z</time>
      </trkpt>
      <trkpt lat="43.7001" lon="3.82575">
        <ele>113.80000305176</ele>
        <time>2021-05-18T09:04:39Z</time>
      </trkpt>
      <trkpt lat="43.70011" lon="3.8258">
        <ele>114</ele>
        <time>2021-05-18T09:04:40Z</time>
      </trkpt>
      <trkpt lat="43.70011" lon="3.82585">
        <ele>114</ele>
        <time>2021-05-18T09:04:41Z</time>
      </trkpt>
      <trkpt lat="43.7001" lon="3.82596">
        <ele>114.59999847412</ele>
        <time>2021-05-18T09:04:46Z</time>
      </trkpt>
      <trkpt lat="43.70009" lon="3.82599">
        <ele>114.59999847412</ele>
        <time>2021-05-18T09:04:47Z</time>
      </trkpt>
      <trkpt lat="43.69997" lon="3.82617">
        <ele>116</ele>
        <time>2021-05-18T09:04:56Z</time>
      </trkpt>
      <trkpt lat="43.69996" lon="3.82617">
        <ele>116.19999694824</ele>
        <time>2021-05-18T09:05:01Z</time>
      </trkpt>
      <trkpt lat="43.6999" lon="3.82612">
        <ele>116.40000152588</ele>
        <time>2021-05-18T09:05:15Z</time>
      </trkpt>
      <trkpt lat="43.69957" lon="3.82602">
        <ele>115.59999847412</ele>
        <time>2021-05-18T09:05:26Z</time>
      </trkpt>
      <trkpt lat="43.69955" lon="3.82601">
        <ele>115.59999847412</ele>
        <time>2021-05-18T09:05:27Z</time>
      </trkpt>
      <trkpt lat="43.69953" lon="3.82601">
        <ele>115.59999847412</ele>
        <time>2021-05-18T09:05:28Z</time>
      </trkpt>
      <trkpt lat="43.6995" lon="3.82601">
        <ele>115.59999847412</ele>
        <time>2021-05-18T09:05:29Z</time>
      </trkpt>
      <trkpt lat="43.69947" lon="3.82599">
        <ele>115.59999847412</ele>
        <time>2021-05-18T09:05:30Z</time>
      </trkpt>
      <trkpt lat="43.69945" lon="3.82597">
        <ele>115.59999847412</ele>
        <time>2021-05-18T09:05:31Z</time>
      </trkpt>
      <trkpt lat="43.69942" lon="3.82594">
        <ele>115.59999847412</ele>
        <time>2021-05-18T09:05:32Z</time>
      </trkpt>
      <trkpt lat="43.6994" lon="3.8259">
        <ele>115.80000305176</ele>
        <time>2021-05-18T09:05:33Z</time>
      </trkpt>
      <trkpt lat="43.69937" lon="3.82586">
        <ele>115.80000305176</ele>
        <time>2021-05-18T09:05:34Z</time>
      </trkpt>
      <trkpt lat="43.6993" lon="3.82578">
        <ele>115.80000305176</ele>
        <time>2021-05-18T09:05:36Z</time>
      </trkpt>
      <trkpt lat="43.69927" lon="3.82574">
        <ele>115.80000305176</ele>
        <time>2021-05-18T09:05:37Z</time>
      </trkpt>
      <trkpt lat="43.69892" lon="3.82544">
        <ele>115.80000305176</ele>
        <time>2021-05-18T09:05:47Z</time>
      </trkpt>
      <trkpt lat="43.69888" lon="3.82543">
        <ele>115.80000305176</ele>
        <time>2021-05-18T09:05:48Z</time>
      </trkpt>
      <trkpt lat="43.69881" lon="3.8254">
        <ele>115.80000305176</ele>
        <time>2021-05-18T09:05:50Z</time>
      </trkpt>
      <trkpt lat="43.6988" lon="3.82537">
        <ele>115.80000305176</ele>
        <time>2021-05-18T09:05:51Z</time>
      </trkpt>
      <trkpt lat="43.69887" lon="3.82526">
        <ele>116.40000152588</ele>
        <time>2021-05-18T09:05:54Z</time>
      </trkpt>
      <trkpt lat="43.69949" lon="3.82439">
        <ele>116</ele>
        <time>2021-05-18T09:06:11Z</time>
      </trkpt>
      <trkpt lat="43.70006" lon="3.82337">
        <ele>116.80000305176</ele>
        <time>2021-05-18T09:06:30Z</time>
      </trkpt>
      <trkpt lat="43.70066" lon="3.82214">
        <ele>117.19999694824</ele>
        <time>2021-05-18T09:06:51Z</time>
      </trkpt>
      <trkpt lat="43.70129" lon="3.82118">
        <ele>115</ele>
        <time>2021-05-18T09:07:08Z</time>
      </trkpt>
      <trkpt lat="43.70145" lon="3.82099">
        <ele>114.80000305176</ele>
        <time>2021-05-18T09:07:12Z</time>
      </trkpt>
      <trkpt lat="43.70223" lon="3.8203">
        <ele>114.19999694824</ele>
        <time>2021-05-18T09:07:30Z</time>
      </trkpt>
      <trkpt lat="43.70258" lon="3.82004">
        <ele>116.40000152588</ele>
        <time>2021-05-18T09:07:44Z</time>
      </trkpt>
      <trkpt lat="43.70278" lon="3.81996">
        <ele>116</ele>
        <time>2021-05-18T09:07:52Z</time>
      </trkpt>
      <trkpt lat="43.70281" lon="3.81998">
        <ele>115.80000305176</ele>
        <time>2021-05-18T09:07:53Z</time>
      </trkpt>
      <trkpt lat="43.70284" lon="3.82001">
        <ele>115.59999847412</ele>
        <time>2021-05-18T09:07:54Z</time>
      </trkpt>
      <trkpt lat="43.70345" lon="3.82068">
        <ele>113.80000305176</ele>
        <time>2021-05-18T09:08:09Z</time>
      </trkpt>
      <trkpt lat="43.7035" lon="3.82071">
        <ele>113.80000305176</ele>
        <time>2021-05-18T09:08:10Z</time>
      </trkpt>
      <trkpt lat="43.70355" lon="3.82074">
        <ele>113.80000305176</ele>
        <time>2021-05-18T09:08:11Z</time>
      </trkpt>
      <trkpt lat="43.70361" lon="3.82076">
        <ele>113.80000305176</ele>
        <time>2021-05-18T09:08:12Z</time>
      </trkpt>
      <trkpt lat="43.70366" lon="3.82078">
        <ele>113.59999847412</ele>
        <time>2021-05-18T09:08:13Z</time>
      </trkpt>
      <trkpt lat="43.70457" lon="3.82118">
        <ele>113.59999847412</ele>
        <time>2021-05-18T09:08:31Z</time>
      </trkpt>
      <trkpt lat="43.70548" lon="3.82205">
        <ele>111.59999847412</ele>
        <time>2021-05-18T09:08:50Z</time>
      </trkpt>
      <trkpt lat="43.70626" lon="3.8226">
        <ele>108.80000305176</ele>
        <time>2021-05-18T09:09:03Z</time>
      </trkpt>
      <trkpt lat="43.70631" lon="3.82266">
        <ele>108.80000305176</ele>
        <time>2021-05-18T09:09:04Z</time>
      </trkpt>
      <trkpt lat="43.70635" lon="3.82271">
        <ele>108.59999847412</ele>
        <time>2021-05-18T09:09:05Z</time>
      </trkpt>
      <trkpt lat="43.70695" lon="3.82342">
        <ele>107.59999847412</ele>
        <time>2021-05-18T09:09:20Z</time>
      </trkpt>
      <trkpt lat="43.70699" lon="3.82346">
        <ele>107.59999847412</ele>
        <time>2021-05-18T09:09:21Z</time>
      </trkpt>
      <trkpt lat="43.70702" lon="3.82351">
        <ele>107.59999847412</ele>
        <time>2021-05-18T09:09:22Z</time>
      </trkpt>
      <trkpt lat="43.70704" lon="3.82355">
        <ele>107.80000305176</ele>
        <time>2021-05-18T09:09:23Z</time>
      </trkpt>
      <trkpt lat="43.70705" lon="3.8241">
        <ele>107.80000305176</ele>
        <time>2021-05-18T09:09:35Z</time>
      </trkpt>
      <trkpt lat="43.70701" lon="3.82426">
        <ele>108</ele>
        <time>2021-05-18T09:09:39Z</time>
      </trkpt>
      <trkpt lat="43.70703" lon="3.82428">
        <ele>108</ele>
        <time>2021-05-18T09:09:40Z</time>
      </trkpt>
      <trkpt lat="43.70706" lon="3.82427">
        <ele>108</ele>
        <time>2021-05-18T09:09:41Z</time>
      </trkpt>
      <trkpt lat="43.70708" lon="3.82425">
        <ele>108.19999694824</ele>
        <time>2021-05-18T09:09:42Z</time>
      </trkpt>
      <trkpt lat="43.70711" lon="3.82423">
        <ele>108.19999694824</ele>
        <time>2021-05-18T09:09:43Z</time>
      </trkpt>
      <trkpt lat="43.70713" lon="3.82421">
        <ele>108.40000152588</ele>
        <time>2021-05-18T09:09:44Z</time>
      </trkpt>
      <trkpt lat="43.70734" lon="3.82397">
        <ele>109.19999694824</ele>
        <time>2021-05-18T09:09:54Z</time>
      </trkpt>
      <trkpt lat="43.70756" lon="3.82387">
        <ele>108.80000305176</ele>
        <time>2021-05-18T09:10:00Z</time>
      </trkpt>
      <trkpt lat="43.70817" lon="3.82352">
        <ele>108.19999694824</ele>
        <time>2021-05-18T09:10:16Z</time>
      </trkpt>
      <trkpt lat="43.70842" lon="3.82327">
        <ele>108</ele>
        <time>2021-05-18T09:10:24Z</time>
      </trkpt>
      <trkpt lat="43.70846" lon="3.82324">
        <ele>108</ele>
        <time>2021-05-18T09:10:25Z</time>
      </trkpt>
      <trkpt lat="43.70849" lon="3.82321">
        <ele>108</ele>
        <time>2021-05-18T09:10:26Z</time>
      </trkpt>
      <trkpt lat="43.70857" lon="3.82315">
        <ele>107.80000305176</ele>
        <time>2021-05-18T09:10:28Z</time>
      </trkpt>
      <trkpt lat="43.70861" lon="3.82314">
        <ele>107.19999694824</ele>
        <time>2021-05-18T09:10:29Z</time>
      </trkpt>
      <trkpt lat="43.70866" lon="3.82313">
        <ele>107</ele>
        <time>2021-05-18T09:10:30Z</time>
      </trkpt>
      <trkpt lat="43.70872" lon="3.82314">
        <ele>106.80000305176</ele>
        <time>2021-05-18T09:10:31Z</time>
      </trkpt>
      <trkpt lat="43.70878" lon="3.82315">
        <ele>106.40000152588</ele>
        <time>2021-05-18T09:10:32Z</time>
      </trkpt>
      <trkpt lat="43.70884" lon="3.82317">
        <ele>106.19999694824</ele>
        <time>2021-05-18T09:10:33Z</time>
      </trkpt>
      <trkpt lat="43.70945" lon="3.82327">
        <ele>104.40000152588</ele>
        <time>2021-05-18T09:10:46Z</time>
      </trkpt>
      <trkpt lat="43.70973" lon="3.82327">
        <ele>104.40000152588</ele>
        <time>2021-05-18T09:10:57Z</time>
      </trkpt>
      <trkpt lat="43.71002" lon="3.82335">
        <ele>104.19999694824</ele>
        <time>2021-05-18T09:11:07Z</time>
      </trkpt>
      <trkpt lat="43.71037" lon="3.82336">
        <ele>104.40000152588</ele>
        <time>2021-05-18T09:11:18Z</time>
      </trkpt>
      <trkpt lat="43.71051" lon="3.82334">
        <ele>104.59999847412</ele>
        <time>2021-05-18T09:11:22Z</time>
      </trkpt>
      <trkpt lat="43.71055" lon="3.82335">
        <ele>104.59999847412</ele>
        <time>2021-05-18T09:11:23Z</time>
      </trkpt>
      <trkpt lat="43.71059" lon="3.82336">
        <ele>104.59999847412</ele>
        <time>2021-05-18T09:11:24Z</time>
      </trkpt>
      <trkpt lat="43.71098" lon="3.82348">
        <ele>104.59999847412</ele>
        <time>2021-05-18T09:11:34Z</time>
      </trkpt>
      <trkpt lat="43.7111" lon="3.82353">
        <ele>104.40000152588</ele>
        <time>2021-05-18T09:11:37Z</time>
      </trkpt>
      <trkpt lat="43.71114" lon="3.82356">
        <ele>104.40000152588</ele>
        <time>2021-05-18T09:11:38Z</time>
      </trkpt>
      <trkpt lat="43.71125" lon="3.82365">
        <ele>104.40000152588</ele>
        <time>2021-05-18T09:11:41Z</time>
      </trkpt>
      <trkpt lat="43.71133" lon="3.82371">
        <ele>104.40000152588</ele>
        <time>2021-05-18T09:11:43Z</time>
      </trkpt>
      <trkpt lat="43.71137" lon="3.82372">
        <ele>104.40000152588</ele>
        <time>2021-05-18T09:11:44Z</time>
      </trkpt>
      <trkpt lat="43.71141" lon="3.82373">
        <ele>104.40000152588</ele>
        <time>2021-05-18T09:11:45Z</time>
      </trkpt>
      <trkpt lat="43.71143" lon="3.82375">
        <ele>104.40000152588</ele>
        <time>2021-05-18T09:11:46Z</time>
      </trkpt>
      <trkpt lat="43.71145" lon="3.82377">
        <ele>104.40000152588</ele>
        <time>2021-05-18T09:11:47Z</time>
      </trkpt>
      <trkpt lat="43.71146" lon="3.82379">
        <ele>104.59999847412</ele>
        <time>2021-05-18T09:11:48Z</time>
      </trkpt>
      <trkpt lat="43.71149" lon="3.82381">
        <ele>104.59999847412</ele>
        <time>2021-05-18T09:11:49Z</time>
      </trkpt>
      <trkpt lat="43.71152" lon="3.82382">
        <ele>104.40000152588</ele>
        <time>2021-05-18T09:11:50Z</time>
      </trkpt>
      <trkpt lat="43.71213" lon="3.82423">
        <ele>103.80000305176</ele>
        <time>2021-05-18T09:12:05Z</time>
      </trkpt>
      <trkpt lat="43.71279" lon="3.82462">
        <ele>102.40000152588</ele>
        <time>2021-05-18T09:12:20Z</time>
      </trkpt>
      <trkpt lat="43.71297" lon="3.82476">
        <ele>102.40000152588</ele>
        <time>2021-05-18T09:12:31Z</time>
      </trkpt>
      <trkpt lat="43.71332" lon="3.82492">
        <ele>102.19999694824</ele>
        <time>2021-05-18T09:12:42Z</time>
      </trkpt>
      <trkpt lat="43.71335" lon="3.82494">
        <ele>102.19999694824</ele>
        <time>2021-05-18T09:12:43Z</time>
      </trkpt>
      <trkpt lat="43.71339" lon="3.82497">
        <ele>102.19999694824</ele>
        <time>2021-05-18T09:12:44Z</time>
      </trkpt>
      <trkpt lat="43.71365" lon="3.82521">
        <ele>102.19999694824</ele>
        <time>2021-05-18T09:12:51Z</time>
      </trkpt>
      <trkpt lat="43.71425" lon="3.82573">
        <ele>102.40000152588</ele>
        <time>2021-05-18T09:13:08Z</time>
      </trkpt>
      <trkpt lat="43.71426" lon="3.82574">
        <ele>102.40000152588</ele>
        <time>2021-05-18T09:13:09Z</time>
      </trkpt>
      <trkpt lat="43.71439" lon="3.82586">
        <ele>103.40000152588</ele>
        <time>2021-05-18T09:13:21Z</time>
      </trkpt>
      <trkpt lat="43.71441" lon="3.82585">
        <ele>103.40000152588</ele>
        <time>2021-05-18T09:13:22Z</time>
      </trkpt>
      <trkpt lat="43.71442" lon="3.82585">
        <ele>103.59999847412</ele>
        <time>2021-05-18T09:13:23Z</time>
      </trkpt>
      <trkpt lat="43.7146" lon="3.82579">
        <ele>103</ele>
        <time>2021-05-18T09:13:31Z</time>
      </trkpt>
      <trkpt lat="43.71462" lon="3.82579">
        <ele>103</ele>
        <time>2021-05-18T09:13:32Z</time>
      </trkpt>
      <trkpt lat="43.71464" lon="3.82579">
        <ele>102.80000305176</ele>
        <time>2021-05-18T09:13:33Z</time>
      </trkpt>
      <trkpt lat="43.71506" lon="3.82571">
        <ele>101.80000305176</ele>
        <time>2021-05-18T09:13:46Z</time>
      </trkpt>
      <trkpt lat="43.71557" lon="3.82565">
        <ele>100.80000305176</ele>
        <time>2021-05-18T09:13:57Z</time>
      </trkpt>
      <trkpt lat="43.71595" lon="3.82573">
        <ele>100.80000305176</ele>
        <time>2021-05-18T09:14:05Z</time>
      </trkpt>
      <trkpt lat="43.71604" lon="3.82578">
        <ele>100.80000305176</ele>
        <time>2021-05-18T09:14:07Z</time>
      </trkpt>
      <trkpt lat="43.71608" lon="3.82582">
        <ele>100.80000305176</ele>
        <time>2021-05-18T09:14:08Z</time>
      </trkpt>
      <trkpt lat="43.71612" lon="3.82588">
        <ele>100.80000305176</ele>
        <time>2021-05-18T09:14:09Z</time>
      </trkpt>
      <trkpt lat="43.71658" lon="3.82692">
        <ele>99.800003051758</ele>
        <time>2021-05-18T09:14:25Z</time>
      </trkpt>
      <trkpt lat="43.71672" lon="3.8273">
        <ele>100.59999847412</ele>
        <time>2021-05-18T09:14:32Z</time>
      </trkpt>
      <trkpt lat="43.71676" lon="3.82735">
        <ele>100.59999847412</ele>
        <time>2021-05-18T09:14:33Z</time>
      </trkpt>
      <trkpt lat="43.7168" lon="3.82739">
        <ele>100.59999847412</ele>
        <time>2021-05-18T09:14:34Z</time>
      </trkpt>
      <trkpt lat="43.71684" lon="3.82743">
        <ele>100.80000305176</ele>
        <time>2021-05-18T09:14:35Z</time>
      </trkpt>
      <trkpt lat="43.71688" lon="3.82746">
        <ele>100.80000305176</ele>
        <time>2021-05-18T09:14:36Z</time>
      </trkpt>
      <trkpt lat="43.71749" lon="3.82789">
        <ele>99.800003051758</ele>
        <time>2021-05-18T09:14:49Z</time>
      </trkpt>
      <trkpt lat="43.71754" lon="3.8279">
        <ele>99.800003051758</ele>
        <time>2021-05-18T09:14:50Z</time>
      </trkpt>
      <trkpt lat="43.7176" lon="3.8279">
        <ele>99.599998474121</ele>
        <time>2021-05-18T09:14:51Z</time>
      </trkpt>
      <trkpt lat="43.71765" lon="3.8279">
        <ele>99.599998474121</ele>
        <time>2021-05-18T09:14:52Z</time>
      </trkpt>
      <trkpt lat="43.71771" lon="3.82789">
        <ele>99.400001525879</ele>
        <time>2021-05-18T09:14:53Z</time>
      </trkpt>
      <trkpt lat="43.71775" lon="3.8279">
        <ele>99.400001525879</ele>
        <time>2021-05-18T09:14:54Z</time>
      </trkpt>
      <trkpt lat="43.71779" lon="3.82791">
        <ele>99.199996948242</ele>
        <time>2021-05-18T09:14:55Z</time>
      </trkpt>
      <trkpt lat="43.71783" lon="3.82792">
        <ele>99</ele>
        <time>2021-05-18T09:14:56Z</time>
      </trkpt>
      <trkpt lat="43.71785" lon="3.82793">
        <ele>99</ele>
        <time>2021-05-18T09:14:57Z</time>
      </trkpt>
      <trkpt lat="43.71787" lon="3.82794">
        <ele>98.800003051758</ele>
        <time>2021-05-18T09:14:58Z</time>
      </trkpt>
      <trkpt lat="43.71788" lon="3.82795">
        <ele>98.800003051758</ele>
        <time>2021-05-18T09:14:59Z</time>
      </trkpt>
      <trkpt lat="43.7179" lon="3.82796">
        <ele>98.800003051758</ele>
        <time>2021-05-18T09:15:00Z</time>
      </trkpt>
      <trkpt lat="43.71796" lon="3.82795">
        <ele>98.599998474121</ele>
        <time>2021-05-18T09:15:03Z</time>
      </trkpt>
      <trkpt lat="43.71798" lon="3.82793">
        <ele>98.599998474121</ele>
        <time>2021-05-18T09:15:04Z</time>
      </trkpt>
      <trkpt lat="43.71799" lon="3.8279">
        <ele>98.599998474121</ele>
        <time>2021-05-18T09:15:05Z</time>
      </trkpt>
      <trkpt lat="43.71802" lon="3.82788">
        <ele>98.599998474121</ele>
        <time>2021-05-18T09:15:06Z</time>
      </trkpt>
      <trkpt lat="43.71804" lon="3.82785">
        <ele>98.599998474121</ele>
        <time>2021-05-18T09:15:07Z</time>
      </trkpt>
      <trkpt lat="43.71808" lon="3.82786">
        <ele>98.599998474121</ele>
        <time>2021-05-18T09:15:08Z</time>
      </trkpt>
      <trkpt lat="43.71811" lon="3.82788">
        <ele>98.599998474121</ele>
        <time>2021-05-18T09:15:09Z</time>
      </trkpt>
      <trkpt lat="43.71813" lon="3.82789">
        <ele>98.599998474121</ele>
        <time>2021-05-18T09:15:10Z</time>
      </trkpt>
      <trkpt lat="43.7183" lon="3.82791">
        <ele>98.599998474121</ele>
        <time>2021-05-18T09:15:15Z</time>
      </trkpt>
      <trkpt lat="43.71833" lon="3.82795">
        <ele>98.599998474121</ele>
        <time>2021-05-18T09:15:16Z</time>
      </trkpt>
      <trkpt lat="43.71837" lon="3.82798">
        <ele>98.599998474121</ele>
        <time>2021-05-18T09:15:17Z</time>
      </trkpt>
      <trkpt lat="43.71863" lon="3.82829">
        <ele>98.599998474121</ele>
        <time>2021-05-18T09:15:24Z</time>
      </trkpt>
      <trkpt lat="43.7187" lon="3.82838">
        <ele>98.800003051758</ele>
        <time>2021-05-18T09:15:26Z</time>
      </trkpt>
      <trkpt lat="43.71952" lon="3.82924">
        <ele>99.599998474121</ele>
        <time>2021-05-18T09:15:48Z</time>
      </trkpt>
      <trkpt lat="43.72016" lon="3.82991">
        <ele>99</ele>
        <time>2021-05-18T09:16:04Z</time>
      </trkpt>
      <trkpt lat="43.72099" lon="3.83079">
        <ele>98.599998474121</ele>
        <time>2021-05-18T09:16:25Z</time>
      </trkpt>
      <trkpt lat="43.72151" lon="3.83158">
        <ele>98.199996948242</ele>
        <time>2021-05-18T09:16:40Z</time>
      </trkpt>
      <trkpt lat="43.72219" lon="3.83236">
        <ele>99.400001525879</ele>
        <time>2021-05-18T09:16:59Z</time>
      </trkpt>
      <trkpt lat="43.72284" lon="3.83308">
        <ele>99.199996948242</ele>
        <time>2021-05-18T09:17:15Z</time>
      </trkpt>
      <trkpt lat="43.72357" lon="3.83389">
        <ele>98.400001525879</ele>
        <time>2021-05-18T09:17:33Z</time>
      </trkpt>
      <trkpt lat="43.72428" lon="3.83464">
        <ele>96.199996948242</ele>
        <time>2021-05-18T09:17:50Z</time>
      </trkpt>
      <trkpt lat="43.7249" lon="3.8353">
        <ele>95</ele>
        <time>2021-05-18T09:18:05Z</time>
      </trkpt>
      <trkpt lat="43.72518" lon="3.83565">
        <ele>94.800003051758</ele>
        <time>2021-05-18T09:18:14Z</time>
      </trkpt>
      <trkpt lat="43.72519" lon="3.83571">
        <ele>94.800003051758</ele>
        <time>2021-05-18T09:18:15Z</time>
      </trkpt>
      <trkpt lat="43.7252" lon="3.83576">
        <ele>94.599998474121</ele>
        <time>2021-05-18T09:18:16Z</time>
      </trkpt>
      <trkpt lat="43.72519" lon="3.83582">
        <ele>94.599998474121</ele>
        <time>2021-05-18T09:18:17Z</time>
      </trkpt>
      <trkpt lat="43.72519" lon="3.83588">
        <ele>94.400001525879</ele>
        <time>2021-05-18T09:18:18Z</time>
      </trkpt>
      <trkpt lat="43.72518" lon="3.83593">
        <ele>94.400001525879</ele>
        <time>2021-05-18T09:18:19Z</time>
      </trkpt>
      <trkpt lat="43.72524" lon="3.83634">
        <ele>94</ele>
        <time>2021-05-18T09:18:29Z</time>
      </trkpt>
      <trkpt lat="43.72529" lon="3.83641">
        <ele>94.599998474121</ele>
        <time>2021-05-18T09:18:39Z</time>
      </trkpt>
      <trkpt lat="43.72534" lon="3.83641">
        <ele>95</ele>
        <time>2021-05-18T09:19:09Z</time>
      </trkpt>
      <trkpt lat="43.72579" lon="3.83613">
        <ele>94.400001525879</ele>
        <time>2021-05-18T09:19:21Z</time>
      </trkpt>
      <trkpt lat="43.72614" lon="3.83585">
        <ele>94.199996948242</ele>
        <time>2021-05-18T09:19:29Z</time>
      </trkpt>
      <trkpt lat="43.72618" lon="3.83579">
        <ele>94</ele>
        <time>2021-05-18T09:19:30Z</time>
      </trkpt>
      <trkpt lat="43.72622" lon="3.83572">
        <ele>94</ele>
        <time>2021-05-18T09:19:31Z</time>
      </trkpt>
      <trkpt lat="43.72625" lon="3.83566">
        <ele>94</ele>
        <time>2021-05-18T09:19:32Z</time>
      </trkpt>
      <trkpt lat="43.72628" lon="3.83558">
        <ele>93.800003051758</ele>
        <time>2021-05-18T09:19:33Z</time>
      </trkpt>
      <trkpt lat="43.7263" lon="3.83551">
        <ele>93.599998474121</ele>
        <time>2021-05-18T09:19:34Z</time>
      </trkpt>
      <trkpt lat="43.72677" lon="3.83426">
        <ele>93.800003051758</ele>
        <time>2021-05-18T09:19:53Z</time>
      </trkpt>
      <trkpt lat="43.72728" lon="3.83338">
        <ele>95.199996948242</ele>
        <time>2021-05-18T09:20:12Z</time>
      </trkpt>
      <trkpt lat="43.72731" lon="3.83339">
        <ele>95.199996948242</ele>
        <time>2021-05-18T09:20:13Z</time>
      </trkpt>
      <trkpt lat="43.72733" lon="3.83342">
        <ele>95.199996948242</ele>
        <time>2021-05-18T09:20:14Z</time>
      </trkpt>
      <trkpt lat="43.72735" lon="3.83346">
        <ele>95.199996948242</ele>
        <time>2021-05-18T09:20:15Z</time>
      </trkpt>
      <trkpt lat="43.72738" lon="3.8335">
        <ele>95.400001525879</ele>
        <time>2021-05-18T09:20:16Z</time>
      </trkpt>
      <trkpt lat="43.72769" lon="3.83397">
        <ele>95.800003051758</ele>
        <time>2021-05-18T09:20:29Z</time>
      </trkpt>
      <trkpt lat="43.72823" lon="3.83475">
        <ele>96.199996948242</ele>
        <time>2021-05-18T09:20:45Z</time>
      </trkpt>
      <trkpt lat="43.72874" lon="3.83548">
        <ele>95</ele>
        <time>2021-05-18T09:20:58Z</time>
      </trkpt>
      <trkpt lat="43.72879" lon="3.83552">
        <ele>95</ele>
        <time>2021-05-18T09:20:59Z</time>
      </trkpt>
      <trkpt lat="43.72884" lon="3.83556">
        <ele>95</ele>
        <time>2021-05-18T09:21:00Z</time>
      </trkpt>
      <trkpt lat="43.7289" lon="3.8356">
        <ele>94.800003051758</ele>
        <time>2021-05-18T09:21:01Z</time>
      </trkpt>
      <trkpt lat="43.72894" lon="3.83565">
        <ele>94.800003051758</ele>
        <time>2021-05-18T09:21:02Z</time>
      </trkpt>
      <trkpt lat="43.72899" lon="3.83571">
        <ele>94.400001525879</ele>
        <time>2021-05-18T09:21:03Z</time>
      </trkpt>
      <trkpt lat="43.72902" lon="3.83577">
        <ele>94</ele>
        <time>2021-05-18T09:21:04Z</time>
      </trkpt>
      <trkpt lat="43.72906" lon="3.83584">
        <ele>93.800003051758</ele>
        <time>2021-05-18T09:21:05Z</time>
      </trkpt>
      <trkpt lat="43.72909" lon="3.83591">
        <ele>93.599998474121</ele>
        <time>2021-05-18T09:21:06Z</time>
      </trkpt>
      <trkpt lat="43.72918" lon="3.83613">
        <ele>93</ele>
        <time>2021-05-18T09:21:09Z</time>
      </trkpt>
      <trkpt lat="43.72919" lon="3.83621">
        <ele>93</ele>
        <time>2021-05-18T09:21:10Z</time>
      </trkpt>
      <trkpt lat="43.7292" lon="3.83629">
        <ele>93</ele>
        <time>2021-05-18T09:21:11Z</time>
      </trkpt>
      <trkpt lat="43.7292" lon="3.83637">
        <ele>92.800003051758</ele>
        <time>2021-05-18T09:21:12Z</time>
      </trkpt>
      <trkpt lat="43.7292" lon="3.83644">
        <ele>92.800003051758</ele>
        <time>2021-05-18T09:21:13Z</time>
      </trkpt>
      <trkpt lat="43.72913" lon="3.83698">
        <ele>92.199996948242</ele>
        <time>2021-05-18T09:21:20Z</time>
      </trkpt>
      <trkpt lat="43.72911" lon="3.83704">
        <ele>92.199996948242</ele>
        <time>2021-05-18T09:21:21Z</time>
      </trkpt>
      <trkpt lat="43.72902" lon="3.83747">
        <ele>92</ele>
        <time>2021-05-18T09:21:27Z</time>
      </trkpt>
      <trkpt lat="43.72891" lon="3.83778">
        <ele>91.599998474121</ele>
        <time>2021-05-18T09:21:32Z</time>
      </trkpt>
      <trkpt lat="43.72889" lon="3.83783">
        <ele>91.599998474121</ele>
        <time>2021-05-18T09:21:33Z</time>
      </trkpt>
      <trkpt lat="43.7288" lon="3.83798">
        <ele>91.599998474121</ele>
        <time>2021-05-18T09:21:36Z</time>
      </trkpt>
      <trkpt lat="43.72877" lon="3.83802">
        <ele>91.599998474121</ele>
        <time>2021-05-18T09:21:37Z</time>
      </trkpt>
      <trkpt lat="43.72873" lon="3.83806">
        <ele>91.599998474121</ele>
        <time>2021-05-18T09:21:38Z</time>
      </trkpt>
      <trkpt lat="43.72869" lon="3.83809">
        <ele>91.599998474121</ele>
        <time>2021-05-18T09:21:39Z</time>
      </trkpt>
      <trkpt lat="43.72866" lon="3.83814">
        <ele>91.599998474121</ele>
        <time>2021-05-18T09:21:40Z</time>
      </trkpt>
      <trkpt lat="43.72864" lon="3.8382">
        <ele>91.599998474121</ele>
        <time>2021-05-18T09:21:41Z</time>
      </trkpt>
      <trkpt lat="43.72863" lon="3.83827">
        <ele>91.400001525879</ele>
        <time>2021-05-18T09:21:42Z</time>
      </trkpt>
      <trkpt lat="43.72864" lon="3.83833">
        <ele>91.400001525879</ele>
        <time>2021-05-18T09:21:43Z</time>
      </trkpt>
      <trkpt lat="43.72864" lon="3.8384">
        <ele>91.199996948242</ele>
        <time>2021-05-18T09:21:44Z</time>
      </trkpt>
      <trkpt lat="43.72868" lon="3.8388">
        <ele>90.800003051758</ele>
        <time>2021-05-18T09:21:50Z</time>
      </trkpt>
      <trkpt lat="43.72871" lon="3.83886">
        <ele>90.800003051758</ele>
        <time>2021-05-18T09:21:51Z</time>
      </trkpt>
      <trkpt lat="43.72875" lon="3.83891">
        <ele>90.599998474121</ele>
        <time>2021-05-18T09:21:52Z</time>
      </trkpt>
      <trkpt lat="43.72879" lon="3.83895">
        <ele>90.599998474121</ele>
        <time>2021-05-18T09:21:53Z</time>
      </trkpt>
      <trkpt lat="43.72884" lon="3.83898">
        <ele>90.599998474121</ele>
        <time>2021-05-18T09:21:54Z</time>
      </trkpt>
      <trkpt lat="43.72889" lon="3.839">
        <ele>90.599998474121</ele>
        <time>2021-05-18T09:21:55Z</time>
      </trkpt>
      <trkpt lat="43.72893" lon="3.83902">
        <ele>90.599998474121</ele>
        <time>2021-05-18T09:21:56Z</time>
      </trkpt>
      <trkpt lat="43.72951" lon="3.83956">
        <ele>91</ele>
        <time>2021-05-18T09:22:11Z</time>
      </trkpt>
      <trkpt lat="43.73013" lon="3.84036">
        <ele>92.199996948242</ele>
        <time>2021-05-18T09:22:28Z</time>
      </trkpt>
      <trkpt lat="43.73079" lon="3.84128">
        <ele>93.400001525879</ele>
        <time>2021-05-18T09:22:47Z</time>
      </trkpt>
      <trkpt lat="43.73154" lon="3.84236">
        <ele>93.800003051758</ele>
        <time>2021-05-18T09:23:08Z</time>
      </trkpt>
      <trkpt lat="43.73217" lon="3.84325">
        <ele>93.800003051758</ele>
        <time>2021-05-18T09:23:24Z</time>
      </trkpt>
      <trkpt lat="43.73284" lon="3.84423">
        <ele>93.199996948242</ele>
        <time>2021-05-18T09:23:42Z</time>
      </trkpt>
      <trkpt lat="43.73337" lon="3.84532">
        <ele>92.800003051758</ele>
        <time>2021-05-18T09:24:00Z</time>
      </trkpt>
      <trkpt lat="43.734" lon="3.84651">
        <ele>91.800003051758</ele>
        <time>2021-05-18T09:24:20Z</time>
      </trkpt>
      <trkpt lat="43.73427" lon="3.84682">
        <ele>92.199996948242</ele>
        <time>2021-05-18T09:24:28Z</time>
      </trkpt>
      <trkpt lat="43.73429" lon="3.84687">
        <ele>92.199996948242</ele>
        <time>2021-05-18T09:24:29Z</time>
      </trkpt>
      <trkpt lat="43.73429" lon="3.84693">
        <ele>92.199996948242</ele>
        <time>2021-05-18T09:24:30Z</time>
      </trkpt>
      <trkpt lat="43.73429" lon="3.84699">
        <ele>92.199996948242</ele>
        <time>2021-05-18T09:24:31Z</time>
      </trkpt>
      <trkpt lat="43.73427" lon="3.84704">
        <ele>92.199996948242</ele>
        <time>2021-05-18T09:24:32Z</time>
      </trkpt>
      <trkpt lat="43.73425" lon="3.84708">
        <ele>92.199996948242</ele>
        <time>2021-05-18T09:24:33Z</time>
      </trkpt>
      <trkpt lat="43.73422" lon="3.84713">
        <ele>92.199996948242</ele>
        <time>2021-05-18T09:24:34Z</time>
      </trkpt>
      <trkpt lat="43.73419" lon="3.84716">
        <ele>92.199996948242</ele>
        <time>2021-05-18T09:24:35Z</time>
      </trkpt>
      <trkpt lat="43.73415" lon="3.8472">
        <ele>92.199996948242</ele>
        <time>2021-05-18T09:24:36Z</time>
      </trkpt>
      <trkpt lat="43.73364" lon="3.84772">
        <ele>90.800003051758</ele>
        <time>2021-05-18T09:24:48Z</time>
      </trkpt>
      <trkpt lat="43.73361" lon="3.84778">
        <ele>90.800003051758</ele>
        <time>2021-05-18T09:24:49Z</time>
      </trkpt>
      <trkpt lat="43.73357" lon="3.84783">
        <ele>90.800003051758</ele>
        <time>2021-05-18T09:24:50Z</time>
      </trkpt>
      <trkpt lat="43.73354" lon="3.84788">
        <ele>90.800003051758</ele>
        <time>2021-05-18T09:24:51Z</time>
      </trkpt>
      <trkpt lat="43.73351" lon="3.84793">
        <ele>90.800003051758</ele>
        <time>2021-05-18T09:24:52Z</time>
      </trkpt>
      <trkpt lat="43.7332" lon="3.84867">
        <ele>91.599998474121</ele>
        <time>2021-05-18T09:25:05Z</time>
      </trkpt>
      <trkpt lat="43.73313" lon="3.84886">
        <ele>91.599998474121</ele>
        <time>2021-05-18T09:25:08Z</time>
      </trkpt>
      <trkpt lat="43.7331" lon="3.84892">
        <ele>91.599998474121</ele>
        <time>2021-05-18T09:25:09Z</time>
      </trkpt>
      <trkpt lat="43.73267" lon="3.84985">
        <ele>90.400001525879</ele>
        <time>2021-05-18T09:25:24Z</time>
      </trkpt>
      <trkpt lat="43.73261" lon="3.85006">
        <ele>90.199996948242</ele>
        <time>2021-05-18T09:25:27Z</time>
      </trkpt>
      <trkpt lat="43.73261" lon="3.85013">
        <ele>90.199996948242</ele>
        <time>2021-05-18T09:25:28Z</time>
      </trkpt>
      <trkpt lat="43.73263" lon="3.8502">
        <ele>90</ele>
        <time>2021-05-18T09:25:29Z</time>
      </trkpt>
      <trkpt lat="43.73265" lon="3.85027">
        <ele>89.800003051758</ele>
        <time>2021-05-18T09:25:30Z</time>
      </trkpt>
      <trkpt lat="43.73269" lon="3.85032">
        <ele>89.800003051758</ele>
        <time>2021-05-18T09:25:31Z</time>
      </trkpt>
      <trkpt lat="43.73272" lon="3.85038">
        <ele>89.599998474121</ele>
        <time>2021-05-18T09:25:32Z</time>
      </trkpt>
      <trkpt lat="43.73276" lon="3.85042">
        <ele>89.599998474121</ele>
        <time>2021-05-18T09:25:33Z</time>
      </trkpt>
      <trkpt lat="43.73293" lon="3.85063">
        <ele>88.800003051758</ele>
        <time>2021-05-18T09:25:37Z</time>
      </trkpt>
      <trkpt lat="43.73296" lon="3.8507">
        <ele>88.599998474121</ele>
        <time>2021-05-18T09:25:38Z</time>
      </trkpt>
      <trkpt lat="43.73299" lon="3.85077">
        <ele>88.599998474121</ele>
        <time>2021-05-18T09:25:39Z</time>
      </trkpt>
      <trkpt lat="43.733" lon="3.85084">
        <ele>88.400001525879</ele>
        <time>2021-05-18T09:25:40Z</time>
      </trkpt>
      <trkpt lat="43.733" lon="3.85091">
        <ele>88.400001525879</ele>
        <time>2021-05-18T09:25:41Z</time>
      </trkpt>
      <trkpt lat="43.73298" lon="3.85098">
        <ele>88.199996948242</ele>
        <time>2021-05-18T09:25:42Z</time>
      </trkpt>
      <trkpt lat="43.73297" lon="3.85105">
        <ele>88.199996948242</ele>
        <time>2021-05-18T09:25:43Z</time>
      </trkpt>
      <trkpt lat="43.73292" lon="3.85141">
        <ele>87.800003051758</ele>
        <time>2021-05-18T09:25:48Z</time>
      </trkpt>
      <trkpt lat="43.73288" lon="3.85146">
        <ele>87.599998474121</ele>
        <time>2021-05-18T09:25:49Z</time>
      </trkpt>
      <trkpt lat="43.73283" lon="3.8515">
        <ele>87.400001525879</ele>
        <time>2021-05-18T09:25:50Z</time>
      </trkpt>
      <trkpt lat="43.73277" lon="3.85153">
        <ele>87.199996948242</ele>
        <time>2021-05-18T09:25:51Z</time>
      </trkpt>
      <trkpt lat="43.73271" lon="3.85153">
        <ele>87.199996948242</ele>
        <time>2021-05-18T09:25:52Z</time>
      </trkpt>
      <trkpt lat="43.73265" lon="3.85153">
        <ele>86.800003051758</ele>
        <time>2021-05-18T09:25:53Z</time>
      </trkpt>
      <trkpt lat="43.73259" lon="3.85151">
        <ele>86.400001525879</ele>
        <time>2021-05-18T09:25:54Z</time>
      </trkpt>
      <trkpt lat="43.73253" lon="3.8515">
        <ele>86</ele>
        <time>2021-05-18T09:25:55Z</time>
      </trkpt>
      <trkpt lat="43.73233" lon="3.85147">
        <ele>85.400001525879</ele>
        <time>2021-05-18T09:25:59Z</time>
      </trkpt>
      <trkpt lat="43.73215" lon="3.85152">
        <ele>85.800003051758</ele>
        <time>2021-05-18T09:26:03Z</time>
      </trkpt>
      <trkpt lat="43.7321" lon="3.85155">
        <ele>85.800003051758</ele>
        <time>2021-05-18T09:26:04Z</time>
      </trkpt>
      <trkpt lat="43.73206" lon="3.85158">
        <ele>86</ele>
        <time>2021-05-18T09:26:05Z</time>
      </trkpt>
      <trkpt lat="43.73185" lon="3.85177">
        <ele>86.199996948242</ele>
        <time>2021-05-18T09:26:10Z</time>
      </trkpt>
      <trkpt lat="43.73183" lon="3.85182">
        <ele>86.400001525879</ele>
        <time>2021-05-18T09:26:11Z</time>
      </trkpt>
      <trkpt lat="43.73181" lon="3.85188">
        <ele>86.400001525879</ele>
        <time>2021-05-18T09:26:12Z</time>
      </trkpt>
      <trkpt lat="43.7318" lon="3.85194">
        <ele>86.400001525879</ele>
        <time>2021-05-18T09:26:13Z</time>
      </trkpt>
      <trkpt lat="43.73181" lon="3.852">
        <ele>86.599998474121</ele>
        <time>2021-05-18T09:26:14Z</time>
      </trkpt>
      <trkpt lat="43.73181" lon="3.85206">
        <ele>86.599998474121</ele>
        <time>2021-05-18T09:26:15Z</time>
      </trkpt>
      <trkpt lat="43.73184" lon="3.85261">
        <ele>90.599998474121</ele>
        <time>2021-05-18T09:26:25Z</time>
      </trkpt>
      <trkpt lat="43.73178" lon="3.85295">
        <ele>93.800003051758</ele>
        <time>2021-05-18T09:26:31Z</time>
      </trkpt>
      <trkpt lat="43.73169" lon="3.85321">
        <ele>97</ele>
        <time>2021-05-18T09:26:37Z</time>
      </trkpt>
      <trkpt lat="43.73166" lon="3.85325">
        <ele>97.199996948242</ele>
        <time>2021-05-18T09:26:38Z</time>
      </trkpt>
      <trkpt lat="43.73163" lon="3.85329">
        <ele>97.400001525879</ele>
        <time>2021-05-18T09:26:39Z</time>
      </trkpt>
      <trkpt lat="43.73159" lon="3.85331">
        <ele>97.599998474121</ele>
        <time>2021-05-18T09:26:40Z</time>
      </trkpt>
      <trkpt lat="43.73154" lon="3.85333">
        <ele>97.599998474121</ele>
        <time>2021-05-18T09:26:41Z</time>
      </trkpt>
      <trkpt lat="43.7315" lon="3.85333">
        <ele>97.800003051758</ele>
        <time>2021-05-18T09:26:42Z</time>
      </trkpt>
      <trkpt lat="43.73146" lon="3.85333">
        <ele>98</ele>
        <time>2021-05-18T09:26:43Z</time>
      </trkpt>
      <trkpt lat="43.73141" lon="3.85332">
        <ele>98.199996948242</ele>
        <time>2021-05-18T09:26:44Z</time>
      </trkpt>
      <trkpt lat="43.73138" lon="3.85329">
        <ele>98.400001525879</ele>
        <time>2021-05-18T09:26:45Z</time>
      </trkpt>
      <trkpt lat="43.73135" lon="3.85327">
        <ele>98.400001525879</ele>
        <time>2021-05-18T09:26:46Z</time>
      </trkpt>
      <trkpt lat="43.73132" lon="3.85323">
        <ele>98.599998474121</ele>
        <time>2021-05-18T09:26:47Z</time>
      </trkpt>
      <trkpt lat="43.73128" lon="3.8532">
        <ele>98.800003051758</ele>
        <time>2021-05-18T09:26:48Z</time>
      </trkpt>
      <trkpt lat="43.73125" lon="3.85317">
        <ele>99</ele>
        <time>2021-05-18T09:26:49Z</time>
      </trkpt>
      <trkpt lat="43.73113" lon="3.85308">
        <ele>99.400001525879</ele>
        <time>2021-05-18T09:26:52Z</time>
      </trkpt>
      <trkpt lat="43.73109" lon="3.85306">
        <ele>99.599998474121</ele>
        <time>2021-05-18T09:26:53Z</time>
      </trkpt>
      <trkpt lat="43.73105" lon="3.85306">
        <ele>99.800003051758</ele>
        <time>2021-05-18T09:26:54Z</time>
      </trkpt>
      <trkpt lat="43.7304" lon="3.85319">
        <ele>101.40000152588</ele>
        <time>2021-05-18T09:27:09Z</time>
      </trkpt>
      <trkpt lat="43.73025" lon="3.85328">
        <ele>102.19999694824</ele>
        <time>2021-05-18T09:27:13Z</time>
      </trkpt>
      <trkpt lat="43.7295" lon="3.85358">
        <ele>105.40000152588</ele>
        <time>2021-05-18T09:27:32Z</time>
      </trkpt>
      <trkpt lat="43.72914" lon="3.85364">
        <ele>108.40000152588</ele>
        <time>2021-05-18T09:27:41Z</time>
      </trkpt>
      <trkpt lat="43.72874" lon="3.85369">
        <ele>111.40000152588</ele>
        <time>2021-05-18T09:27:52Z</time>
      </trkpt>
      <trkpt lat="43.72824" lon="3.85406">
        <ele>112.59999847412</ele>
        <time>2021-05-18T09:28:08Z</time>
      </trkpt>
      <trkpt lat="43.72818" lon="3.85412">
        <ele>115.80000305176</ele>
        <time>2021-05-18T09:28:11Z</time>
      </trkpt>
      <trkpt lat="43.72813" lon="3.85413">
        <ele>116.80000305176</ele>
        <time>2021-05-18T09:28:13Z</time>
      </trkpt>
      <trkpt lat="43.72812" lon="3.85412">
        <ele>116.80000305176</ele>
        <time>2021-05-18T09:28:14Z</time>
      </trkpt>
      <trkpt lat="43.7281" lon="3.85411">
        <ele>116.59999847412</ele>
        <time>2021-05-18T09:28:15Z</time>
      </trkpt>
      <trkpt lat="43.72809" lon="3.8541">
        <ele>116.40000152588</ele>
        <time>2021-05-18T09:28:20Z</time>
      </trkpt>
      <trkpt lat="43.72809" lon="3.8541">
        <ele>115.19999694824</ele>
        <time>2021-05-18T09:29:30Z</time>
      </trkpt>
      <trkpt lat="43.72809" lon="3.8541">
        <ele>113.19999694824</ele>
        <time>2021-05-18T09:29:33Z</time>
      </trkpt>
      <trkpt lat="43.72805" lon="3.85399">
        <ele>113.40000152588</ele>
        <time>2021-05-18T09:29:37Z</time>
      </trkpt>
      <trkpt lat="43.72804" lon="3.85394">
        <ele>114</ele>
        <time>2021-05-18T09:29:38Z</time>
      </trkpt>
      <trkpt lat="43.72803" lon="3.85388">
        <ele>114.40000152588</ele>
        <time>2021-05-18T09:29:39Z</time>
      </trkpt>
      <trkpt lat="43.72801" lon="3.85381">
        <ele>114.59999847412</ele>
        <time>2021-05-18T09:29:40Z</time>
      </trkpt>
      <trkpt lat="43.72799" lon="3.85375">
        <ele>114.59999847412</ele>
        <time>2021-05-18T09:29:41Z</time>
      </trkpt>
      <trkpt lat="43.72778" lon="3.85303">
        <ele>117</ele>
        <time>2021-05-18T09:29:55Z</time>
      </trkpt>
      <trkpt lat="43.72748" lon="3.85264">
        <ele>119.59999847412</ele>
        <time>2021-05-18T09:30:07Z</time>
      </trkpt>
      <trkpt lat="43.72739" lon="3.85263">
        <ele>119.80000305176</ele>
        <time>2021-05-18T09:30:09Z</time>
      </trkpt>
      <trkpt lat="43.72735" lon="3.85264">
        <ele>119.80000305176</ele>
        <time>2021-05-18T09:30:10Z</time>
      </trkpt>
      <trkpt lat="43.72661" lon="3.8529">
        <ele>118.80000305176</ele>
        <time>2021-05-18T09:30:26Z</time>
      </trkpt>
      <trkpt lat="43.72644" lon="3.85295">
        <ele>118.19999694824</ele>
        <time>2021-05-18T09:30:29Z</time>
      </trkpt>
      <trkpt lat="43.72639" lon="3.85294">
        <ele>118</ele>
        <time>2021-05-18T09:30:30Z</time>
      </trkpt>
      <trkpt lat="43.72634" lon="3.85292">
        <ele>117.80000305176</ele>
        <time>2021-05-18T09:30:31Z</time>
      </trkpt>
      <trkpt lat="43.72629" lon="3.85292">
        <ele>117.59999847412</ele>
        <time>2021-05-18T09:30:32Z</time>
      </trkpt>
      <trkpt lat="43.72622" lon="3.85293">
        <ele>117.40000152588</ele>
        <time>2021-05-18T09:30:33Z</time>
      </trkpt>
      <trkpt lat="43.72616" lon="3.85296">
        <ele>117.19999694824</ele>
        <time>2021-05-18T09:30:34Z</time>
      </trkpt>
      <trkpt lat="43.7261" lon="3.85297">
        <ele>117</ele>
        <time>2021-05-18T09:30:35Z</time>
      </trkpt>
      <trkpt lat="43.7258" lon="3.85309">
        <ele>117</ele>
        <time>2021-05-18T09:30:41Z</time>
      </trkpt>
      <trkpt lat="43.72576" lon="3.85311">
        <ele>117</ele>
        <time>2021-05-18T09:30:42Z</time>
      </trkpt>
      <trkpt lat="43.72574" lon="3.85316">
        <ele>117</ele>
        <time>2021-05-18T09:30:43Z</time>
      </trkpt>
      <trkpt lat="43.72571" lon="3.85321">
        <ele>117.40000152588</ele>
        <time>2021-05-18T09:30:44Z</time>
      </trkpt>
      <trkpt lat="43.72569" lon="3.85326">
        <ele>117.59999847412</ele>
        <time>2021-05-18T09:30:45Z</time>
      </trkpt>
      <trkpt lat="43.72568" lon="3.85331">
        <ele>118</ele>
        <time>2021-05-18T09:30:46Z</time>
      </trkpt>
      <trkpt lat="43.72548" lon="3.85382">
        <ele>119.40000152588</ele>
        <time>2021-05-18T09:30:58Z</time>
      </trkpt>
      <trkpt lat="43.72503" lon="3.8546">
        <ele>118.59999847412</ele>
        <time>2021-05-18T09:31:15Z</time>
      </trkpt>
      <trkpt lat="43.72476" lon="3.85501">
        <ele>117.19999694824</ele>
        <time>2021-05-18T09:31:23Z</time>
      </trkpt>
      <trkpt lat="43.72426" lon="3.85577">
        <ele>114.19999694824</ele>
        <time>2021-05-18T09:31:35Z</time>
      </trkpt>
      <trkpt lat="43.72368" lon="3.85655">
        <ele>111</ele>
        <time>2021-05-18T09:31:47Z</time>
      </trkpt>
      <trkpt lat="43.72318" lon="3.85695">
        <ele>107.80000305176</ele>
        <time>2021-05-18T09:31:55Z</time>
      </trkpt>
      <trkpt lat="43.72272" lon="3.85719">
        <ele>105.59999847412</ele>
        <time>2021-05-18T09:32:02Z</time>
      </trkpt>
      <trkpt lat="43.72265" lon="3.8572">
        <ele>105.19999694824</ele>
        <time>2021-05-18T09:32:03Z</time>
      </trkpt>
      <trkpt lat="43.72258" lon="3.85721">
        <ele>105</ele>
        <time>2021-05-18T09:32:04Z</time>
      </trkpt>
      <trkpt lat="43.72251" lon="3.85719">
        <ele>104.80000305176</ele>
        <time>2021-05-18T09:32:05Z</time>
      </trkpt>
      <trkpt lat="43.72243" lon="3.85718">
        <ele>104.59999847412</ele>
        <time>2021-05-18T09:32:06Z</time>
      </trkpt>
      <trkpt lat="43.72227" lon="3.85718">
        <ele>104.40000152588</ele>
        <time>2021-05-18T09:32:08Z</time>
      </trkpt>
      <trkpt lat="43.72219" lon="3.8572">
        <ele>104.19999694824</ele>
        <time>2021-05-18T09:32:09Z</time>
      </trkpt>
      <trkpt lat="43.72212" lon="3.85725">
        <ele>103.80000305176</ele>
        <time>2021-05-18T09:32:10Z</time>
      </trkpt>
      <trkpt lat="43.72205" lon="3.85731">
        <ele>103.40000152588</ele>
        <time>2021-05-18T09:32:11Z</time>
      </trkpt>
      <trkpt lat="43.72199" lon="3.85739">
        <ele>103</ele>
        <time>2021-05-18T09:32:12Z</time>
      </trkpt>
      <trkpt lat="43.72194" lon="3.85748">
        <ele>102.59999847412</ele>
        <time>2021-05-18T09:32:13Z</time>
      </trkpt>
      <trkpt lat="43.72188" lon="3.85756">
        <ele>102.19999694824</ele>
        <time>2021-05-18T09:32:14Z</time>
      </trkpt>
      <trkpt lat="43.72182" lon="3.85763">
        <ele>101.80000305176</ele>
        <time>2021-05-18T09:32:15Z</time>
      </trkpt>
      <trkpt lat="43.72176" lon="3.85769">
        <ele>100.59999847412</ele>
        <time>2021-05-18T09:32:16Z</time>
      </trkpt>
      <trkpt lat="43.72156" lon="3.85785">
        <ele>99.199996948242</ele>
        <time>2021-05-18T09:32:19Z</time>
      </trkpt>
      <trkpt lat="43.72135" lon="3.85802">
        <ele>97.800003051758</ele>
        <time>2021-05-18T09:32:22Z</time>
      </trkpt>
      <trkpt lat="43.72128" lon="3.85806">
        <ele>97.199996948242</ele>
        <time>2021-05-18T09:32:23Z</time>
      </trkpt>
      <trkpt lat="43.72121" lon="3.85809">
        <ele>96.800003051758</ele>
        <time>2021-05-18T09:32:24Z</time>
      </trkpt>
      <trkpt lat="43.72114" lon="3.85812">
        <ele>96.599998474121</ele>
        <time>2021-05-18T09:32:25Z</time>
      </trkpt>
      <trkpt lat="43.72106" lon="3.85814">
        <ele>96.599998474121</ele>
        <time>2021-05-18T09:32:26Z</time>
      </trkpt>
      <trkpt lat="43.72099" lon="3.85815">
        <ele>96.400001525879</ele>
        <time>2021-05-18T09:32:27Z</time>
      </trkpt>
      <trkpt lat="43.72091" lon="3.85816">
        <ele>96</ele>
        <time>2021-05-18T09:32:28Z</time>
      </trkpt>
      <trkpt lat="43.71968" lon="3.85842">
        <ele>93</ele>
        <time>2021-05-18T09:32:46Z</time>
      </trkpt>
      <trkpt lat="43.71879" lon="3.85876">
        <ele>90.599998474121</ele>
        <time>2021-05-18T09:33:01Z</time>
      </trkpt>
      <trkpt lat="43.71795" lon="3.85927">
        <ele>89.599998474121</ele>
        <time>2021-05-18T09:33:16Z</time>
      </trkpt>
      <trkpt lat="43.71731" lon="3.8596">
        <ele>90</ele>
        <time>2021-05-18T09:33:28Z</time>
      </trkpt>
      <trkpt lat="43.71711" lon="3.85966">
        <ele>90</ele>
        <time>2021-05-18T09:33:32Z</time>
      </trkpt>
      <trkpt lat="43.71707" lon="3.85969">
        <ele>90</ele>
        <time>2021-05-18T09:33:33Z</time>
      </trkpt>
      <trkpt lat="43.71703" lon="3.85973">
        <ele>90</ele>
        <time>2021-05-18T09:33:34Z</time>
      </trkpt>
      <trkpt lat="43.71682" lon="3.85991">
        <ele>90.800003051758</ele>
        <time>2021-05-18T09:33:39Z</time>
      </trkpt>
      <trkpt lat="43.71617" lon="3.86045">
        <ele>91.199996948242</ele>
        <time>2021-05-18T09:33:54Z</time>
      </trkpt>
      <trkpt lat="43.71545" lon="3.86056">
        <ele>91.400001525879</ele>
        <time>2021-05-18T09:34:08Z</time>
      </trkpt>
      <trkpt lat="43.71441" lon="3.86085">
        <ele>88.199996948242</ele>
        <time>2021-05-18T09:34:24Z</time>
      </trkpt>
      <trkpt lat="43.71351" lon="3.8611">
        <ele>87</ele>
        <time>2021-05-18T09:34:40Z</time>
      </trkpt>
      <trkpt lat="43.71271" lon="3.86129">
        <ele>86.800003051758</ele>
        <time>2021-05-18T09:34:54Z</time>
      </trkpt>
      <trkpt lat="43.71186" lon="3.86148">
        <ele>88.400001525879</ele>
        <time>2021-05-18T09:35:10Z</time>
      </trkpt>
      <trkpt lat="43.71098" lon="3.86152">
        <ele>87.800003051758</ele>
        <time>2021-05-18T09:35:25Z</time>
      </trkpt>
      <trkpt lat="43.71084" lon="3.86154">
        <ele>88</ele>
        <time>2021-05-18T09:35:28Z</time>
      </trkpt>
      <trkpt lat="43.71079" lon="3.86155">
        <ele>88</ele>
        <time>2021-05-18T09:35:29Z</time>
      </trkpt>
      <trkpt lat="43.70987" lon="3.86151">
        <ele>86.800003051758</ele>
        <time>2021-05-18T09:35:45Z</time>
      </trkpt>
      <trkpt lat="43.70973" lon="3.8615">
        <ele>86.199996948242</ele>
        <time>2021-05-18T09:35:47Z</time>
      </trkpt>
      <trkpt lat="43.7087" lon="3.86136">
        <ele>83.199996948242</ele>
        <time>2021-05-18T09:36:03Z</time>
      </trkpt>
      <trkpt lat="43.70778" lon="3.86113">
        <ele>82.400001525879</ele>
        <time>2021-05-18T09:36:19Z</time>
      </trkpt>
      <trkpt lat="43.70687" lon="3.86107">
        <ele>80.800003051758</ele>
        <time>2021-05-18T09:36:35Z</time>
      </trkpt>
      <trkpt lat="43.70622" lon="3.86092">
        <ele>79.599998474121</ele>
        <time>2021-05-18T09:36:47Z</time>
      </trkpt>
      <trkpt lat="43.70579" lon="3.86074">
        <ele>78.199996948242</ele>
        <time>2021-05-18T09:36:54Z</time>
      </trkpt>
      <trkpt lat="43.70574" lon="3.86069">
        <ele>78</ele>
        <time>2021-05-18T09:36:55Z</time>
      </trkpt>
      <trkpt lat="43.70568" lon="3.86064">
        <ele>77.800003051758</ele>
        <time>2021-05-18T09:36:56Z</time>
      </trkpt>
      <trkpt lat="43.70476" lon="3.85959">
        <ele>76.800003051758</ele>
        <time>2021-05-18T09:37:15Z</time>
      </trkpt>
      <trkpt lat="43.70421" lon="3.85893">
        <ele>75.599998474121</ele>
        <time>2021-05-18T09:37:28Z</time>
      </trkpt>
      <trkpt lat="43.70414" lon="3.85884">
        <ele>75.400001525879</ele>
        <time>2021-05-18T09:37:30Z</time>
      </trkpt>
      <trkpt lat="43.70411" lon="3.85878">
        <ele>75.400001525879</ele>
        <time>2021-05-18T09:37:31Z</time>
      </trkpt>
      <trkpt lat="43.70409" lon="3.85871">
        <ele>75</ele>
        <time>2021-05-18T09:37:32Z</time>
      </trkpt>
      <trkpt lat="43.70408" lon="3.85863">
        <ele>74.800003051758</ele>
        <time>2021-05-18T09:37:33Z</time>
      </trkpt>
      <trkpt lat="43.70406" lon="3.85856">
        <ele>74.599998474121</ele>
        <time>2021-05-18T09:37:34Z</time>
      </trkpt>
      <trkpt lat="43.70398" lon="3.85821">
        <ele>73.800003051758</ele>
        <time>2021-05-18T09:37:41Z</time>
      </trkpt>
      <trkpt lat="43.70387" lon="3.85783">
        <ele>72.800003051758</ele>
        <time>2021-05-18T09:37:46Z</time>
      </trkpt>
      <trkpt lat="43.70372" lon="3.85726">
        <ele>73</ele>
        <time>2021-05-18T09:37:56Z</time>
      </trkpt>
      <trkpt lat="43.70358" lon="3.85706">
        <ele>74.199996948242</ele>
        <time>2021-05-18T09:38:02Z</time>
      </trkpt>
      <trkpt lat="43.70288" lon="3.85679">
        <ele>72</ele>
        <time>2021-05-18T09:38:14Z</time>
      </trkpt>
      <trkpt lat="43.70246" lon="3.8566">
        <ele>71.599998474121</ele>
        <time>2021-05-18T09:38:22Z</time>
      </trkpt>
      <trkpt lat="43.7019" lon="3.85637">
        <ele>71.400001525879</ele>
        <time>2021-05-18T09:38:34Z</time>
      </trkpt>
      <trkpt lat="43.70171" lon="3.85641">
        <ele>71.599998474121</ele>
        <time>2021-05-18T09:38:43Z</time>
      </trkpt>
      <trkpt lat="43.70171" lon="3.8564">
        <ele>72</ele>
        <time>2021-05-18T09:38:48Z</time>
      </trkpt>
      <trkpt lat="43.7017" lon="3.8563">
        <ele>70.199996948242</ele>
        <time>2021-05-18T09:42:06Z</time>
      </trkpt>
      <trkpt lat="43.7017" lon="3.85626">
        <ele>70.199996948242</ele>
        <time>2021-05-18T09:42:07Z</time>
      </trkpt>
      <trkpt lat="43.7017" lon="3.85622">
        <ele>70.199996948242</ele>
        <time>2021-05-18T09:42:08Z</time>
      </trkpt>
      <trkpt lat="43.7017" lon="3.85618">
        <ele>70.199996948242</ele>
        <time>2021-05-18T09:42:09Z</time>
      </trkpt>
      <trkpt lat="43.70171" lon="3.85612">
        <ele>70.199996948242</ele>
        <time>2021-05-18T09:42:10Z</time>
      </trkpt>
      <trkpt lat="43.70172" lon="3.85606">
        <ele>70</ele>
        <time>2021-05-18T09:42:11Z</time>
      </trkpt>
      <trkpt lat="43.70173" lon="3.85601">
        <ele>70</ele>
        <time>2021-05-18T09:42:12Z</time>
      </trkpt>
      <trkpt lat="43.70174" lon="3.85594">
        <ele>70</ele>
        <time>2021-05-18T09:42:13Z</time>
      </trkpt>
      <trkpt lat="43.70175" lon="3.85588">
        <ele>70</ele>
        <time>2021-05-18T09:42:14Z</time>
      </trkpt>
      <trkpt lat="43.70189" lon="3.8551">
        <ele>69.800003051758</ele>
        <time>2021-05-18T09:42:25Z</time>
      </trkpt>
      <trkpt lat="43.70198" lon="3.85441">
        <ele>70.800003051758</ele>
        <time>2021-05-18T09:42:36Z</time>
      </trkpt>
      <trkpt lat="43.70198" lon="3.85435">
        <ele>71.199996948242</ele>
        <time>2021-05-18T09:42:37Z</time>
      </trkpt>
      <trkpt lat="43.70197" lon="3.85429">
        <ele>71.400001525879</ele>
        <time>2021-05-18T09:42:38Z</time>
      </trkpt>
      <trkpt lat="43.70197" lon="3.85422">
        <ele>71.599998474121</ele>
        <time>2021-05-18T09:42:39Z</time>
      </trkpt>
      <trkpt lat="43.70197" lon="3.85416">
        <ele>71.800003051758</ele>
        <time>2021-05-18T09:42:40Z</time>
      </trkpt>
      <trkpt lat="43.70199" lon="3.8541">
        <ele>71.800003051758</ele>
        <time>2021-05-18T09:42:41Z</time>
      </trkpt>
      <trkpt lat="43.70202" lon="3.85405">
        <ele>72</ele>
        <time>2021-05-18T09:42:42Z</time>
      </trkpt>
      <trkpt lat="43.70205" lon="3.854">
        <ele>72.199996948242</ele>
        <time>2021-05-18T09:42:43Z</time>
      </trkpt>
      <trkpt lat="43.70207" lon="3.85394">
        <ele>72.199996948242</ele>
        <time>2021-05-18T09:42:44Z</time>
      </trkpt>
      <trkpt lat="43.70209" lon="3.85388">
        <ele>72.599998474121</ele>
        <time>2021-05-18T09:42:45Z</time>
      </trkpt>
      <trkpt lat="43.70211" lon="3.85382">
        <ele>73</ele>
        <time>2021-05-18T09:42:46Z</time>
      </trkpt>
      <trkpt lat="43.70213" lon="3.85377">
        <ele>73.199996948242</ele>
        <time>2021-05-18T09:42:47Z</time>
      </trkpt>
      <trkpt lat="43.70216" lon="3.85372">
        <ele>73.400001525879</ele>
        <time>2021-05-18T09:42:48Z</time>
      </trkpt>
      <trkpt lat="43.70219" lon="3.85368">
        <ele>73.599998474121</ele>
        <time>2021-05-18T09:42:49Z</time>
      </trkpt>
      <trkpt lat="43.70223" lon="3.85367">
        <ele>73.800003051758</ele>
        <time>2021-05-18T09:42:50Z</time>
      </trkpt>
      <trkpt lat="43.70227" lon="3.85369">
        <ele>74</ele>
        <time>2021-05-18T09:42:51Z</time>
      </trkpt>
      <trkpt lat="43.70231" lon="3.85372">
        <ele>74.400001525879</ele>
        <time>2021-05-18T09:42:52Z</time>
      </trkpt>
      <trkpt lat="43.70235" lon="3.85376">
        <ele>74.599998474121</ele>
        <time>2021-05-18T09:42:53Z</time>
      </trkpt>
      <trkpt lat="43.70243" lon="3.85382">
        <ele>75</ele>
        <time>2021-05-18T09:42:55Z</time>
      </trkpt>
      <trkpt lat="43.70248" lon="3.85384">
        <ele>75.199996948242</ele>
        <time>2021-05-18T09:42:56Z</time>
      </trkpt>
      <trkpt lat="43.70253" lon="3.85386">
        <ele>75.400001525879</ele>
        <time>2021-05-18T09:42:57Z</time>
      </trkpt>
      <trkpt lat="43.70346" lon="3.85388">
        <ele>77.400001525879</ele>
        <time>2021-05-18T09:43:16Z</time>
      </trkpt>
      <trkpt lat="43.7046" lon="3.85384">
        <ele>76</ele>
        <time>2021-05-18T09:43:35Z</time>
      </trkpt>
      <trkpt lat="43.70589" lon="3.85352">
        <ele>74.400001525879</ele>
        <time>2021-05-18T09:43:55Z</time>
      </trkpt>
      <trkpt lat="43.70719" lon="3.85337">
        <ele>74.800003051758</ele>
        <time>2021-05-18T09:44:17Z</time>
      </trkpt>
      <trkpt lat="43.70871" lon="3.85316">
        <ele>74.199996948242</ele>
        <time>2021-05-18T09:44:42Z</time>
      </trkpt>
      <trkpt lat="43.70974" lon="3.85283">
        <ele>73.400001525879</ele>
        <time>2021-05-18T09:45:00Z</time>
      </trkpt>
      <trkpt lat="43.711" lon="3.8525">
        <ele>75</ele>
        <time>2021-05-18T09:45:23Z</time>
      </trkpt>
      <trkpt lat="43.71251" lon="3.85189">
        <ele>76.199996948242</ele>
        <time>2021-05-18T09:45:48Z</time>
      </trkpt>
      <trkpt lat="43.71369" lon="3.85132">
        <ele>74.599998474121</ele>
        <time>2021-05-18T09:46:06Z</time>
      </trkpt>
      <trkpt lat="43.71374" lon="3.85125">
        <ele>74.599998474121</ele>
        <time>2021-05-18T09:46:07Z</time>
      </trkpt>
      <trkpt lat="43.71464" lon="3.85019">
        <ele>74</ele>
        <time>2021-05-18T09:46:26Z</time>
      </trkpt>
      <trkpt lat="43.71552" lon="3.8493">
        <ele>75.800003051758</ele>
        <time>2021-05-18T09:46:46Z</time>
      </trkpt>
      <trkpt lat="43.71573" lon="3.84904">
        <ele>77</ele>
        <time>2021-05-18T09:46:52Z</time>
      </trkpt>
      <trkpt lat="43.71576" lon="3.84899">
        <ele>77.199996948242</ele>
        <time>2021-05-18T09:46:53Z</time>
      </trkpt>
      <trkpt lat="43.71579" lon="3.84894">
        <ele>77.400001525879</ele>
        <time>2021-05-18T09:46:54Z</time>
      </trkpt>
      <trkpt lat="43.71582" lon="3.84888">
        <ele>77.599998474121</ele>
        <time>2021-05-18T09:46:55Z</time>
      </trkpt>
      <trkpt lat="43.71584" lon="3.84882">
        <ele>77.599998474121</ele>
        <time>2021-05-18T09:46:56Z</time>
      </trkpt>
      <trkpt lat="43.71586" lon="3.84876">
        <ele>77.599998474121</ele>
        <time>2021-05-18T09:46:57Z</time>
      </trkpt>
      <trkpt lat="43.71588" lon="3.8487">
        <ele>77.599998474121</ele>
        <time>2021-05-18T09:46:58Z</time>
      </trkpt>
      <trkpt lat="43.71606" lon="3.84757">
        <ele>78.199996948242</ele>
        <time>2021-05-18T09:47:16Z</time>
      </trkpt>
      <trkpt lat="43.71604" lon="3.84751">
        <ele>78.199996948242</ele>
        <time>2021-05-18T09:47:17Z</time>
      </trkpt>
      <trkpt lat="43.716" lon="3.84747">
        <ele>78.199996948242</ele>
        <time>2021-05-18T09:47:18Z</time>
      </trkpt>
      <trkpt lat="43.71597" lon="3.84746">
        <ele>78.199996948242</ele>
        <time>2021-05-18T09:47:19Z</time>
      </trkpt>
      <trkpt lat="43.71593" lon="3.84745">
        <ele>78.199996948242</ele>
        <time>2021-05-18T09:47:20Z</time>
      </trkpt>
      <trkpt lat="43.7159" lon="3.84746">
        <ele>78.400001525879</ele>
        <time>2021-05-18T09:47:21Z</time>
      </trkpt>
      <trkpt lat="43.71588" lon="3.84748">
        <ele>78.599998474121</ele>
        <time>2021-05-18T09:47:22Z</time>
      </trkpt>
      <trkpt lat="43.71587" lon="3.84752">
        <ele>79</ele>
        <time>2021-05-18T09:47:23Z</time>
      </trkpt>
      <trkpt lat="43.71586" lon="3.84757">
        <ele>79.800003051758</ele>
        <time>2021-05-18T09:47:24Z</time>
      </trkpt>
      <trkpt lat="43.71586" lon="3.84762">
        <ele>80.199996948242</ele>
        <time>2021-05-18T09:47:25Z</time>
      </trkpt>
      <trkpt lat="43.71586" lon="3.84768">
        <ele>80.599998474121</ele>
        <time>2021-05-18T09:47:26Z</time>
      </trkpt>
      <trkpt lat="43.71576" lon="3.84809">
        <ele>84</ele>
        <time>2021-05-18T09:47:34Z</time>
      </trkpt>
      <trkpt lat="43.71545" lon="3.84843">
        <ele>87</ele>
        <time>2021-05-18T09:47:45Z</time>
      </trkpt>
      <trkpt lat="43.71537" lon="3.84843">
        <ele>87.400001525879</ele>
        <time>2021-05-18T09:47:47Z</time>
      </trkpt>
      <trkpt lat="43.71501" lon="3.84828">
        <ele>90.400001525879</ele>
        <time>2021-05-18T09:47:57Z</time>
      </trkpt>
      <trkpt lat="43.71461" lon="3.84776">
        <ele>94.199996948242</ele>
        <time>2021-05-18T09:48:11Z</time>
      </trkpt>
      <trkpt lat="43.7142" lon="3.84749">
        <ele>97.800003051758</ele>
        <time>2021-05-18T09:48:23Z</time>
      </trkpt>
      <trkpt lat="43.71378" lon="3.84722">
        <ele>101.40000152588</ele>
        <time>2021-05-18T09:48:35Z</time>
      </trkpt>
      <trkpt lat="43.71375" lon="3.84721">
        <ele>101.80000305176</ele>
        <time>2021-05-18T09:48:36Z</time>
      </trkpt>
      <trkpt lat="43.7134" lon="3.84694">
        <ele>105</ele>
        <time>2021-05-18T09:48:47Z</time>
      </trkpt>
      <trkpt lat="43.71338" lon="3.8464">
        <ele>108</ele>
        <time>2021-05-18T09:48:58Z</time>
      </trkpt>
      <trkpt lat="43.71342" lon="3.84583">
        <ele>111.19999694824</ele>
        <time>2021-05-18T09:49:11Z</time>
      </trkpt>
      <trkpt lat="43.71338" lon="3.84527">
        <ele>113.40000152588</ele>
        <time>2021-05-18T09:49:26Z</time>
      </trkpt>
      <trkpt lat="43.71335" lon="3.84526">
        <ele>113.40000152588</ele>
        <time>2021-05-18T09:49:27Z</time>
      </trkpt>
      <trkpt lat="43.71332" lon="3.84525">
        <ele>113.40000152588</ele>
        <time>2021-05-18T09:49:28Z</time>
      </trkpt>
      <trkpt lat="43.71329" lon="3.84525">
        <ele>113.40000152588</ele>
        <time>2021-05-18T09:49:29Z</time>
      </trkpt>
      <trkpt lat="43.71327" lon="3.84526">
        <ele>113.40000152588</ele>
        <time>2021-05-18T09:49:30Z</time>
      </trkpt>
      <trkpt lat="43.71322" lon="3.84527">
        <ele>113.40000152588</ele>
        <time>2021-05-18T09:49:38Z</time>
      </trkpt>
      <trkpt lat="43.71315" lon="3.84531">
        <ele>113.40000152588</ele>
        <time>2021-05-18T09:51:20Z</time>
      </trkpt>
      <trkpt lat="43.71303" lon="3.84537">
        <ele>113.40000152588</ele>
        <time>2021-05-18T09:51:23Z</time>
      </trkpt>
      <trkpt lat="43.71299" lon="3.84538">
        <ele>113.19999694824</ele>
        <time>2021-05-18T09:51:24Z</time>
      </trkpt>
      <trkpt lat="43.71289" lon="3.84541">
        <ele>112.40000152588</ele>
        <time>2021-05-18T09:51:26Z</time>
      </trkpt>
      <trkpt lat="43.71284" lon="3.84543">
        <ele>112</ele>
        <time>2021-05-18T09:51:27Z</time>
      </trkpt>
      <trkpt lat="43.71269" lon="3.8455">
        <ele>111</ele>
        <time>2021-05-18T09:51:30Z</time>
      </trkpt>
      <trkpt lat="43.71265" lon="3.84553">
        <ele>110.80000305176</ele>
        <time>2021-05-18T09:51:31Z</time>
      </trkpt>
      <trkpt lat="43.71231" lon="3.84583">
        <ele>109</ele>
        <time>2021-05-18T09:51:38Z</time>
      </trkpt>
      <trkpt lat="43.71226" lon="3.84586">
        <ele>109</ele>
        <time>2021-05-18T09:51:39Z</time>
      </trkpt>
      <trkpt lat="43.7122" lon="3.84588">
        <ele>108.80000305176</ele>
        <time>2021-05-18T09:51:40Z</time>
      </trkpt>
      <trkpt lat="43.71214" lon="3.84585">
        <ele>108.40000152588</ele>
        <time>2021-05-18T09:51:41Z</time>
      </trkpt>
      <trkpt lat="43.71209" lon="3.84581">
        <ele>108.19999694824</ele>
        <time>2021-05-18T09:51:42Z</time>
      </trkpt>
      <trkpt lat="43.71203" lon="3.84575">
        <ele>107.80000305176</ele>
        <time>2021-05-18T09:51:43Z</time>
      </trkpt>
      <trkpt lat="43.71198" lon="3.8457">
        <ele>107.40000152588</ele>
        <time>2021-05-18T09:51:44Z</time>
      </trkpt>
      <trkpt lat="43.71188" lon="3.84556">
        <ele>106.80000305176</ele>
        <time>2021-05-18T09:51:46Z</time>
      </trkpt>
      <trkpt lat="43.71184" lon="3.84548">
        <ele>106.59999847412</ele>
        <time>2021-05-18T09:51:47Z</time>
      </trkpt>
      <trkpt lat="43.71181" lon="3.84539">
        <ele>106.19999694824</ele>
        <time>2021-05-18T09:51:48Z</time>
      </trkpt>
      <trkpt lat="43.71176" lon="3.84497">
        <ele>104.19999694824</ele>
        <time>2021-05-18T09:51:52Z</time>
      </trkpt>
      <trkpt lat="43.71171" lon="3.84455">
        <ele>102.80000305176</ele>
        <time>2021-05-18T09:51:56Z</time>
      </trkpt>
      <trkpt lat="43.71172" lon="3.84445">
        <ele>102.19999694824</ele>
        <time>2021-05-18T09:51:57Z</time>
      </trkpt>
      <trkpt lat="43.71175" lon="3.84436">
        <ele>101.59999847412</ele>
        <time>2021-05-18T09:51:58Z</time>
      </trkpt>
      <trkpt lat="43.71179" lon="3.84428">
        <ele>101</ele>
        <time>2021-05-18T09:51:59Z</time>
      </trkpt>
      <trkpt lat="43.71183" lon="3.84421">
        <ele>100.59999847412</ele>
        <time>2021-05-18T09:52:00Z</time>
      </trkpt>
      <trkpt lat="43.71214" lon="3.8436">
        <ele>99</ele>
        <time>2021-05-18T09:52:09Z</time>
      </trkpt>
      <trkpt lat="43.71216" lon="3.84352">
        <ele>98.800003051758</ele>
        <time>2021-05-18T09:52:10Z</time>
      </trkpt>
      <trkpt lat="43.71217" lon="3.84345">
        <ele>98.599998474121</ele>
        <time>2021-05-18T09:52:11Z</time>
      </trkpt>
      <trkpt lat="43.71217" lon="3.84337">
        <ele>98.400001525879</ele>
        <time>2021-05-18T09:52:12Z</time>
      </trkpt>
      <trkpt lat="43.71217" lon="3.8433">
        <ele>98.199996948242</ele>
        <time>2021-05-18T09:52:13Z</time>
      </trkpt>
      <trkpt lat="43.71215" lon="3.84323">
        <ele>98</ele>
        <time>2021-05-18T09:52:14Z</time>
      </trkpt>
      <trkpt lat="43.71211" lon="3.84318">
        <ele>97.800003051758</ele>
        <time>2021-05-18T09:52:15Z</time>
      </trkpt>
      <trkpt lat="43.71205" lon="3.84316">
        <ele>97.199996948242</ele>
        <time>2021-05-18T09:52:16Z</time>
      </trkpt>
      <trkpt lat="43.712" lon="3.84316">
        <ele>96.800003051758</ele>
        <time>2021-05-18T09:52:17Z</time>
      </trkpt>
      <trkpt lat="43.71196" lon="3.84318">
        <ele>96.400001525879</ele>
        <time>2021-05-18T09:52:18Z</time>
      </trkpt>
      <trkpt lat="43.71193" lon="3.84321">
        <ele>96</ele>
        <time>2021-05-18T09:52:19Z</time>
      </trkpt>
      <trkpt lat="43.71191" lon="3.84326">
        <ele>95.800003051758</ele>
        <time>2021-05-18T09:52:20Z</time>
      </trkpt>
      <trkpt lat="43.7119" lon="3.84331">
        <ele>95.800003051758</ele>
        <time>2021-05-18T09:52:21Z</time>
      </trkpt>
      <trkpt lat="43.71188" lon="3.84337">
        <ele>95.800003051758</ele>
        <time>2021-05-18T09:52:22Z</time>
      </trkpt>
      <trkpt lat="43.71185" lon="3.84342">
        <ele>95.599998474121</ele>
        <time>2021-05-18T09:52:23Z</time>
      </trkpt>
      <trkpt lat="43.71182" lon="3.84346">
        <ele>95.800003051758</ele>
        <time>2021-05-18T09:52:24Z</time>
      </trkpt>
      <trkpt lat="43.71178" lon="3.8435">
        <ele>95.800003051758</ele>
        <time>2021-05-18T09:52:25Z</time>
      </trkpt>
      <trkpt lat="43.71174" lon="3.84352">
        <ele>96</ele>
        <time>2021-05-18T09:52:26Z</time>
      </trkpt>
      <trkpt lat="43.7117" lon="3.84353">
        <ele>96.199996948242</ele>
        <time>2021-05-18T09:52:27Z</time>
      </trkpt>
      <trkpt lat="43.71166" lon="3.84354">
        <ele>96.800003051758</ele>
        <time>2021-05-18T09:52:28Z</time>
      </trkpt>
      <trkpt lat="43.71162" lon="3.84355">
        <ele>97</ele>
        <time>2021-05-18T09:52:29Z</time>
      </trkpt>
      <trkpt lat="43.7113" lon="3.84343">
        <ele>100.19999694824</ele>
        <time>2021-05-18T09:52:38Z</time>
      </trkpt>
      <trkpt lat="43.71108" lon="3.84301">
        <ele>104</ele>
        <time>2021-05-18T09:52:48Z</time>
      </trkpt>
      <trkpt lat="43.71098" lon="3.8428">
        <ele>105.80000305176</ele>
        <time>2021-05-18T09:52:53Z</time>
      </trkpt>
      <trkpt lat="43.71077" lon="3.84236">
        <ele>109</ele>
        <time>2021-05-18T09:53:04Z</time>
      </trkpt>
      <trkpt lat="43.7107" lon="3.84195">
        <ele>112.19999694824</ele>
        <time>2021-05-18T09:53:14Z</time>
      </trkpt>
      <trkpt lat="43.71068" lon="3.84188">
        <ele>113.19999694824</ele>
        <time>2021-05-18T09:53:16Z</time>
      </trkpt>
      <trkpt lat="43.71051" lon="3.84146">
        <ele>116.40000152588</ele>
        <time>2021-05-18T09:53:28Z</time>
      </trkpt>
      <trkpt lat="43.71028" lon="3.84105">
        <ele>119.40000152588</ele>
        <time>2021-05-18T09:53:42Z</time>
      </trkpt>
      <trkpt lat="43.71003" lon="3.84065">
        <ele>122.59999847412</ele>
        <time>2021-05-18T09:53:56Z</time>
      </trkpt>
      <trkpt lat="43.70956" lon="3.84028">
        <ele>125.59999847412</ele>
        <time>2021-05-18T09:54:15Z</time>
      </trkpt>
      <trkpt lat="43.70921" lon="3.84005">
        <ele>128.39999389648</ele>
        <time>2021-05-18T09:54:30Z</time>
      </trkpt>
      <trkpt lat="43.7091" lon="3.83951">
        <ele>130</ele>
        <time>2021-05-18T09:54:43Z</time>
      </trkpt>
      <trkpt lat="43.70913" lon="3.83879">
        <ele>130.39999389648</ele>
        <time>2021-05-18T09:54:55Z</time>
      </trkpt>
      <trkpt lat="43.70912" lon="3.83873">
        <ele>130.39999389648</ele>
        <time>2021-05-18T09:54:56Z</time>
      </trkpt>
      <trkpt lat="43.7091" lon="3.83867">
        <ele>130.19999694824</ele>
        <time>2021-05-18T09:54:57Z</time>
      </trkpt>
      <trkpt lat="43.70907" lon="3.83862">
        <ele>130.19999694824</ele>
        <time>2021-05-18T09:54:58Z</time>
      </trkpt>
      <trkpt lat="43.70903" lon="3.83856">
        <ele>130.19999694824</ele>
        <time>2021-05-18T09:54:59Z</time>
      </trkpt>
      <trkpt lat="43.70899" lon="3.8385">
        <ele>130.19999694824</ele>
        <time>2021-05-18T09:55:00Z</time>
      </trkpt>
      <trkpt lat="43.70885" lon="3.83824">
        <ele>130.19999694824</ele>
        <time>2021-05-18T09:55:04Z</time>
      </trkpt>
      <trkpt lat="43.70883" lon="3.83817">
        <ele>130</ele>
        <time>2021-05-18T09:55:05Z</time>
      </trkpt>
      <trkpt lat="43.70881" lon="3.83809">
        <ele>129.80000305176</ele>
        <time>2021-05-18T09:55:06Z</time>
      </trkpt>
      <trkpt lat="43.70873" lon="3.83708">
        <ele>130</ele>
        <time>2021-05-18T09:55:19Z</time>
      </trkpt>
      <trkpt lat="43.70873" lon="3.83688">
        <ele>130.60000610352</ele>
        <time>2021-05-18T09:55:22Z</time>
      </trkpt>
      <trkpt lat="43.70872" lon="3.83681">
        <ele>131</ele>
        <time>2021-05-18T09:55:23Z</time>
      </trkpt>
      <trkpt lat="43.70871" lon="3.83674">
        <ele>131.39999389648</ele>
        <time>2021-05-18T09:55:24Z</time>
      </trkpt>
      <trkpt lat="43.70857" lon="3.83627">
        <ele>134.60000610352</ele>
        <time>2021-05-18T09:55:31Z</time>
      </trkpt>
      <trkpt lat="43.70843" lon="3.83576">
        <ele>136.19999694824</ele>
        <time>2021-05-18T09:55:39Z</time>
      </trkpt>
      <trkpt lat="43.70842" lon="3.8357">
        <ele>136.60000610352</ele>
        <time>2021-05-18T09:55:40Z</time>
      </trkpt>
      <trkpt lat="43.70842" lon="3.83563">
        <ele>136.80000305176</ele>
        <time>2021-05-18T09:55:41Z</time>
      </trkpt>
      <trkpt lat="43.70843" lon="3.83551">
        <ele>137</ele>
        <time>2021-05-18T09:55:43Z</time>
      </trkpt>
      <trkpt lat="43.70849" lon="3.83472">
        <ele>137.60000610352</ele>
        <time>2021-05-18T09:55:58Z</time>
      </trkpt>
      <trkpt lat="43.70852" lon="3.83436">
        <ele>136.39999389648</ele>
        <time>2021-05-18T09:56:04Z</time>
      </trkpt>
      <trkpt lat="43.70851" lon="3.8343">
        <ele>135.80000305176</ele>
        <time>2021-05-18T09:56:05Z</time>
      </trkpt>
      <trkpt lat="43.70849" lon="3.83425">
        <ele>135.39999389648</ele>
        <time>2021-05-18T09:56:06Z</time>
      </trkpt>
      <trkpt lat="43.70831" lon="3.83379">
        <ele>133.19999694824</ele>
        <time>2021-05-18T09:56:19Z</time>
      </trkpt>
      <trkpt lat="43.70828" lon="3.8337">
        <ele>133</ele>
        <time>2021-05-18T09:56:24Z</time>
      </trkpt>
      <trkpt lat="43.70829" lon="3.83368">
        <ele>133</ele>
        <time>2021-05-18T09:56:25Z</time>
      </trkpt>
      <trkpt lat="43.70832" lon="3.83363">
        <ele>132.80000305176</ele>
        <time>2021-05-18T09:56:33Z</time>
      </trkpt>
      <trkpt lat="43.70836" lon="3.8335">
        <ele>132</ele>
        <time>2021-05-18T09:58:42Z</time>
      </trkpt>
      <trkpt lat="43.70838" lon="3.83345">
        <ele>132</ele>
        <time>2021-05-18T09:58:43Z</time>
      </trkpt>
      <trkpt lat="43.70871" lon="3.83261">
        <ele>131.80000305176</ele>
        <time>2021-05-18T09:59:00Z</time>
      </trkpt>
      <trkpt lat="43.70876" lon="3.83232">
        <ele>132</ele>
        <time>2021-05-18T09:59:06Z</time>
      </trkpt>
      <trkpt lat="43.70877" lon="3.83227">
        <ele>132</ele>
        <time>2021-05-18T09:59:07Z</time>
      </trkpt>
      <trkpt lat="43.70885" lon="3.83205">
        <ele>131.80000305176</ele>
        <time>2021-05-18T09:59:11Z</time>
      </trkpt>
      <trkpt lat="43.70886" lon="3.83199">
        <ele>131.60000610352</ele>
        <time>2021-05-18T09:59:12Z</time>
      </trkpt>
      <trkpt lat="43.70885" lon="3.83194">
        <ele>131.60000610352</ele>
        <time>2021-05-18T09:59:13Z</time>
      </trkpt>
      <trkpt lat="43.70884" lon="3.83188">
        <ele>131.60000610352</ele>
        <time>2021-05-18T09:59:14Z</time>
      </trkpt>
      <trkpt lat="43.70882" lon="3.83183">
        <ele>131.60000610352</ele>
        <time>2021-05-18T09:59:15Z</time>
      </trkpt>
      <trkpt lat="43.70879" lon="3.83178">
        <ele>131.39999389648</ele>
        <time>2021-05-18T09:59:16Z</time>
      </trkpt>
      <trkpt lat="43.70877" lon="3.83174">
        <ele>131.39999389648</ele>
        <time>2021-05-18T09:59:17Z</time>
      </trkpt>
      <trkpt lat="43.70873" lon="3.83171">
        <ele>131.19999694824</ele>
        <time>2021-05-18T09:59:18Z</time>
      </trkpt>
      <trkpt lat="43.70869" lon="3.83168">
        <ele>131</ele>
        <time>2021-05-18T09:59:19Z</time>
      </trkpt>
      <trkpt lat="43.70864" lon="3.83167">
        <ele>131</ele>
        <time>2021-05-18T09:59:20Z</time>
      </trkpt>
      <trkpt lat="43.70858" lon="3.83166">
        <ele>131</ele>
        <time>2021-05-18T09:59:21Z</time>
      </trkpt>
      <trkpt lat="43.70853" lon="3.83165">
        <ele>130.80000305176</ele>
        <time>2021-05-18T09:59:22Z</time>
      </trkpt>
      <trkpt lat="43.70763" lon="3.83124">
        <ele>127.80000305176</ele>
        <time>2021-05-18T09:59:36Z</time>
      </trkpt>
      <trkpt lat="43.70746" lon="3.83109">
        <ele>127</ele>
        <time>2021-05-18T09:59:39Z</time>
      </trkpt>
      <trkpt lat="43.70743" lon="3.83103">
        <ele>126.80000305176</ele>
        <time>2021-05-18T09:59:40Z</time>
      </trkpt>
      <trkpt lat="43.7074" lon="3.83097">
        <ele>126.40000152588</ele>
        <time>2021-05-18T09:59:41Z</time>
      </trkpt>
      <trkpt lat="43.70731" lon="3.83069">
        <ele>125.80000305176</ele>
        <time>2021-05-18T09:59:45Z</time>
      </trkpt>
      <trkpt lat="43.70731" lon="3.83061">
        <ele>125.59999847412</ele>
        <time>2021-05-18T09:59:46Z</time>
      </trkpt>
      <trkpt lat="43.70732" lon="3.83053">
        <ele>125.59999847412</ele>
        <time>2021-05-18T09:59:47Z</time>
      </trkpt>
      <trkpt lat="43.70734" lon="3.83045">
        <ele>125.40000152588</ele>
        <time>2021-05-18T09:59:48Z</time>
      </trkpt>
      <trkpt lat="43.70737" lon="3.83038">
        <ele>125</ele>
        <time>2021-05-18T09:59:49Z</time>
      </trkpt>
      <trkpt lat="43.70739" lon="3.8303">
        <ele>124.80000305176</ele>
        <time>2021-05-18T09:59:50Z</time>
      </trkpt>
      <trkpt lat="43.70756" lon="3.82974">
        <ele>123.80000305176</ele>
        <time>2021-05-18T09:59:57Z</time>
      </trkpt>
      <trkpt lat="43.70757" lon="3.82957">
        <ele>123.59999847412</ele>
        <time>2021-05-18T09:59:59Z</time>
      </trkpt>
      <trkpt lat="43.70757" lon="3.82948">
        <ele>123.59999847412</ele>
        <time>2021-05-18T10:00:00Z</time>
      </trkpt>
      <trkpt lat="43.70736" lon="3.82792">
        <ele>121</ele>
        <time>2021-05-18T10:00:17Z</time>
      </trkpt>
      <trkpt lat="43.70685" lon="3.82638">
        <ele>118</ele>
        <time>2021-05-18T10:00:36Z</time>
      </trkpt>
      <trkpt lat="43.70643" lon="3.82516">
        <ele>115.80000305176</ele>
        <time>2021-05-18T10:00:52Z</time>
      </trkpt>
      <trkpt lat="43.70643" lon="3.82506">
        <ele>115.59999847412</ele>
        <time>2021-05-18T10:00:53Z</time>
      </trkpt>
      <trkpt lat="43.70646" lon="3.8247">
        <ele>114.80000305176</ele>
        <time>2021-05-18T10:00:57Z</time>
      </trkpt>
      <trkpt lat="43.70648" lon="3.82461">
        <ele>114.19999694824</ele>
        <time>2021-05-18T10:00:58Z</time>
      </trkpt>
      <trkpt lat="43.70652" lon="3.82453">
        <ele>114</ele>
        <time>2021-05-18T10:00:59Z</time>
      </trkpt>
      <trkpt lat="43.70656" lon="3.82447">
        <ele>113.59999847412</ele>
        <time>2021-05-18T10:01:00Z</time>
      </trkpt>
      <trkpt lat="43.70661" lon="3.82441">
        <ele>113.40000152588</ele>
        <time>2021-05-18T10:01:01Z</time>
      </trkpt>
      <trkpt lat="43.70666" lon="3.82437">
        <ele>113.19999694824</ele>
        <time>2021-05-18T10:01:02Z</time>
      </trkpt>
      <trkpt lat="43.70672" lon="3.82434">
        <ele>113</ele>
        <time>2021-05-18T10:01:03Z</time>
      </trkpt>
      <trkpt lat="43.70678" lon="3.82431">
        <ele>113</ele>
        <time>2021-05-18T10:01:04Z</time>
      </trkpt>
      <trkpt lat="43.70683" lon="3.82429">
        <ele>112.80000305176</ele>
        <time>2021-05-18T10:01:05Z</time>
      </trkpt>
      <trkpt lat="43.70699" lon="3.8242">
        <ele>112.80000305176</ele>
        <time>2021-05-18T10:01:08Z</time>
      </trkpt>
      <trkpt lat="43.70703" lon="3.82415">
        <ele>112.59999847412</ele>
        <time>2021-05-18T10:01:09Z</time>
      </trkpt>
      <trkpt lat="43.70706" lon="3.8241">
        <ele>112.59999847412</ele>
        <time>2021-05-18T10:01:10Z</time>
      </trkpt>
      <trkpt lat="43.70708" lon="3.82405">
        <ele>112.59999847412</ele>
        <time>2021-05-18T10:01:11Z</time>
      </trkpt>
      <trkpt lat="43.7071" lon="3.82399">
        <ele>112.59999847412</ele>
        <time>2021-05-18T10:01:12Z</time>
      </trkpt>
      <trkpt lat="43.7071" lon="3.82394">
        <ele>112.59999847412</ele>
        <time>2021-05-18T10:01:13Z</time>
      </trkpt>
      <trkpt lat="43.70711" lon="3.82388">
        <ele>112.59999847412</ele>
        <time>2021-05-18T10:01:14Z</time>
      </trkpt>
      <trkpt lat="43.70711" lon="3.82382">
        <ele>112.59999847412</ele>
        <time>2021-05-18T10:01:15Z</time>
      </trkpt>
      <trkpt lat="43.70711" lon="3.82376">
        <ele>112.59999847412</ele>
        <time>2021-05-18T10:01:16Z</time>
      </trkpt>
      <trkpt lat="43.7071" lon="3.82371">
        <ele>112.59999847412</ele>
        <time>2021-05-18T10:01:17Z</time>
      </trkpt>
      <trkpt lat="43.70708" lon="3.82359">
        <ele>112.80000305176</ele>
        <time>2021-05-18T10:01:19Z</time>
      </trkpt>
      <trkpt lat="43.70706" lon="3.82353">
        <ele>112.80000305176</ele>
        <time>2021-05-18T10:01:20Z</time>
      </trkpt>
      <trkpt lat="43.70703" lon="3.82348">
        <ele>112.80000305176</ele>
        <time>2021-05-18T10:01:21Z</time>
      </trkpt>
      <trkpt lat="43.70699" lon="3.82342">
        <ele>112.80000305176</ele>
        <time>2021-05-18T10:01:22Z</time>
      </trkpt>
      <trkpt lat="43.70696" lon="3.82338">
        <ele>112.80000305176</ele>
        <time>2021-05-18T10:01:23Z</time>
      </trkpt>
      <trkpt lat="43.70692" lon="3.82333">
        <ele>112.80000305176</ele>
        <time>2021-05-18T10:01:24Z</time>
      </trkpt>
      <trkpt lat="43.70636" lon="3.82271">
        <ele>113.19999694824</ele>
        <time>2021-05-18T10:01:38Z</time>
      </trkpt>
      <trkpt lat="43.70633" lon="3.82266">
        <ele>113.19999694824</ele>
        <time>2021-05-18T10:01:39Z</time>
      </trkpt>
      <trkpt lat="43.70615" lon="3.8225">
        <ele>113.19999694824</ele>
        <time>2021-05-18T10:01:43Z</time>
      </trkpt>
      <trkpt lat="43.7061" lon="3.82248">
        <ele>113.19999694824</ele>
        <time>2021-05-18T10:01:44Z</time>
      </trkpt>
      <trkpt lat="43.70512" lon="3.82169">
        <ele>115.80000305176</ele>
        <time>2021-05-18T10:02:07Z</time>
      </trkpt>
      <trkpt lat="43.70441" lon="3.82104">
        <ele>118.80000305176</ele>
        <time>2021-05-18T10:02:25Z</time>
      </trkpt>
      <trkpt lat="43.70348" lon="3.82069">
        <ele>119.19999694824</ele>
        <time>2021-05-18T10:02:42Z</time>
      </trkpt>
      <trkpt lat="43.70291" lon="3.82011">
        <ele>120</ele>
        <time>2021-05-18T10:02:56Z</time>
      </trkpt>
      <trkpt lat="43.70269" lon="3.81994">
        <ele>120.40000152588</ele>
        <time>2021-05-18T10:03:03Z</time>
      </trkpt>
      <trkpt lat="43.70266" lon="3.81997">
        <ele>120.59999847412</ele>
        <time>2021-05-18T10:03:04Z</time>
      </trkpt>
      <trkpt lat="43.70248" lon="3.82007">
        <ele>122</ele>
        <time>2021-05-18T10:03:13Z</time>
      </trkpt>
      <trkpt lat="43.70248" lon="3.82007">
        <ele>123</ele>
        <time>2021-05-18T10:03:17Z</time>
      </trkpt>
      <trkpt lat="43.70242" lon="3.82013">
        <ele>123.19999694824</ele>
        <time>2021-05-18T10:03:27Z</time>
      </trkpt>
      <trkpt lat="43.70235" lon="3.8202">
        <ele>123.19999694824</ele>
        <time>2021-05-18T10:03:29Z</time>
      </trkpt>
      <trkpt lat="43.70173" lon="3.82069">
        <ele>121</ele>
        <time>2021-05-18T10:03:42Z</time>
      </trkpt>
      <trkpt lat="43.70113" lon="3.82134">
        <ele>121.40000152588</ele>
        <time>2021-05-18T10:03:57Z</time>
      </trkpt>
      <trkpt lat="43.70062" lon="3.82217">
        <ele>121.80000305176</ele>
        <time>2021-05-18T10:04:12Z</time>
      </trkpt>
      <trkpt lat="43.7001" lon="3.82325">
        <ele>124</ele>
        <time>2021-05-18T10:04:31Z</time>
      </trkpt>
      <trkpt lat="43.69958" lon="3.82428">
        <ele>123.59999847412</ele>
        <time>2021-05-18T10:04:47Z</time>
      </trkpt>
      <trkpt lat="43.69895" lon="3.82516">
        <ele>122.80000305176</ele>
        <time>2021-05-18T10:05:03Z</time>
      </trkpt>
      <trkpt lat="43.69873" lon="3.82544">
        <ele>123</ele>
        <time>2021-05-18T10:05:09Z</time>
      </trkpt>
      <trkpt lat="43.69866" lon="3.82552">
        <ele>123.59999847412</ele>
        <time>2021-05-18T10:05:11Z</time>
      </trkpt>
      <trkpt lat="43.69863" lon="3.82557">
        <ele>123.80000305176</ele>
        <time>2021-05-18T10:05:12Z</time>
      </trkpt>
      <trkpt lat="43.6985" lon="3.82576">
        <ele>125.19999694824</ele>
        <time>2021-05-18T10:05:16Z</time>
      </trkpt>
      <trkpt lat="43.69846" lon="3.8258">
        <ele>125.80000305176</ele>
        <time>2021-05-18T10:05:17Z</time>
      </trkpt>
      <trkpt lat="43.69842" lon="3.82583">
        <ele>126.19999694824</ele>
        <time>2021-05-18T10:05:18Z</time>
      </trkpt>
      <trkpt lat="43.69796" lon="3.82615">
        <ele>129.39999389648</ele>
        <time>2021-05-18T10:05:30Z</time>
      </trkpt>
      <trkpt lat="43.69715" lon="3.82649">
        <ele>129.39999389648</ele>
        <time>2021-05-18T10:05:49Z</time>
      </trkpt>
      <trkpt lat="43.69672" lon="3.82663">
        <ele>127</ele>
        <time>2021-05-18T10:05:56Z</time>
      </trkpt>
      <trkpt lat="43.69615" lon="3.82684">
        <ele>124.59999847412</ele>
        <time>2021-05-18T10:06:04Z</time>
      </trkpt>
      <trkpt lat="43.69607" lon="3.82684">
        <ele>124.19999694824</ele>
        <time>2021-05-18T10:06:05Z</time>
      </trkpt>
      <trkpt lat="43.69546" lon="3.82685">
        <ele>121.59999847412</ele>
        <time>2021-05-18T10:06:14Z</time>
      </trkpt>
      <trkpt lat="43.6954" lon="3.82687">
        <ele>121.59999847412</ele>
        <time>2021-05-18T10:06:15Z</time>
      </trkpt>
      <trkpt lat="43.69481" lon="3.82698">
        <ele>121.59999847412</ele>
        <time>2021-05-18T10:06:27Z</time>
      </trkpt>
      <trkpt lat="43.69465" lon="3.82695">
        <ele>121.19999694824</ele>
        <time>2021-05-18T10:06:31Z</time>
      </trkpt>
      <trkpt lat="43.69423" lon="3.82691">
        <ele>120</ele>
        <time>2021-05-18T10:06:38Z</time>
      </trkpt>
      <trkpt lat="43.69355" lon="3.82669">
        <ele>117.59999847412</ele>
        <time>2021-05-18T10:06:51Z</time>
      </trkpt>
      <trkpt lat="43.69333" lon="3.82662">
        <ele>117.59999847412</ele>
        <time>2021-05-18T10:06:56Z</time>
      </trkpt>
      <trkpt lat="43.69329" lon="3.82661">
        <ele>117.59999847412</ele>
        <time>2021-05-18T10:06:57Z</time>
      </trkpt>
      <trkpt lat="43.69325" lon="3.82661">
        <ele>117.59999847412</ele>
        <time>2021-05-18T10:06:58Z</time>
      </trkpt>
      <trkpt lat="43.69321" lon="3.82663">
        <ele>117.59999847412</ele>
        <time>2021-05-18T10:06:59Z</time>
      </trkpt>
      <trkpt lat="43.69317" lon="3.82663">
        <ele>117.59999847412</ele>
        <time>2021-05-18T10:07:00Z</time>
      </trkpt>
      <trkpt lat="43.69313" lon="3.82663">
        <ele>117.80000305176</ele>
        <time>2021-05-18T10:07:01Z</time>
      </trkpt>
      <trkpt lat="43.69309" lon="3.82663">
        <ele>118</ele>
        <time>2021-05-18T10:07:02Z</time>
      </trkpt>
      <trkpt lat="43.69292" lon="3.82655">
        <ele>118.80000305176</ele>
        <time>2021-05-18T10:07:11Z</time>
      </trkpt>
      <trkpt lat="43.6929" lon="3.82654">
        <ele>118.59999847412</ele>
        <time>2021-05-18T10:07:12Z</time>
      </trkpt>
      <trkpt lat="43.69289" lon="3.82651">
        <ele>118.40000152588</ele>
        <time>2021-05-18T10:07:13Z</time>
      </trkpt>
      <trkpt lat="43.69289" lon="3.82643">
        <ele>118.19999694824</ele>
        <time>2021-05-18T10:07:15Z</time>
      </trkpt>
      <trkpt lat="43.69287" lon="3.82639">
        <ele>118</ele>
        <time>2021-05-18T10:07:16Z</time>
      </trkpt>
      <trkpt lat="43.69284" lon="3.82636">
        <ele>118</ele>
        <time>2021-05-18T10:07:17Z</time>
      </trkpt>
      <trkpt lat="43.6928" lon="3.82634">
        <ele>118</ele>
        <time>2021-05-18T10:07:18Z</time>
      </trkpt>
      <trkpt lat="43.69276" lon="3.82633">
        <ele>118</ele>
        <time>2021-05-18T10:07:19Z</time>
      </trkpt>
      <trkpt lat="43.69272" lon="3.82632">
        <ele>118</ele>
        <time>2021-05-18T10:07:20Z</time>
      </trkpt>
      <trkpt lat="43.69268" lon="3.82632">
        <ele>118.19999694824</ele>
        <time>2021-05-18T10:07:21Z</time>
      </trkpt>
      <trkpt lat="43.69253" lon="3.8263">
        <ele>118.19999694824</ele>
        <time>2021-05-18T10:07:25Z</time>
      </trkpt>
      <trkpt lat="43.69249" lon="3.8263">
        <ele>118.19999694824</ele>
        <time>2021-05-18T10:07:26Z</time>
      </trkpt>
      <trkpt lat="43.69244" lon="3.82629">
        <ele>118.19999694824</ele>
        <time>2021-05-18T10:07:27Z</time>
      </trkpt>
      <trkpt lat="43.69241" lon="3.82628">
        <ele>118.40000152588</ele>
        <time>2021-05-18T10:07:28Z</time>
      </trkpt>
      <trkpt lat="43.69238" lon="3.82627">
        <ele>118.40000152588</ele>
        <time>2021-05-18T10:07:29Z</time>
      </trkpt>
      <trkpt lat="43.69236" lon="3.82626">
        <ele>118.59999847412</ele>
        <time>2021-05-18T10:07:30Z</time>
      </trkpt>
      <trkpt lat="43.69233" lon="3.82624">
        <ele>119.19999694824</ele>
        <time>2021-05-18T10:07:31Z</time>
      </trkpt>
      <trkpt lat="43.69229" lon="3.82622">
        <ele>119.59999847412</ele>
        <time>2021-05-18T10:07:32Z</time>
      </trkpt>
      <trkpt lat="43.69226" lon="3.8262">
        <ele>120</ele>
        <time>2021-05-18T10:07:33Z</time>
      </trkpt>
      <trkpt lat="43.69197" lon="3.826">
        <ele>123.19999694824</ele>
        <time>2021-05-18T10:07:41Z</time>
      </trkpt>
      <trkpt lat="43.6918" lon="3.82586">
        <ele>124.59999847412</ele>
        <time>2021-05-18T10:07:46Z</time>
      </trkpt>
      <trkpt lat="43.69176" lon="3.82584">
        <ele>124.59999847412</ele>
        <time>2021-05-18T10:07:47Z</time>
      </trkpt>
      <trkpt lat="43.69173" lon="3.82583">
        <ele>124.80000305176</ele>
        <time>2021-05-18T10:07:48Z</time>
      </trkpt>
      <trkpt lat="43.69169" lon="3.82582">
        <ele>125.59999847412</ele>
        <time>2021-05-18T10:07:49Z</time>
      </trkpt>
      <trkpt lat="43.69166" lon="3.82582">
        <ele>126</ele>
        <time>2021-05-18T10:07:50Z</time>
      </trkpt>
      <trkpt lat="43.69162" lon="3.82582">
        <ele>126.19999694824</ele>
        <time>2021-05-18T10:07:51Z</time>
      </trkpt>
      <trkpt lat="43.69127" lon="3.82563">
        <ele>126.80000305176</ele>
        <time>2021-05-18T10:08:06Z</time>
      </trkpt>
      <trkpt lat="43.69121" lon="3.82557">
        <ele>126.59999847412</ele>
        <time>2021-05-18T10:08:08Z</time>
      </trkpt>
      <trkpt lat="43.69117" lon="3.82555">
        <ele>126.40000152588</ele>
        <time>2021-05-18T10:08:09Z</time>
      </trkpt>
      <trkpt lat="43.69112" lon="3.82554">
        <ele>126.40000152588</ele>
        <time>2021-05-18T10:08:10Z</time>
      </trkpt>
      <trkpt lat="43.69107" lon="3.82552">
        <ele>126</ele>
        <time>2021-05-18T10:08:11Z</time>
      </trkpt>
      <trkpt lat="43.69101" lon="3.8255">
        <ele>125</ele>
        <time>2021-05-18T10:08:12Z</time>
      </trkpt>
      <trkpt lat="43.69096" lon="3.82547">
        <ele>124.59999847412</ele>
        <time>2021-05-18T10:08:13Z</time>
      </trkpt>
      <trkpt lat="43.69091" lon="3.82545">
        <ele>124.19999694824</ele>
        <time>2021-05-18T10:08:14Z</time>
      </trkpt>
      <trkpt lat="43.69074" lon="3.82532">
        <ele>124.40000152588</ele>
        <time>2021-05-18T10:08:21Z</time>
      </trkpt>
      <trkpt lat="43.69046" lon="3.82515">
        <ele>126.40000152588</ele>
        <time>2021-05-18T10:08:31Z</time>
      </trkpt>
      <trkpt lat="43.6902" lon="3.82496">
        <ele>127.59999847412</ele>
        <time>2021-05-18T10:08:41Z</time>
      </trkpt>
      <trkpt lat="43.6902" lon="3.82496">
        <ele>127.80000305176</ele>
        <time>2021-05-18T10:08:46Z</time>
      </trkpt>
      <trkpt lat="43.69014" lon="3.82495">
        <ele>128</ele>
        <time>2021-05-18T10:09:39Z</time>
      </trkpt>
      <trkpt lat="43.68989" lon="3.82479">
        <ele>126.59999847412</ele>
        <time>2021-05-18T10:09:48Z</time>
      </trkpt>
      <trkpt lat="43.68952" lon="3.82458">
        <ele>123.19999694824</ele>
        <time>2021-05-18T10:09:59Z</time>
      </trkpt>
      <trkpt lat="43.68926" lon="3.82443">
        <ele>120</ele>
        <time>2021-05-18T10:10:04Z</time>
      </trkpt>
      <trkpt lat="43.6892" lon="3.82442">
        <ele>119.19999694824</ele>
        <time>2021-05-18T10:10:05Z</time>
      </trkpt>
      <trkpt lat="43.68917" lon="3.82442">
        <ele>118.40000152588</ele>
        <time>2021-05-18T10:10:06Z</time>
      </trkpt>
      <trkpt lat="43.68896" lon="3.82442">
        <ele>115.19999694824</ele>
        <time>2021-05-18T10:10:12Z</time>
      </trkpt>
      <trkpt lat="43.68864" lon="3.82442">
        <ele>113.59999847412</ele>
        <time>2021-05-18T10:10:19Z</time>
      </trkpt>
      <trkpt lat="43.68852" lon="3.82441">
        <ele>113</ele>
        <time>2021-05-18T10:10:22Z</time>
      </trkpt>
      <trkpt lat="43.68848" lon="3.82442">
        <ele>113</ele>
        <time>2021-05-18T10:10:23Z</time>
      </trkpt>
      <trkpt lat="43.68844" lon="3.82443">
        <ele>113</ele>
        <time>2021-05-18T10:10:24Z</time>
      </trkpt>
      <trkpt lat="43.6884" lon="3.82445">
        <ele>112.80000305176</ele>
        <time>2021-05-18T10:10:25Z</time>
      </trkpt>
      <trkpt lat="43.68836" lon="3.82447">
        <ele>112.80000305176</ele>
        <time>2021-05-18T10:10:26Z</time>
      </trkpt>
      <trkpt lat="43.68832" lon="3.8245">
        <ele>112.80000305176</ele>
        <time>2021-05-18T10:10:27Z</time>
      </trkpt>
      <trkpt lat="43.68828" lon="3.82451">
        <ele>112.59999847412</ele>
        <time>2021-05-18T10:10:28Z</time>
      </trkpt>
      <trkpt lat="43.68797" lon="3.82465">
        <ele>112.59999847412</ele>
        <time>2021-05-18T10:10:40Z</time>
      </trkpt>
      <trkpt lat="43.68797" lon="3.82465">
        <ele>112.59999847412</ele>
        <time>2021-05-18T10:10:43Z</time>
      </trkpt>
      <trkpt lat="43.68792" lon="3.82461">
        <ele>112.59999847412</ele>
        <time>2021-05-18T10:11:29Z</time>
      </trkpt>
      <trkpt lat="43.68789" lon="3.82453">
        <ele>112.40000152588</ele>
        <time>2021-05-18T10:11:34Z</time>
      </trkpt>
      <trkpt lat="43.68788" lon="3.82451">
        <ele>112.40000152588</ele>
        <time>2021-05-18T10:11:35Z</time>
      </trkpt>
      <trkpt lat="43.68789" lon="3.82449">
        <ele>112.19999694824</ele>
        <time>2021-05-18T10:11:36Z</time>
      </trkpt>
      <trkpt lat="43.68789" lon="3.82448">
        <ele>112.19999694824</ele>
        <time>2021-05-18T10:11:37Z</time>
      </trkpt>
      <trkpt lat="43.6879" lon="3.82447">
        <ele>112.19999694824</ele>
        <time>2021-05-18T10:11:38Z</time>
      </trkpt>
      <trkpt lat="43.6879" lon="3.82445">
        <ele>112.19999694824</ele>
        <time>2021-05-18T10:11:39Z</time>
      </trkpt>
      <trkpt lat="43.6879" lon="3.82442">
        <ele>112.19999694824</ele>
        <time>2021-05-18T10:11:40Z</time>
      </trkpt>
      <trkpt lat="43.68787" lon="3.8244">
        <ele>112.19999694824</ele>
        <time>2021-05-18T10:11:41Z</time>
      </trkpt>
      <trkpt lat="43.68784" lon="3.8244">
        <ele>112.19999694824</ele>
        <time>2021-05-18T10:11:42Z</time>
      </trkpt>
      <trkpt lat="43.68781" lon="3.8244">
        <ele>112.19999694824</ele>
        <time>2021-05-18T10:11:43Z</time>
      </trkpt>
      <trkpt lat="43.68778" lon="3.82439">
        <ele>112</ele>
        <time>2021-05-18T10:11:44Z</time>
      </trkpt>
      <trkpt lat="43.68774" lon="3.82437">
        <ele>112</ele>
        <time>2021-05-18T10:11:45Z</time>
      </trkpt>
      <trkpt lat="43.68771" lon="3.82434">
        <ele>111.80000305176</ele>
        <time>2021-05-18T10:11:46Z</time>
      </trkpt>
      <trkpt lat="43.68768" lon="3.82431">
        <ele>111.59999847412</ele>
        <time>2021-05-18T10:11:47Z</time>
      </trkpt>
      <trkpt lat="43.68742" lon="3.82386">
        <ele>111.19999694824</ele>
        <time>2021-05-18T10:11:57Z</time>
      </trkpt>
      <trkpt lat="43.68737" lon="3.8238">
        <ele>111</ele>
        <time>2021-05-18T10:11:58Z</time>
      </trkpt>
      <trkpt lat="43.68733" lon="3.82375">
        <ele>111</ele>
        <time>2021-05-18T10:11:59Z</time>
      </trkpt>
      <trkpt lat="43.68703" lon="3.82347">
        <ele>110.80000305176</ele>
        <time>2021-05-18T10:12:05Z</time>
      </trkpt>
      <trkpt lat="43.68633" lon="3.82307">
        <ele>110.59999847412</ele>
        <time>2021-05-18T10:12:18Z</time>
      </trkpt>
      <trkpt lat="43.68533" lon="3.82269">
        <ele>109.19999694824</ele>
        <time>2021-05-18T10:12:36Z</time>
      </trkpt>
      <trkpt lat="43.68499" lon="3.82257">
        <ele>108.80000305176</ele>
        <time>2021-05-18T10:12:42Z</time>
      </trkpt>
      <trkpt lat="43.68483" lon="3.8225">
        <ele>108.59999847412</ele>
        <time>2021-05-18T10:12:45Z</time>
      </trkpt>
      <trkpt lat="43.6839" lon="3.82226">
        <ele>108.40000152588</ele>
        <time>2021-05-18T10:13:01Z</time>
      </trkpt>
      <trkpt lat="43.68384" lon="3.82225">
        <ele>108.40000152588</ele>
        <time>2021-05-18T10:13:02Z</time>
      </trkpt>
      <trkpt lat="43.68378" lon="3.82225">
        <ele>108.59999847412</ele>
        <time>2021-05-18T10:13:03Z</time>
      </trkpt>
      <trkpt lat="43.68309" lon="3.82214">
        <ele>109.19999694824</ele>
        <time>2021-05-18T10:13:17Z</time>
      </trkpt>
      <trkpt lat="43.68232" lon="3.82203">
        <ele>110</ele>
        <time>2021-05-18T10:13:33Z</time>
      </trkpt>
      <trkpt lat="43.68159" lon="3.82194">
        <ele>111.80000305176</ele>
        <time>2021-05-18T10:13:49Z</time>
      </trkpt>
      <trkpt lat="43.68105" lon="3.8219">
        <ele>111.80000305176</ele>
        <time>2021-05-18T10:13:59Z</time>
      </trkpt>
      <trkpt lat="43.68074" lon="3.82191">
        <ele>112.40000152588</ele>
        <time>2021-05-18T10:14:07Z</time>
      </trkpt>
      <trkpt lat="43.6807" lon="3.8219">
        <ele>112.40000152588</ele>
        <time>2021-05-18T10:14:08Z</time>
      </trkpt>
      <trkpt lat="43.68065" lon="3.82189">
        <ele>112.40000152588</ele>
        <time>2021-05-18T10:14:09Z</time>
      </trkpt>
      <trkpt lat="43.67987" lon="3.82178">
        <ele>113.40000152588</ele>
        <time>2021-05-18T10:14:26Z</time>
      </trkpt>
      <trkpt lat="43.67958" lon="3.82169">
        <ele>115</ele>
        <time>2021-05-18T10:14:40Z</time>
      </trkpt>
      <trkpt lat="43.67953" lon="3.82168">
        <ele>115.19999694824</ele>
        <time>2021-05-18T10:14:43Z</time>
      </trkpt>
      <trkpt lat="43.67952" lon="3.82165">
        <ele>116</ele>
        <time>2021-05-18T10:14:44Z</time>
      </trkpt>
      <trkpt lat="43.67951" lon="3.82162">
        <ele>116.80000305176</ele>
        <time>2021-05-18T10:14:45Z</time>
      </trkpt>
      <trkpt lat="43.67951" lon="3.82158">
        <ele>117.19999694824</ele>
        <time>2021-05-18T10:14:46Z</time>
      </trkpt>
      <trkpt lat="43.6795" lon="3.82154">
        <ele>117.40000152588</ele>
        <time>2021-05-18T10:14:47Z</time>
      </trkpt>
      <trkpt lat="43.6795" lon="3.8215">
        <ele>117.59999847412</ele>
        <time>2021-05-18T10:14:48Z</time>
      </trkpt>
      <trkpt lat="43.6795" lon="3.82145">
        <ele>117.59999847412</ele>
        <time>2021-05-18T10:14:49Z</time>
      </trkpt>
      <trkpt lat="43.67951" lon="3.82141">
        <ele>117.59999847412</ele>
        <time>2021-05-18T10:14:50Z</time>
      </trkpt>
      <trkpt lat="43.67951" lon="3.82136">
        <ele>117.59999847412</ele>
        <time>2021-05-18T10:14:51Z</time>
      </trkpt>
      <trkpt lat="43.67957" lon="3.82068">
        <ele>116.80000305176</ele>
        <time>2021-05-18T10:15:03Z</time>
      </trkpt>
      <trkpt lat="43.67956" lon="3.82029">
        <ele>116</ele>
        <time>2021-05-18T10:15:09Z</time>
      </trkpt>
      <trkpt lat="43.67956" lon="3.82024">
        <ele>115.80000305176</ele>
        <time>2021-05-18T10:15:10Z</time>
      </trkpt>
      <trkpt lat="43.67963" lon="3.81994">
        <ele>115.80000305176</ele>
        <time>2021-05-18T10:15:16Z</time>
      </trkpt>
      <trkpt lat="43.67961" lon="3.81989">
        <ele>116</ele>
        <time>2021-05-18T10:15:17Z</time>
      </trkpt>
      <trkpt lat="43.67959" lon="3.81985">
        <ele>116</ele>
        <time>2021-05-18T10:15:18Z</time>
      </trkpt>
      <trkpt lat="43.67956" lon="3.8198">
        <ele>116</ele>
        <time>2021-05-18T10:15:19Z</time>
      </trkpt>
      <trkpt lat="43.67954" lon="3.81976">
        <ele>116.19999694824</ele>
        <time>2021-05-18T10:15:20Z</time>
      </trkpt>
      <trkpt lat="43.67938" lon="3.81946">
        <ele>116.59999847412</ele>
        <time>2021-05-18T10:15:26Z</time>
      </trkpt>
      <trkpt lat="43.67908" lon="3.81904">
        <ele>117.80000305176</ele>
        <time>2021-05-18T10:15:36Z</time>
      </trkpt>
      <trkpt lat="43.67907" lon="3.81899">
        <ele>118</ele>
        <time>2021-05-18T10:15:37Z</time>
      </trkpt>
      <trkpt lat="43.67905" lon="3.81893">
        <ele>118.19999694824</ele>
        <time>2021-05-18T10:15:38Z</time>
      </trkpt>
      <trkpt lat="43.679" lon="3.8187">
        <ele>118.59999847412</ele>
        <time>2021-05-18T10:15:42Z</time>
      </trkpt>
      <trkpt lat="43.67897" lon="3.81865">
        <ele>118.80000305176</ele>
        <time>2021-05-18T10:15:43Z</time>
      </trkpt>
      <trkpt lat="43.67888" lon="3.81846">
        <ele>119.40000152588</ele>
        <time>2021-05-18T10:15:47Z</time>
      </trkpt>
      <trkpt lat="43.67825" lon="3.81785">
        <ele>122.59999847412</ele>
        <time>2021-05-18T10:16:06Z</time>
      </trkpt>
      <trkpt lat="43.6778" lon="3.81762">
        <ele>125.80000305176</ele>
        <time>2021-05-18T10:16:20Z</time>
      </trkpt>
      <trkpt lat="43.67768" lon="3.81758">
        <ele>127.19999694824</ele>
        <time>2021-05-18T10:16:24Z</time>
      </trkpt>
      <trkpt lat="43.67753" lon="3.8174">
        <ele>128.60000610352</ele>
        <time>2021-05-18T10:16:30Z</time>
      </trkpt>
      <trkpt lat="43.67749" lon="3.81741">
        <ele>128.60000610352</ele>
        <time>2021-05-18T10:16:31Z</time>
      </trkpt>
      <trkpt lat="43.67745" lon="3.81743">
        <ele>128.80000305176</ele>
        <time>2021-05-18T10:16:32Z</time>
      </trkpt>
      <trkpt lat="43.67741" lon="3.81745">
        <ele>128.80000305176</ele>
        <time>2021-05-18T10:16:33Z</time>
      </trkpt>
      <trkpt lat="43.67737" lon="3.81745">
        <ele>129</ele>
        <time>2021-05-18T10:16:34Z</time>
      </trkpt>
      <trkpt lat="43.67733" lon="3.81744">
        <ele>129.19999694824</ele>
        <time>2021-05-18T10:16:35Z</time>
      </trkpt>
      <trkpt lat="43.67728" lon="3.81743">
        <ele>129.19999694824</ele>
        <time>2021-05-18T10:16:36Z</time>
      </trkpt>
      <trkpt lat="43.6772" lon="3.81741">
        <ele>129.39999389648</ele>
        <time>2021-05-18T10:16:38Z</time>
      </trkpt>
      <trkpt lat="43.67715" lon="3.81741">
        <ele>129.39999389648</ele>
        <time>2021-05-18T10:16:39Z</time>
      </trkpt>
      <trkpt lat="43.6771" lon="3.81742">
        <ele>129.60000610352</ele>
        <time>2021-05-18T10:16:40Z</time>
      </trkpt>
      <trkpt lat="43.67706" lon="3.81743">
        <ele>129.60000610352</ele>
        <time>2021-05-18T10:16:41Z</time>
      </trkpt>
      <trkpt lat="43.67702" lon="3.81744">
        <ele>129.80000305176</ele>
        <time>2021-05-18T10:16:42Z</time>
      </trkpt>
      <trkpt lat="43.67698" lon="3.81746">
        <ele>129.80000305176</ele>
        <time>2021-05-18T10:16:43Z</time>
      </trkpt>
      <trkpt lat="43.67691" lon="3.8175">
        <ele>130.19999694824</ele>
        <time>2021-05-18T10:16:45Z</time>
      </trkpt>
      <trkpt lat="43.67687" lon="3.81752">
        <ele>130.19999694824</ele>
        <time>2021-05-18T10:16:46Z</time>
      </trkpt>
      <trkpt lat="43.67672" lon="3.81765">
        <ele>130.39999389648</ele>
        <time>2021-05-18T10:16:50Z</time>
      </trkpt>
      <trkpt lat="43.67649" lon="3.81811">
        <ele>131</ele>
        <time>2021-05-18T10:17:03Z</time>
      </trkpt>
      <trkpt lat="43.67639" lon="3.81832">
        <ele>131.80000305176</ele>
        <time>2021-05-18T10:17:16Z</time>
      </trkpt>
      <trkpt lat="43.67629" lon="3.81827">
        <ele>132.39999389648</ele>
        <time>2021-05-18T10:17:28Z</time>
      </trkpt>
      <trkpt lat="43.67625" lon="3.81818">
        <ele>132.19999694824</ele>
        <time>2021-05-18T10:17:49Z</time>
      </trkpt>
      <trkpt lat="43.67628" lon="3.81777">
        <ele>132.39999389648</ele>
        <time>2021-05-18T10:17:58Z</time>
      </trkpt>
      <trkpt lat="43.67626" lon="3.81771">
        <ele>132.39999389648</ele>
        <time>2021-05-18T10:17:59Z</time>
      </trkpt>
      <trkpt lat="43.67623" lon="3.81765">
        <ele>132.39999389648</ele>
        <time>2021-05-18T10:18:00Z</time>
      </trkpt>
      <trkpt lat="43.67618" lon="3.81761">
        <ele>132.39999389648</ele>
        <time>2021-05-18T10:18:01Z</time>
      </trkpt>
      <trkpt lat="43.67613" lon="3.81758">
        <ele>132.39999389648</ele>
        <time>2021-05-18T10:18:02Z</time>
      </trkpt>
      <trkpt lat="43.67609" lon="3.81756">
        <ele>132.39999389648</ele>
        <time>2021-05-18T10:18:03Z</time>
      </trkpt>
      <trkpt lat="43.67604" lon="3.81752">
        <ele>132.19999694824</ele>
        <time>2021-05-18T10:18:04Z</time>
      </trkpt>
      <trkpt lat="43.676" lon="3.81747">
        <ele>132.19999694824</ele>
        <time>2021-05-18T10:18:05Z</time>
      </trkpt>
      <trkpt lat="43.67597" lon="3.8174">
        <ele>132.19999694824</ele>
        <time>2021-05-18T10:18:06Z</time>
      </trkpt>
      <trkpt lat="43.67595" lon="3.81734">
        <ele>132</ele>
        <time>2021-05-18T10:18:07Z</time>
      </trkpt>
      <trkpt lat="43.67592" lon="3.81727">
        <ele>132</ele>
        <time>2021-05-18T10:18:08Z</time>
      </trkpt>
      <trkpt lat="43.67589" lon="3.81722">
        <ele>132</ele>
        <time>2021-05-18T10:18:09Z</time>
      </trkpt>
      <trkpt lat="43.67585" lon="3.81718">
        <ele>132.19999694824</ele>
        <time>2021-05-18T10:18:10Z</time>
      </trkpt>
      <trkpt lat="43.67581" lon="3.81715">
        <ele>132.19999694824</ele>
        <time>2021-05-18T10:18:11Z</time>
      </trkpt>
      <trkpt lat="43.67577" lon="3.81713">
        <ele>132.39999389648</ele>
        <time>2021-05-18T10:18:12Z</time>
      </trkpt>
      <trkpt lat="43.67574" lon="3.81711">
        <ele>132.60000610352</ele>
        <time>2021-05-18T10:18:13Z</time>
      </trkpt>
      <trkpt lat="43.6757" lon="3.8171">
        <ele>133</ele>
        <time>2021-05-18T10:18:14Z</time>
      </trkpt>
      <trkpt lat="43.67526" lon="3.81696">
        <ele>133.60000610352</ele>
        <time>2021-05-18T10:18:24Z</time>
      </trkpt>
      <trkpt lat="43.67521" lon="3.81696">
        <ele>133.60000610352</ele>
        <time>2021-05-18T10:18:25Z</time>
      </trkpt>
      <trkpt lat="43.67515" lon="3.81697">
        <ele>133.39999389648</ele>
        <time>2021-05-18T10:18:26Z</time>
      </trkpt>
      <trkpt lat="43.67445" lon="3.8171">
        <ele>130.39999389648</ele>
        <time>2021-05-18T10:18:36Z</time>
      </trkpt>
      <trkpt lat="43.67395" lon="3.81723">
        <ele>128.19999694824</ele>
        <time>2021-05-18T10:18:43Z</time>
      </trkpt>
      <trkpt lat="43.6739" lon="3.81727">
        <ele>128</ele>
        <time>2021-05-18T10:18:44Z</time>
      </trkpt>
      <trkpt lat="43.6736" lon="3.81739">
        <ele>128.19999694824</ele>
        <time>2021-05-18T10:18:50Z</time>
      </trkpt>
      <trkpt lat="43.67355" lon="3.81743">
        <ele>128.19999694824</ele>
        <time>2021-05-18T10:18:51Z</time>
      </trkpt>
      <trkpt lat="43.6735" lon="3.81747">
        <ele>128.19999694824</ele>
        <time>2021-05-18T10:18:52Z</time>
      </trkpt>
      <trkpt lat="43.67346" lon="3.81752">
        <ele>128.39999389648</ele>
        <time>2021-05-18T10:18:53Z</time>
      </trkpt>
      <trkpt lat="43.67342" lon="3.81757">
        <ele>128.39999389648</ele>
        <time>2021-05-18T10:18:54Z</time>
      </trkpt>
      <trkpt lat="43.67313" lon="3.81808">
        <ele>131.60000610352</ele>
        <time>2021-05-18T10:19:04Z</time>
      </trkpt>
      <trkpt lat="43.67295" lon="3.81851">
        <ele>134.60000610352</ele>
        <time>2021-05-18T10:19:12Z</time>
      </trkpt>
      <trkpt lat="43.6728" lon="3.81886">
        <ele>137.39999389648</ele>
        <time>2021-05-18T10:19:19Z</time>
      </trkpt>
      <trkpt lat="43.67264" lon="3.81916">
        <ele>140.39999389648</ele>
        <time>2021-05-18T10:19:26Z</time>
      </trkpt>
      <trkpt lat="43.67244" lon="3.81955">
        <ele>143.39999389648</ele>
        <time>2021-05-18T10:19:36Z</time>
      </trkpt>
      <trkpt lat="43.67213" lon="3.82012">
        <ele>146.19999694824</ele>
        <time>2021-05-18T10:19:55Z</time>
      </trkpt>
      <trkpt lat="43.67194" lon="3.82037">
        <ele>146.80000305176</ele>
        <time>2021-05-18T10:20:06Z</time>
      </trkpt>
      <trkpt lat="43.67184" lon="3.82055">
        <ele>146.60000610352</ele>
        <time>2021-05-18T10:20:11Z</time>
      </trkpt>
      <trkpt lat="43.67182" lon="3.82059">
        <ele>146.60000610352</ele>
        <time>2021-05-18T10:20:12Z</time>
      </trkpt>
      <trkpt lat="43.67139" lon="3.82111">
        <ele>144</ele>
        <time>2021-05-18T10:20:28Z</time>
      </trkpt>
      <trkpt lat="43.67131" lon="3.82107">
        <ele>143.39999389648</ele>
        <time>2021-05-18T10:20:36Z</time>
      </trkpt>
      <trkpt lat="43.67128" lon="3.82112">
        <ele>143.39999389648</ele>
        <time>2021-05-18T10:21:20Z</time>
      </trkpt>
      <trkpt lat="43.67114" lon="3.82128">
        <ele>143</ele>
        <time>2021-05-18T10:21:25Z</time>
      </trkpt>
      <trkpt lat="43.6711" lon="3.82131">
        <ele>142.80000305176</ele>
        <time>2021-05-18T10:21:26Z</time>
      </trkpt>
      <trkpt lat="43.67091" lon="3.82141">
        <ele>142</ele>
        <time>2021-05-18T10:21:30Z</time>
      </trkpt>
      <trkpt lat="43.67085" lon="3.82143">
        <ele>141.80000305176</ele>
        <time>2021-05-18T10:21:31Z</time>
      </trkpt>
      <trkpt lat="43.67079" lon="3.82143">
        <ele>141.39999389648</ele>
        <time>2021-05-18T10:21:32Z</time>
      </trkpt>
      <trkpt lat="43.67074" lon="3.82142">
        <ele>141.19999694824</ele>
        <time>2021-05-18T10:21:33Z</time>
      </trkpt>
      <trkpt lat="43.67069" lon="3.82139">
        <ele>141</ele>
        <time>2021-05-18T10:21:34Z</time>
      </trkpt>
      <trkpt lat="43.67064" lon="3.82137">
        <ele>141</ele>
        <time>2021-05-18T10:21:35Z</time>
      </trkpt>
      <trkpt lat="43.67058" lon="3.82136">
        <ele>141</ele>
        <time>2021-05-18T10:21:36Z</time>
      </trkpt>
      <trkpt lat="43.67053" lon="3.82135">
        <ele>141</ele>
        <time>2021-05-18T10:21:37Z</time>
      </trkpt>
      <trkpt lat="43.67044" lon="3.82136">
        <ele>141</ele>
        <time>2021-05-18T10:21:39Z</time>
      </trkpt>
      <trkpt lat="43.67025" lon="3.8214">
        <ele>141.60000610352</ele>
        <time>2021-05-18T10:21:43Z</time>
      </trkpt>
      <trkpt lat="43.67021" lon="3.8214">
        <ele>142.39999389648</ele>
        <time>2021-05-18T10:21:44Z</time>
      </trkpt>
      <trkpt lat="43.67017" lon="3.82139">
        <ele>142.80000305176</ele>
        <time>2021-05-18T10:21:45Z</time>
      </trkpt>
      <trkpt lat="43.66988" lon="3.82118">
        <ele>146</ele>
        <time>2021-05-18T10:21:55Z</time>
      </trkpt>
      <trkpt lat="43.66957" lon="3.82092">
        <ele>148.19999694824</ele>
        <time>2021-05-18T10:22:07Z</time>
      </trkpt>
      <trkpt lat="43.66944" lon="3.82077">
        <ele>148.80000305176</ele>
        <time>2021-05-18T10:22:11Z</time>
      </trkpt>
      <trkpt lat="43.669" lon="3.82005">
        <ele>151.80000305176</ele>
        <time>2021-05-18T10:22:26Z</time>
      </trkpt>
      <trkpt lat="43.66859" lon="3.81901">
        <ele>154.39999389648</ele>
        <time>2021-05-18T10:22:44Z</time>
      </trkpt>
      <trkpt lat="43.66824" lon="3.81802">
        <ele>155.80000305176</ele>
        <time>2021-05-18T10:23:00Z</time>
      </trkpt>
      <trkpt lat="43.66798" lon="3.81712">
        <ele>155.39999389648</ele>
        <time>2021-05-18T10:23:15Z</time>
      </trkpt>
      <trkpt lat="43.66773" lon="3.81619">
        <ele>154</ele>
        <time>2021-05-18T10:23:27Z</time>
      </trkpt>
      <trkpt lat="43.66732" lon="3.8155">
        <ele>152.19999694824</ele>
        <time>2021-05-18T10:23:38Z</time>
      </trkpt>
      <trkpt lat="43.66688" lon="3.81483">
        <ele>152.19999694824</ele>
        <time>2021-05-18T10:23:50Z</time>
      </trkpt>
      <trkpt lat="43.66676" lon="3.81415">
        <ele>150.39999389648</ele>
        <time>2021-05-18T10:23:57Z</time>
      </trkpt>
      <trkpt lat="43.66676" lon="3.81404">
        <ele>150</ele>
        <time>2021-05-18T10:23:58Z</time>
      </trkpt>
      <trkpt lat="43.66677" lon="3.81394">
        <ele>149.60000610352</ele>
        <time>2021-05-18T10:23:59Z</time>
      </trkpt>
      <trkpt lat="43.66679" lon="3.81385">
        <ele>149.39999389648</ele>
        <time>2021-05-18T10:24:00Z</time>
      </trkpt>
      <trkpt lat="43.6668" lon="3.81377">
        <ele>149</ele>
        <time>2021-05-18T10:24:01Z</time>
      </trkpt>
      <trkpt lat="43.66684" lon="3.81362">
        <ele>148.80000305176</ele>
        <time>2021-05-18T10:24:03Z</time>
      </trkpt>
      <trkpt lat="43.6669" lon="3.81342">
        <ele>148.60000610352</ele>
        <time>2021-05-18T10:24:06Z</time>
      </trkpt>
      <trkpt lat="43.66694" lon="3.81328">
        <ele>149.19999694824</ele>
        <time>2021-05-18T10:24:08Z</time>
      </trkpt>
      <trkpt lat="43.66712" lon="3.81285">
        <ele>152.19999694824</ele>
        <time>2021-05-18T10:24:17Z</time>
      </trkpt>
      <trkpt lat="43.66744" lon="3.81242">
        <ele>153.60000610352</ele>
        <time>2021-05-18T10:24:31Z</time>
      </trkpt>
      <trkpt lat="43.66759" lon="3.81211">
        <ele>154</ele>
        <time>2021-05-18T10:24:41Z</time>
      </trkpt>
      <trkpt lat="43.66759" lon="3.81209">
        <ele>154.19999694824</ele>
        <time>2021-05-18T10:24:42Z</time>
      </trkpt>
      <trkpt lat="43.66759" lon="3.81209">
        <ele>154.80000305176</ele>
        <time>2021-05-18T10:24:46Z</time>
      </trkpt>
      <trkpt lat="43.6676" lon="3.812">
        <ele>155.19999694824</ele>
        <time>2021-05-18T10:25:11Z</time>
      </trkpt>
      <trkpt lat="43.66763" lon="3.81139">
        <ele>154.60000610352</ele>
        <time>2021-05-18T10:25:26Z</time>
      </trkpt>
      <trkpt lat="43.66766" lon="3.81108">
        <ele>154</ele>
        <time>2021-05-18T10:25:32Z</time>
      </trkpt>
      <trkpt lat="43.66768" lon="3.81029">
        <ele>152.60000610352</ele>
        <time>2021-05-18T10:25:46Z</time>
      </trkpt>
      <trkpt lat="43.66769" lon="3.81022">
        <ele>152.39999389648</ele>
        <time>2021-05-18T10:25:47Z</time>
      </trkpt>
      <trkpt lat="43.66771" lon="3.81016">
        <ele>152.19999694824</ele>
        <time>2021-05-18T10:25:48Z</time>
      </trkpt>
      <trkpt lat="43.66775" lon="3.81011">
        <ele>151.80000305176</ele>
        <time>2021-05-18T10:25:49Z</time>
      </trkpt>
      <trkpt lat="43.66781" lon="3.81007">
        <ele>151.39999389648</ele>
        <time>2021-05-18T10:25:50Z</time>
      </trkpt>
      <trkpt lat="43.66786" lon="3.81004">
        <ele>151</ele>
        <time>2021-05-18T10:25:51Z</time>
      </trkpt>
      <trkpt lat="43.6684" lon="3.80973">
        <ele>151</ele>
        <time>2021-05-18T10:26:04Z</time>
      </trkpt>
      <trkpt lat="43.66887" lon="3.80926">
        <ele>150</ele>
        <time>2021-05-18T10:26:17Z</time>
      </trkpt>
      <trkpt lat="43.66913" lon="3.80881">
        <ele>149</ele>
        <time>2021-05-18T10:26:25Z</time>
      </trkpt>
      <trkpt lat="43.66916" lon="3.8087">
        <ele>148.60000610352</ele>
        <time>2021-05-18T10:26:27Z</time>
      </trkpt>
      <trkpt lat="43.66922" lon="3.80824">
        <ele>149.80000305176</ele>
        <time>2021-05-18T10:26:37Z</time>
      </trkpt>
      <trkpt lat="43.66921" lon="3.8082">
        <ele>150</ele>
        <time>2021-05-18T10:26:38Z</time>
      </trkpt>
      <trkpt lat="43.66919" lon="3.80816">
        <ele>150.19999694824</ele>
        <time>2021-05-18T10:26:39Z</time>
      </trkpt>
      <trkpt lat="43.66916" lon="3.80812">
        <ele>150.39999389648</ele>
        <time>2021-05-18T10:26:40Z</time>
      </trkpt>
      <trkpt lat="43.66913" lon="3.80807">
        <ele>150.39999389648</ele>
        <time>2021-05-18T10:26:41Z</time>
      </trkpt>
      <trkpt lat="43.66863" lon="3.80751">
        <ele>151.60000610352</ele>
        <time>2021-05-18T10:26:56Z</time>
      </trkpt>
      <trkpt lat="43.6686" lon="3.80744">
        <ele>151.60000610352</ele>
        <time>2021-05-18T10:26:57Z</time>
      </trkpt>
      <trkpt lat="43.66858" lon="3.80737">
        <ele>151.39999389648</ele>
        <time>2021-05-18T10:26:58Z</time>
      </trkpt>
      <trkpt lat="43.66857" lon="3.80729">
        <ele>151.39999389648</ele>
        <time>2021-05-18T10:26:59Z</time>
      </trkpt>
      <trkpt lat="43.66858" lon="3.80721">
        <ele>151.19999694824</ele>
        <time>2021-05-18T10:27:00Z</time>
      </trkpt>
      <trkpt lat="43.66859" lon="3.80714">
        <ele>151.19999694824</ele>
        <time>2021-05-18T10:27:01Z</time>
      </trkpt>
      <trkpt lat="43.6686" lon="3.80706">
        <ele>151</ele>
        <time>2021-05-18T10:27:02Z</time>
      </trkpt>
      <trkpt lat="43.66861" lon="3.80687">
        <ele>151.19999694824</ele>
        <time>2021-05-18T10:27:05Z</time>
      </trkpt>
      <trkpt lat="43.66861" lon="3.8068">
        <ele>151.19999694824</ele>
        <time>2021-05-18T10:27:06Z</time>
      </trkpt>
      <trkpt lat="43.6686" lon="3.80673">
        <ele>151.39999389648</ele>
        <time>2021-05-18T10:27:07Z</time>
      </trkpt>
      <trkpt lat="43.66858" lon="3.80666">
        <ele>151.39999389648</ele>
        <time>2021-05-18T10:27:08Z</time>
      </trkpt>
      <trkpt lat="43.66856" lon="3.80658">
        <ele>151.39999389648</ele>
        <time>2021-05-18T10:27:09Z</time>
      </trkpt>
      <trkpt lat="43.66854" lon="3.80651">
        <ele>151.60000610352</ele>
        <time>2021-05-18T10:27:10Z</time>
      </trkpt>
      <trkpt lat="43.66852" lon="3.80645">
        <ele>151.60000610352</ele>
        <time>2021-05-18T10:27:11Z</time>
      </trkpt>
      <trkpt lat="43.66849" lon="3.80639">
        <ele>151.60000610352</ele>
        <time>2021-05-18T10:27:12Z</time>
      </trkpt>
      <trkpt lat="43.66845" lon="3.80634">
        <ele>151.80000305176</ele>
        <time>2021-05-18T10:27:13Z</time>
      </trkpt>
      <trkpt lat="43.66842" lon="3.8063">
        <ele>151.80000305176</ele>
        <time>2021-05-18T10:27:14Z</time>
      </trkpt>
      <trkpt lat="43.66837" lon="3.80628">
        <ele>151.80000305176</ele>
        <time>2021-05-18T10:27:15Z</time>
      </trkpt>
      <trkpt lat="43.66832" lon="3.80627">
        <ele>151.80000305176</ele>
        <time>2021-05-18T10:27:16Z</time>
      </trkpt>
      <trkpt lat="43.66827" lon="3.80626">
        <ele>151.80000305176</ele>
        <time>2021-05-18T10:27:17Z</time>
      </trkpt>
      <trkpt lat="43.66822" lon="3.80626">
        <ele>151.80000305176</ele>
        <time>2021-05-18T10:27:18Z</time>
      </trkpt>
      <trkpt lat="43.66804" lon="3.80621">
        <ele>152</ele>
        <time>2021-05-18T10:27:22Z</time>
      </trkpt>
      <trkpt lat="43.66743" lon="3.8058">
        <ele>152</ele>
        <time>2021-05-18T10:27:35Z</time>
      </trkpt>
      <trkpt lat="43.66657" lon="3.80558">
        <ele>152.39999389648</ele>
        <time>2021-05-18T10:27:51Z</time>
      </trkpt>
      <trkpt lat="43.66612" lon="3.80545">
        <ele>155.80000305176</ele>
        <time>2021-05-18T10:28:00Z</time>
      </trkpt>
      <trkpt lat="43.66608" lon="3.80543">
        <ele>156.19999694824</ele>
        <time>2021-05-18T10:28:01Z</time>
      </trkpt>
      <trkpt lat="43.66603" lon="3.80541">
        <ele>156.39999389648</ele>
        <time>2021-05-18T10:28:02Z</time>
      </trkpt>
      <trkpt lat="43.66599" lon="3.80537">
        <ele>156.60000610352</ele>
        <time>2021-05-18T10:28:03Z</time>
      </trkpt>
      <trkpt lat="43.6659" lon="3.80526">
        <ele>157.39999389648</ele>
        <time>2021-05-18T10:28:06Z</time>
      </trkpt>
      <trkpt lat="43.66587" lon="3.80522">
        <ele>157.80000305176</ele>
        <time>2021-05-18T10:28:07Z</time>
      </trkpt>
      <trkpt lat="43.66572" lon="3.80497">
        <ele>160.80000305176</ele>
        <time>2021-05-18T10:28:13Z</time>
      </trkpt>
      <trkpt lat="43.66539" lon="3.80447">
        <ele>163.80000305176</ele>
        <time>2021-05-18T10:28:26Z</time>
      </trkpt>
      <trkpt lat="43.6651" lon="3.80408">
        <ele>164.60000610352</ele>
        <time>2021-05-18T10:28:37Z</time>
      </trkpt>
      <trkpt lat="43.66506" lon="3.80405">
        <ele>164.60000610352</ele>
        <time>2021-05-18T10:28:38Z</time>
      </trkpt>
      <trkpt lat="43.66502" lon="3.80403">
        <ele>164.60000610352</ele>
        <time>2021-05-18T10:28:39Z</time>
      </trkpt>
      <trkpt lat="43.66498" lon="3.80401">
        <ele>164.80000305176</ele>
        <time>2021-05-18T10:28:40Z</time>
      </trkpt>
      <trkpt lat="43.66494" lon="3.80401">
        <ele>164.80000305176</ele>
        <time>2021-05-18T10:28:41Z</time>
      </trkpt>
      <trkpt lat="43.6649" lon="3.80402">
        <ele>164.80000305176</ele>
        <time>2021-05-18T10:28:42Z</time>
      </trkpt>
      <trkpt lat="43.66486" lon="3.80403">
        <ele>164.80000305176</ele>
        <time>2021-05-18T10:28:43Z</time>
      </trkpt>
      <trkpt lat="43.66482" lon="3.80404">
        <ele>164.60000610352</ele>
        <time>2021-05-18T10:28:44Z</time>
      </trkpt>
      <trkpt lat="43.66479" lon="3.80406">
        <ele>164.60000610352</ele>
        <time>2021-05-18T10:28:45Z</time>
      </trkpt>
      <trkpt lat="43.66476" lon="3.80408">
        <ele>164.60000610352</ele>
        <time>2021-05-18T10:28:46Z</time>
      </trkpt>
      <trkpt lat="43.66473" lon="3.80411">
        <ele>164.60000610352</ele>
        <time>2021-05-18T10:28:47Z</time>
      </trkpt>
      <trkpt lat="43.66431" lon="3.80445">
        <ele>164.39999389648</ele>
        <time>2021-05-18T10:29:01Z</time>
      </trkpt>
      <trkpt lat="43.66406" lon="3.80452">
        <ele>163.80000305176</ele>
        <time>2021-05-18T10:29:08Z</time>
      </trkpt>
      <trkpt lat="43.66402" lon="3.8045">
        <ele>163.80000305176</ele>
        <time>2021-05-18T10:29:09Z</time>
      </trkpt>
      <trkpt lat="43.66335" lon="3.80402">
        <ele>164</ele>
        <time>2021-05-18T10:29:25Z</time>
      </trkpt>
      <trkpt lat="43.66263" lon="3.80338">
        <ele>164.19999694824</ele>
        <time>2021-05-18T10:29:43Z</time>
      </trkpt>
      <trkpt lat="43.66179" lon="3.80267">
        <ele>164</ele>
        <time>2021-05-18T10:30:00Z</time>
      </trkpt>
      <trkpt lat="43.66121" lon="3.80224">
        <ele>163.80000305176</ele>
        <time>2021-05-18T10:30:13Z</time>
      </trkpt>
      <trkpt lat="43.66109" lon="3.80217">
        <ele>163.80000305176</ele>
        <time>2021-05-18T10:30:16Z</time>
      </trkpt>
      <trkpt lat="43.66104" lon="3.80216">
        <ele>163.80000305176</ele>
        <time>2021-05-18T10:30:17Z</time>
      </trkpt>
      <trkpt lat="43.661" lon="3.80216">
        <ele>163.80000305176</ele>
        <time>2021-05-18T10:30:18Z</time>
      </trkpt>
      <trkpt lat="43.66096" lon="3.80218">
        <ele>163.80000305176</ele>
        <time>2021-05-18T10:30:19Z</time>
      </trkpt>
      <trkpt lat="43.66092" lon="3.8022">
        <ele>163.60000610352</ele>
        <time>2021-05-18T10:30:20Z</time>
      </trkpt>
      <trkpt lat="43.66088" lon="3.80223">
        <ele>163.60000610352</ele>
        <time>2021-05-18T10:30:21Z</time>
      </trkpt>
      <trkpt lat="43.66066" lon="3.80235">
        <ele>163.39999389648</ele>
        <time>2021-05-18T10:30:25Z</time>
      </trkpt>
      <trkpt lat="43.6606" lon="3.80237">
        <ele>163.19999694824</ele>
        <time>2021-05-18T10:30:26Z</time>
      </trkpt>
      <trkpt lat="43.66054" lon="3.80238">
        <ele>163.19999694824</ele>
        <time>2021-05-18T10:30:27Z</time>
      </trkpt>
      <trkpt lat="43.65979" lon="3.80235">
        <ele>161.80000305176</ele>
        <time>2021-05-18T10:30:40Z</time>
      </trkpt>
      <trkpt lat="43.65906" lon="3.8019">
        <ele>160</ele>
        <time>2021-05-18T10:30:54Z</time>
      </trkpt>
      <trkpt lat="43.65882" lon="3.80159">
        <ele>159.19999694824</ele>
        <time>2021-05-18T10:31:00Z</time>
      </trkpt>
      <trkpt lat="43.65833" lon="3.80084">
        <ele>157.19999694824</ele>
        <time>2021-05-18T10:31:14Z</time>
      </trkpt>
      <trkpt lat="43.65815" lon="3.80061">
        <ele>156</ele>
        <time>2021-05-18T10:31:18Z</time>
      </trkpt>
      <trkpt lat="43.6581" lon="3.80058">
        <ele>155.39999389648</ele>
        <time>2021-05-18T10:31:19Z</time>
      </trkpt>
      <trkpt lat="43.65804" lon="3.80055">
        <ele>154.80000305176</ele>
        <time>2021-05-18T10:31:20Z</time>
      </trkpt>
      <trkpt lat="43.65745" lon="3.80039">
        <ele>152.39999389648</ele>
        <time>2021-05-18T10:31:31Z</time>
      </trkpt>
      <trkpt lat="43.65725" lon="3.80046">
        <ele>152.19999694824</ele>
        <time>2021-05-18T10:31:35Z</time>
      </trkpt>
      <trkpt lat="43.65721" lon="3.8005">
        <ele>152.19999694824</ele>
        <time>2021-05-18T10:31:36Z</time>
      </trkpt>
      <trkpt lat="43.65717" lon="3.80053">
        <ele>152.39999389648</ele>
        <time>2021-05-18T10:31:37Z</time>
      </trkpt>
      <trkpt lat="43.65693" lon="3.8008">
        <ele>155.60000610352</ele>
        <time>2021-05-18T10:31:46Z</time>
      </trkpt>
      <trkpt lat="43.65661" lon="3.8011">
        <ele>158.60000610352</ele>
        <time>2021-05-18T10:31:57Z</time>
      </trkpt>
      <trkpt lat="43.65628" lon="3.80134">
        <ele>160.60000610352</ele>
        <time>2021-05-18T10:32:07Z</time>
      </trkpt>
      <trkpt lat="43.65625" lon="3.80138">
        <ele>160.80000305176</ele>
        <time>2021-05-18T10:32:08Z</time>
      </trkpt>
      <trkpt lat="43.65611" lon="3.80158">
        <ele>162</ele>
        <time>2021-05-18T10:32:15Z</time>
      </trkpt>
      <trkpt lat="43.65609" lon="3.80157">
        <ele>162.19999694824</ele>
        <time>2021-05-18T10:32:16Z</time>
      </trkpt>
      <trkpt lat="43.65608" lon="3.80156">
        <ele>162.19999694824</ele>
        <time>2021-05-18T10:32:17Z</time>
      </trkpt>
      <trkpt lat="43.65608" lon="3.80156">
        <ele>163</ele>
        <time>2021-05-18T10:32:21Z</time>
      </trkpt>
      <trkpt lat="43.65603" lon="3.80148">
        <ele>163.60000610352</ele>
        <time>2021-05-18T10:32:43Z</time>
      </trkpt>
      <trkpt lat="43.65601" lon="3.80146">
        <ele>163.39999389648</ele>
        <time>2021-05-18T10:32:44Z</time>
      </trkpt>
      <trkpt lat="43.65599" lon="3.80144">
        <ele>163.39999389648</ele>
        <time>2021-05-18T10:32:45Z</time>
      </trkpt>
      <trkpt lat="43.65596" lon="3.80142">
        <ele>163.39999389648</ele>
        <time>2021-05-18T10:32:46Z</time>
      </trkpt>
      <trkpt lat="43.65588" lon="3.80131">
        <ele>163.19999694824</ele>
        <time>2021-05-18T10:32:49Z</time>
      </trkpt>
      <trkpt lat="43.65586" lon="3.80126">
        <ele>163</ele>
        <time>2021-05-18T10:32:50Z</time>
      </trkpt>
      <trkpt lat="43.65583" lon="3.8012">
        <ele>163</ele>
        <time>2021-05-18T10:32:51Z</time>
      </trkpt>
      <trkpt lat="43.6558" lon="3.80115">
        <ele>162.80000305176</ele>
        <time>2021-05-18T10:32:52Z</time>
      </trkpt>
      <trkpt lat="43.65577" lon="3.80111">
        <ele>162.80000305176</ele>
        <time>2021-05-18T10:32:53Z</time>
      </trkpt>
      <trkpt lat="43.65574" lon="3.80106">
        <ele>162.80000305176</ele>
        <time>2021-05-18T10:32:54Z</time>
      </trkpt>
      <trkpt lat="43.65556" lon="3.8008">
        <ele>162.80000305176</ele>
        <time>2021-05-18T10:33:00Z</time>
      </trkpt>
      <trkpt lat="43.65554" lon="3.80075">
        <ele>163</ele>
        <time>2021-05-18T10:33:01Z</time>
      </trkpt>
      <trkpt lat="43.65551" lon="3.80069">
        <ele>163</ele>
        <time>2021-05-18T10:33:02Z</time>
      </trkpt>
      <trkpt lat="43.65494" lon="3.79975">
        <ele>164.39999389648</ele>
        <time>2021-05-18T10:33:21Z</time>
      </trkpt>
      <trkpt lat="43.65482" lon="3.79958">
        <ele>164.39999389648</ele>
        <time>2021-05-18T10:33:25Z</time>
      </trkpt>
      <trkpt lat="43.65426" lon="3.79893">
        <ele>165</ele>
        <time>2021-05-18T10:33:40Z</time>
      </trkpt>
      <trkpt lat="43.65364" lon="3.79839">
        <ele>165.80000305176</ele>
        <time>2021-05-18T10:33:58Z</time>
      </trkpt>
      <trkpt lat="43.65313" lon="3.79794">
        <ele>164.80000305176</ele>
        <time>2021-05-18T10:34:13Z</time>
      </trkpt>
      <trkpt lat="43.65278" lon="3.79764">
        <ele>161.80000305176</ele>
        <time>2021-05-18T10:34:24Z</time>
      </trkpt>
      <trkpt lat="43.65274" lon="3.7976">
        <ele>161.39999389648</ele>
        <time>2021-05-18T10:34:25Z</time>
      </trkpt>
      <trkpt lat="43.65271" lon="3.79757">
        <ele>161</ele>
        <time>2021-05-18T10:34:26Z</time>
      </trkpt>
      <trkpt lat="43.65268" lon="3.79752">
        <ele>160.39999389648</ele>
        <time>2021-05-18T10:34:27Z</time>
      </trkpt>
      <trkpt lat="43.65265" lon="3.79748">
        <ele>160</ele>
        <time>2021-05-18T10:34:28Z</time>
      </trkpt>
      <trkpt lat="43.65251" lon="3.79736">
        <ele>157</ele>
        <time>2021-05-18T10:34:33Z</time>
      </trkpt>
      <trkpt lat="43.65236" lon="3.79723">
        <ele>153.60000610352</ele>
        <time>2021-05-18T10:34:40Z</time>
      </trkpt>
      <trkpt lat="43.6522" lon="3.79711">
        <ele>150.19999694824</ele>
        <time>2021-05-18T10:34:45Z</time>
      </trkpt>
      <trkpt lat="43.65208" lon="3.79701">
        <ele>146.80000305176</ele>
        <time>2021-05-18T10:34:50Z</time>
      </trkpt>
      <trkpt lat="43.65192" lon="3.79692">
        <ele>142.80000305176</ele>
        <time>2021-05-18T10:34:56Z</time>
      </trkpt>
      <trkpt lat="43.65174" lon="3.79686">
        <ele>139.19999694824</ele>
        <time>2021-05-18T10:35:01Z</time>
      </trkpt>
      <trkpt lat="43.65162" lon="3.79681">
        <ele>136.80000305176</ele>
        <time>2021-05-18T10:35:04Z</time>
      </trkpt>
      <trkpt lat="43.65158" lon="3.7968">
        <ele>135.60000610352</ele>
        <time>2021-05-18T10:35:05Z</time>
      </trkpt>
      <trkpt lat="43.65154" lon="3.79678">
        <ele>134.19999694824</ele>
        <time>2021-05-18T10:35:06Z</time>
      </trkpt>
      <trkpt lat="43.65149" lon="3.79674">
        <ele>133.19999694824</ele>
        <time>2021-05-18T10:35:07Z</time>
      </trkpt>
      <trkpt lat="43.65144" lon="3.79671">
        <ele>131.80000305176</ele>
        <time>2021-05-18T10:35:08Z</time>
      </trkpt>
      <trkpt lat="43.65128" lon="3.79659">
        <ele>128.19999694824</ele>
        <time>2021-05-18T10:35:12Z</time>
      </trkpt>
      <trkpt lat="43.65117" lon="3.79653">
        <ele>125.19999694824</ele>
        <time>2021-05-18T10:35:15Z</time>
      </trkpt>
      <trkpt lat="43.65102" lon="3.79646">
        <ele>122.19999694824</ele>
        <time>2021-05-18T10:35:18Z</time>
      </trkpt>
      <trkpt lat="43.65097" lon="3.79645">
        <ele>121.40000152588</ele>
        <time>2021-05-18T10:35:19Z</time>
      </trkpt>
      <trkpt lat="43.65094" lon="3.79647">
        <ele>120.40000152588</ele>
        <time>2021-05-18T10:35:20Z</time>
      </trkpt>
      <trkpt lat="43.65091" lon="3.7965">
        <ele>118.59999847412</ele>
        <time>2021-05-18T10:35:21Z</time>
      </trkpt>
      <trkpt lat="43.65088" lon="3.79654">
        <ele>118</ele>
        <time>2021-05-18T10:35:22Z</time>
      </trkpt>
      <trkpt lat="43.65086" lon="3.79657">
        <ele>117.19999694824</ele>
        <time>2021-05-18T10:35:23Z</time>
      </trkpt>
      <trkpt lat="43.65078" lon="3.79663">
        <ele>113.59999847412</ele>
        <time>2021-05-18T10:35:28Z</time>
      </trkpt>
      <trkpt lat="43.65078" lon="3.79664">
        <ele>111.59999847412</ele>
        <time>2021-05-18T10:35:33Z</time>
      </trkpt>
      <trkpt lat="43.65085" lon="3.79643">
        <ele>110</ele>
        <time>2021-05-18T10:36:04Z</time>
      </trkpt>
      <trkpt lat="43.65087" lon="3.7964">
        <ele>110</ele>
        <time>2021-05-18T10:36:05Z</time>
      </trkpt>
      <trkpt lat="43.65096" lon="3.79632">
        <ele>109.80000305176</ele>
        <time>2021-05-18T10:36:08Z</time>
      </trkpt>
      <trkpt lat="43.65113" lon="3.79598">
        <ele>109.19999694824</ele>
        <time>2021-05-18T10:36:17Z</time>
      </trkpt>
      <trkpt lat="43.65112" lon="3.79592">
        <ele>109.19999694824</ele>
        <time>2021-05-18T10:36:18Z</time>
      </trkpt>
      <trkpt lat="43.65111" lon="3.79587">
        <ele>109.19999694824</ele>
        <time>2021-05-18T10:36:19Z</time>
      </trkpt>
      <trkpt lat="43.65073" lon="3.79509">
        <ele>110</ele>
        <time>2021-05-18T10:36:34Z</time>
      </trkpt>
      <trkpt lat="43.65059" lon="3.79434">
        <ele>109</ele>
        <time>2021-05-18T10:36:44Z</time>
      </trkpt>
      <trkpt lat="43.65058" lon="3.79372">
        <ele>108.59999847412</ele>
        <time>2021-05-18T10:36:52Z</time>
      </trkpt>
      <trkpt lat="43.65059" lon="3.79365">
        <ele>108.80000305176</ele>
        <time>2021-05-18T10:36:53Z</time>
      </trkpt>
      <trkpt lat="43.65067" lon="3.79267">
        <ele>110.19999694824</ele>
        <time>2021-05-18T10:37:09Z</time>
      </trkpt>
      <trkpt lat="43.65069" lon="3.79259">
        <ele>110.19999694824</ele>
        <time>2021-05-18T10:37:10Z</time>
      </trkpt>
      <trkpt lat="43.65073" lon="3.79252">
        <ele>110</ele>
        <time>2021-05-18T10:37:11Z</time>
      </trkpt>
      <trkpt lat="43.65077" lon="3.79245">
        <ele>109.59999847412</ele>
        <time>2021-05-18T10:37:12Z</time>
      </trkpt>
      <trkpt lat="43.65082" lon="3.7924">
        <ele>109.19999694824</ele>
        <time>2021-05-18T10:37:13Z</time>
      </trkpt>
      <trkpt lat="43.65087" lon="3.79234">
        <ele>109</ele>
        <time>2021-05-18T10:37:14Z</time>
      </trkpt>
      <trkpt lat="43.65108" lon="3.79209">
        <ele>108.19999694824</ele>
        <time>2021-05-18T10:37:19Z</time>
      </trkpt>
      <trkpt lat="43.65111" lon="3.79202">
        <ele>108.19999694824</ele>
        <time>2021-05-18T10:37:20Z</time>
      </trkpt>
      <trkpt lat="43.65122" lon="3.79178">
        <ele>107.80000305176</ele>
        <time>2021-05-18T10:37:23Z</time>
      </trkpt>
      <trkpt lat="43.65134" lon="3.79162">
        <ele>107</ele>
        <time>2021-05-18T10:37:25Z</time>
      </trkpt>
      <trkpt lat="43.65165" lon="3.79137">
        <ele>105.19999694824</ele>
        <time>2021-05-18T10:37:29Z</time>
      </trkpt>
      <trkpt lat="43.65174" lon="3.79133">
        <ele>104.80000305176</ele>
        <time>2021-05-18T10:37:30Z</time>
      </trkpt>
      <trkpt lat="43.65211" lon="3.79116">
        <ele>101.59999847412</ele>
        <time>2021-05-18T10:37:34Z</time>
      </trkpt>
      <trkpt lat="43.6522" lon="3.79113">
        <ele>100.80000305176</ele>
        <time>2021-05-18T10:37:35Z</time>
      </trkpt>
      <trkpt lat="43.65229" lon="3.79112">
        <ele>100</ele>
        <time>2021-05-18T10:37:36Z</time>
      </trkpt>
      <trkpt lat="43.65239" lon="3.79112">
        <ele>99.199996948242</ele>
        <time>2021-05-18T10:37:37Z</time>
      </trkpt>
      <trkpt lat="43.65246" lon="3.79113">
        <ele>98.400001525879</ele>
        <time>2021-05-18T10:37:38Z</time>
      </trkpt>
      <trkpt lat="43.65252" lon="3.79113">
        <ele>97.400001525879</ele>
        <time>2021-05-18T10:37:39Z</time>
      </trkpt>
      <trkpt lat="43.65257" lon="3.79112">
        <ele>96.599998474121</ele>
        <time>2021-05-18T10:37:40Z</time>
      </trkpt>
      <trkpt lat="43.65258" lon="3.79105">
        <ele>95.599998474121</ele>
        <time>2021-05-18T10:37:41Z</time>
      </trkpt>
      <trkpt lat="43.65257" lon="3.79098">
        <ele>94.800003051758</ele>
        <time>2021-05-18T10:37:42Z</time>
      </trkpt>
      <trkpt lat="43.65254" lon="3.79091">
        <ele>94.199996948242</ele>
        <time>2021-05-18T10:37:43Z</time>
      </trkpt>
      <trkpt lat="43.65248" lon="3.79088">
        <ele>93.599998474121</ele>
        <time>2021-05-18T10:37:44Z</time>
      </trkpt>
      <trkpt lat="43.65225" lon="3.79071">
        <ele>90.199996948242</ele>
        <time>2021-05-18T10:37:48Z</time>
      </trkpt>
      <trkpt lat="43.65217" lon="3.79064">
        <ele>89</ele>
        <time>2021-05-18T10:37:50Z</time>
      </trkpt>
      <trkpt lat="43.65212" lon="3.79062">
        <ele>88.400001525879</ele>
        <time>2021-05-18T10:37:51Z</time>
      </trkpt>
      <trkpt lat="43.65207" lon="3.79061">
        <ele>87.599998474121</ele>
        <time>2021-05-18T10:37:52Z</time>
      </trkpt>
      <trkpt lat="43.65202" lon="3.79061">
        <ele>87.199996948242</ele>
        <time>2021-05-18T10:37:53Z</time>
      </trkpt>
      <trkpt lat="43.65198" lon="3.79061">
        <ele>86.599998474121</ele>
        <time>2021-05-18T10:37:54Z</time>
      </trkpt>
      <trkpt lat="43.65193" lon="3.7906">
        <ele>86</ele>
        <time>2021-05-18T10:37:55Z</time>
      </trkpt>
      <trkpt lat="43.65182" lon="3.79058">
        <ele>85</ele>
        <time>2021-05-18T10:37:57Z</time>
      </trkpt>
      <trkpt lat="43.65171" lon="3.79057">
        <ele>84.400001525879</ele>
        <time>2021-05-18T10:37:59Z</time>
      </trkpt>
      <trkpt lat="43.65152" lon="3.79054">
        <ele>83.599998474121</ele>
        <time>2021-05-18T10:38:02Z</time>
      </trkpt>
      <trkpt lat="43.6514" lon="3.79052">
        <ele>83.400001525879</ele>
        <time>2021-05-18T10:38:04Z</time>
      </trkpt>
      <trkpt lat="43.65134" lon="3.79053">
        <ele>83.400001525879</ele>
        <time>2021-05-18T10:38:05Z</time>
      </trkpt>
      <trkpt lat="43.65123" lon="3.79054">
        <ele>83.400001525879</ele>
        <time>2021-05-18T10:38:07Z</time>
      </trkpt>
      <trkpt lat="43.65118" lon="3.79057">
        <ele>83.400001525879</ele>
        <time>2021-05-18T10:38:08Z</time>
      </trkpt>
      <trkpt lat="43.65114" lon="3.7906">
        <ele>83.400001525879</ele>
        <time>2021-05-18T10:38:09Z</time>
      </trkpt>
      <trkpt lat="43.65078" lon="3.79081">
        <ele>83.400001525879</ele>
        <time>2021-05-18T10:38:18Z</time>
      </trkpt>
      <trkpt lat="43.65076" lon="3.79077">
        <ele>83.400001525879</ele>
        <time>2021-05-18T10:38:19Z</time>
      </trkpt>
      <trkpt lat="43.65076" lon="3.79072">
        <ele>83.400001525879</ele>
        <time>2021-05-18T10:38:20Z</time>
      </trkpt>
      <trkpt lat="43.65078" lon="3.79066">
        <ele>83.400001525879</ele>
        <time>2021-05-18T10:38:21Z</time>
      </trkpt>
      <trkpt lat="43.65082" lon="3.79061">
        <ele>83.199996948242</ele>
        <time>2021-05-18T10:38:22Z</time>
      </trkpt>
      <trkpt lat="43.65087" lon="3.79056">
        <ele>82.800003051758</ele>
        <time>2021-05-18T10:38:23Z</time>
      </trkpt>
      <trkpt lat="43.65091" lon="3.7905">
        <ele>82.400001525879</ele>
        <time>2021-05-18T10:38:24Z</time>
      </trkpt>
      <trkpt lat="43.65095" lon="3.79042">
        <ele>82</ele>
        <time>2021-05-18T10:38:25Z</time>
      </trkpt>
      <trkpt lat="43.65098" lon="3.79034">
        <ele>81.599998474121</ele>
        <time>2021-05-18T10:38:26Z</time>
      </trkpt>
      <trkpt lat="43.651" lon="3.79025">
        <ele>81.400001525879</ele>
        <time>2021-05-18T10:38:27Z</time>
      </trkpt>
      <trkpt lat="43.65101" lon="3.79017">
        <ele>81.199996948242</ele>
        <time>2021-05-18T10:38:28Z</time>
      </trkpt>
      <trkpt lat="43.65102" lon="3.79009">
        <ele>81</ele>
        <time>2021-05-18T10:38:29Z</time>
      </trkpt>
      <trkpt lat="43.65102" lon="3.79001">
        <ele>80.599998474121</ele>
        <time>2021-05-18T10:38:30Z</time>
      </trkpt>
      <trkpt lat="43.65101" lon="3.78993">
        <ele>80.400001525879</ele>
        <time>2021-05-18T10:38:31Z</time>
      </trkpt>
      <trkpt lat="43.65099" lon="3.78985">
        <ele>80.199996948242</ele>
        <time>2021-05-18T10:38:32Z</time>
      </trkpt>
      <trkpt lat="43.65097" lon="3.78977">
        <ele>79.800003051758</ele>
        <time>2021-05-18T10:38:33Z</time>
      </trkpt>
      <trkpt lat="43.65094" lon="3.78969">
        <ele>79.800003051758</ele>
        <time>2021-05-18T10:38:34Z</time>
      </trkpt>
      <trkpt lat="43.65076" lon="3.78907">
        <ele>79.400001525879</ele>
        <time>2021-05-18T10:38:43Z</time>
      </trkpt>
      <trkpt lat="43.65074" lon="3.789">
        <ele>79.400001525879</ele>
        <time>2021-05-18T10:38:44Z</time>
      </trkpt>
      <trkpt lat="43.65071" lon="3.78896">
        <ele>79.400001525879</ele>
        <time>2021-05-18T10:38:45Z</time>
      </trkpt>
      <trkpt lat="43.65066" lon="3.78896">
        <ele>79.400001525879</ele>
        <time>2021-05-18T10:38:46Z</time>
      </trkpt>
      <trkpt lat="43.65062" lon="3.789">
        <ele>79.599998474121</ele>
        <time>2021-05-18T10:38:47Z</time>
      </trkpt>
      <trkpt lat="43.6506" lon="3.78907">
        <ele>79.400001525879</ele>
        <time>2021-05-18T10:38:48Z</time>
      </trkpt>
      <trkpt lat="43.65059" lon="3.78915">
        <ele>79.400001525879</ele>
        <time>2021-05-18T10:38:49Z</time>
      </trkpt>
      <trkpt lat="43.65057" lon="3.78923">
        <ele>79.400001525879</ele>
        <time>2021-05-18T10:38:50Z</time>
      </trkpt>
      <trkpt lat="43.65054" lon="3.78929">
        <ele>79.199996948242</ele>
        <time>2021-05-18T10:38:51Z</time>
      </trkpt>
      <trkpt lat="43.6505" lon="3.78934">
        <ele>78.800003051758</ele>
        <time>2021-05-18T10:38:52Z</time>
      </trkpt>
      <trkpt lat="43.65046" lon="3.78938">
        <ele>78.599998474121</ele>
        <time>2021-05-18T10:38:53Z</time>
      </trkpt>
      <trkpt lat="43.65039" lon="3.78954">
        <ele>77.800003051758</ele>
        <time>2021-05-18T10:38:57Z</time>
      </trkpt>
      <trkpt lat="43.65037" lon="3.78955">
        <ele>77.800003051758</ele>
        <time>2021-05-18T10:38:58Z</time>
      </trkpt>
      <trkpt lat="43.65034" lon="3.78956">
        <ele>77.800003051758</ele>
        <time>2021-05-18T10:38:59Z</time>
      </trkpt>
      <trkpt lat="43.65034" lon="3.78957">
        <ele>77.800003051758</ele>
        <time>2021-05-18T10:39:00Z</time>
      </trkpt>
      <trkpt lat="43.65033" lon="3.78956">
        <ele>77.800003051758</ele>
        <time>2021-05-18T10:39:05Z</time>
      </trkpt>
    </trkseg>
  </trk>
</gpx>